[[{"header":{"parameterUnit":"m.s-1","parameterCategory":1,"la1":31.0,"la2":29.5877,"lo1":-88.7671,"lo2":-86.6584,"dy":0.0162,"dx":0.0185,"nx":115,"ny":88,"refTime":"2023-03-28T06:00:00:Z","depth":0,"parameterNumber":2,"parameterNumberName":"U-component_of_WINDS"},"data":[0.0,0.0,0.0,0.0,0.0,0.0,0.0,0.0,0.0,0.0,0.0,0.0,0.0,0.0,0.0,0.0,0.0,0.0,0.0,0.0,0.0,0.0,0.0,0.0,0.0,0.0,0.0,0.0,0.0,0.0,0.0,0.0,0.0,0.0,0.0,0.0,0.0,0.0,0.0,0.0,0.0,0.0,0.0,0.0,0.0,0.0,0.0,0.0,0.0,0.0,0.0,0.0,0.0,0.0,0.0,0.0,0.0,0.0,0.0,0.0,0.0,0.0,0.0,0.0,0.0,0.0,0.0,0.0,0.0,0.0,0.0,0.0,0.0,0.0,0.0,0.0,0.0,0.0,0.0,0.0,0.0,0.0,0.0,0.0,0.0,0.0,0.0,0.0,0.0,0.0,0.0,0.0,0.0,0.0,0.0,0.0,0.0,0.0,0.0,0.0,0.0,0.0,0.0,0.0,0.0,0.0,0.0,0.0,0.0,0.0,0.0,0.0,0.0,0.0,0.0,0.0,0.0,0.0,0.0,0.0,0.0,0.0,0.0,0.0,0.0,0.0,0.0,0.0,0.0,0.0,0.0,0.0,0.0,0.0,0.0,0.0,0.0,0.0,0.0,0.0,0.0,0.0,0.0,0.0,0.0,0.0,0.0,0.0,0.0,0.0,0.0,0.0,0.0,0.0,0.0,0.0,0.0,0.0,0.0,0.0,0.0,0.0,0.0,0.0,0.0,0.0,0.0,0.0,0.0,0.0,0.0,0.0,0.0,0.0,0.0,0.0,0.0,0.0,0.0,0.0,0.0,0.0,0.0,0.0,0.0,0.0,0.0,0.0,0.0,0.0,0.0,0.0,0.0,0.0,0.0,0.0,0.0,0.0,0.0,0.0,0.0,0.0,0.0,0.0,0.0,0.0,0.0,0.0,0.0,0.0,0.0,0.0,0.0,0.0,0.0,0.0,0.0,0.0,0.0,0.0,0.0,0.0,0.0,0.0,0.0,0.0,0.0,0.0,0.0,0.0,0.0,0.0,0.0,0.0,0.0,0.0,0.0,0.0,0.0,0.0,0.0,0.0,0.0,0.0,0.0,0.0,0.0,0.0,0.0,0.0,0.0,0.0,0.0,0.0,0.0,0.0,0.0,0.0,0.0,0.0,0.0,0.0,0.0,0.0,0.0,0.0,0.0,0.0,0.0,0.0,0.0,0.0,0.0,0.0,0.0,0.0,0.0,0.0,0.0,0.0,0.0,0.0,0.0,0.0,0.0,0.0,0.0,0.0,0.0,0.0,0.0,0.0,0.0,0.0,0.0,0.0,0.0,0.0,0.0,0.0,0.0,0.0,0.0,0.0,0.0,0.0,0.0,0.0,0.0,0.0,0.0,0.0,0.0,0.0,0.0,0.0,0.0,0.0,0.0,0.0,0.0,0.0,0.0,0.0,0.0,0.0,0.0,0.0,0.0,0.0,0.0,0.0,0.0,0.0,0.0,0.0,0.0,0.0,0.0,0.0,0.0,0.0,0.0,0.0,0.0,0.0,0.0,0.0,0.0,0.0,0.0,0.0,0.0,0.0,0.0,0.0,0.0,0.0,0.0,0.0,0.0,0.0,0.0,0.0,0.0,0.0,0.0,0.0,0.0,0.0,0.0,0.0,0.0,0.0,0.0,0.0,0.0,0.0,0.0,0.0,0.0,0.0,0.0,0.0,0.0,0.0,0.0,0.0,0.0,0.0,0.0,0.0,0.0,0.0,0.0,0.0,0.0,0.0,0.0,0.0,0.0,0.0,0.0,0.0,0.0,0.0,0.0,0.0,0.0,0.0,0.0,0.0,0.0,0.0,0.0,0.0,0.0,0.0,0.0,0.0,0.0,0.0,0.0,0.0,0.0,0.0,0.0,0.0,0.0,0.0,0.0,0.0,0.0,0.0,0.0,0.0,0.0,0.0,0.0,0.0,0.0,0.0,0.0,0.0,0.0,0.0,0.0,0.0,0.0,0.0,0.0,0.0,0.0,0.0,0.0,0.0,0.0,0.0,0.0,0.0,0.0,0.0,0.0,0.0,0.0,0.0,0.0,0.0,0.0,0.0,0.0,0.0,0.0,0.0,0.0,0.0,0.0,0.0,0.0,0.0,0.0,0.0,0.0,0.0,0.0,0.0,0.0,0.0,0.0,0.0,0.0,0.0,0.0,0.0,0.0,0.0,0.0,0.0,0.0,0.0,0.0,0.0,0.0,0.0,0.0,0.0,0.0,0.0,0.0,0.0,0.0,0.0,0.0,0.0,0.0,0.0,0.0,0.0,0.0,0.0,0.0,0.0,0.0,0.0,0.0,0.0,0.0,0.0,0.0,0.0,0.0,0.0,0.0,0.0,0.0,0.0,0.0,0.0,0.0,0.0,0.0,0.0,0.0,0.0,0.0,0.0,0.0,0.0,0.0,0.0,0.0,0.0,0.0,0.0,0.0,0.0,0.0,0.0,0.0,0.0,0.0,0.0,0.0,0.0,0.0,0.0,0.0,0.0,0.0,0.0,0.0,0.0,0.0,0.0,0.0,0.0,0.0,0.0,0.0,0.0,0.0,0.0,0.0,0.0,0.0,0.0,0.0,0.0,0.0,0.0,0.0,0.0,0.0,0.0,0.0,0.0,0.0,0.0,0.0,0.0,0.0,0.0,0.0,0.0,0.0,0.0,0.0,0.0,0.0,0.0,0.0,0.0,0.0,0.0,0.0,0.0,0.0,0.0,0.0,0.0,0.0,0.0,0.0,0.0,0.0,0.0,0.0,0.0,0.0,0.0,0.0,0.0,0.0,0.0,0.0,0.0,0.0,0.0,0.0,0.0,0.0,0.0,0.0,0.0,0.0,0.0,0.0,0.0,0.0,0.0,0.0,0.0,0.0,0.0,0.0,0.0,0.0,0.0,0.0,0.0,0.0,0.0,0.0,0.0,0.0,0.0,0.0,0.0,0.0,0.0,0.0,0.0,0.0,0.0,0.0,0.0,0.0,0.0,0.0,0.0,0.0,0.0,0.0,0.0,0.0,0.0,0.0,0.0,0.0,0.0,0.0,0.0,0.0,0.0,0.0,0.0,0.0,0.0,0.0,0.0,0.0,0.0,0.0,0.0,0.0,0.0,0.0,0.0,0.0,0.0,0.0,0.0,0.0,0.0,0.0,0.0,0.0,0.0,0.0,0.0,0.0,0.0,0.0,0.0,0.0,0.0,0.0,0.0,0.0,0.0,0.0,0.0,0.0,0.0,0.0,0.0,0.0,0.0,0.0,0.0,0.0,0.0,0.0,0.0,0.0,0.0,0.0,0.0,0.0,0.0,0.0,0.0,0.0,0.0,0.0,0.0,0.0,0.0,0.0,0.0,0.0,0.0,0.0,0.0,0.0,0.0,0.0,0.0,0.0,0.0,0.0,0.0,0.0,0.0,0.0,0.0,0.0,0.0,0.0,0.0,0.0,0.0,0.0,0.0,0.0,0.0,0.0,0.0,0.0,0.0,0.0,0.0,0.0,0.0,0.0,0.0,0.0,0.0,0.0,0.0,0.0,0.0,0.0,0.0,0.0,0.0,0.0,0.0,0.0,0.0,0.0,0.0,0.0,0.0,0.0,0.0,0.0,0.0,0.0,0.0,0.0,0.0,0.0,0.0,0.0,0.0,0.0,0.0,0.0,0.0,0.0,0.0,0.0,0.0,0.0,0.0,0.0,0.0,0.0,0.0,0.0,0.0,0.0,0.0,0.0,0.0,0.0,0.0,0.0,0.0,0.0,0.0,0.0,0.0,0.0,0.0,0.0,0.0,0.0,0.0,0.0,0.0,0.0,0.0,0.0,0.0,0.0,0.0,0.0,0.0,0.0,0.0,0.0,0.0,0.0,0.0,0.0,0.0,0.0,0.0,0.0,0.0,0.0,0.0,0.0,0.0,0.0,0.0,0.0,0.0,0.0,0.0,0.0,0.0,0.0,0.0,0.0,0.0,0.0,0.0,0.0,0.0,0.0,0.0,0.0,0.0,0.0,0.0,0.0,0.0,0.0,0.0,0.0,0.0,0.0,0.0,0.0,0.0,0.0,0.0,0.0,0.0,0.0,0.0,0.0,0.0,0.0,0.0,0.0,0.0,0.0,0.0,0.0,0.0,0.0,0.0,0.0,0.0,0.0,0.0,0.0,0.0,0.0,0.0,0.0,0.0,0.0,0.0,0.0,0.0,0.0,0.0,0.0,0.0,0.0,0.0,0.0,0.0,0.0,0.0,0.0,0.0,0.0,0.0,0.0,0.0,-2.2887,0.0,0.0,0.0,0.0,0.0,0.0,0.0,0.0,0.0,0.0,0.0,0.0,0.0,0.0,0.0,0.0,0.0,0.0,0.0,0.0,0.0,0.0,0.0,0.0,0.0,0.0,0.0,0.0,0.0,0.0,0.0,0.0,0.0,0.0,0.0,0.0,0.0,0.0,0.0,0.0,0.0,0.0,0.0,0.0,0.0,0.0,0.0,0.0,0.0,0.0,0.0,0.0,0.0,0.0,0.0,0.0,0.0,0.0,0.0,0.0,0.0,0.0,0.0,0.0,0.0,0.0,0.0,0.0,0.0,0.0,0.0,0.0,0.0,0.0,0.0,0.0,0.0,0.0,0.0,0.0,0.0,0.0,0.0,0.0,0.0,0.0,0.0,0.0,0.0,0.0,0.0,0.0,0.0,0.0,0.0,0.0,0.0,0.0,0.0,0.0,0.0,0.0,0.0,0.0,0.0,0.0,0.0,0.0,0.0,0.0,-2.2782,-2.291,-2.301,-2.3145,-2.3253,0.0,0.0,0.0,0.0,0.0,0.0,0.0,0.0,0.0,0.0,0.0,0.0,0.0,0.0,0.0,0.0,0.0,0.0,0.0,0.0,0.0,0.0,0.0,0.0,0.0,0.0,0.0,0.0,0.0,0.0,0.0,0.0,0.0,0.0,0.0,0.0,0.0,0.0,0.0,0.0,0.0,0.0,0.0,0.0,0.0,0.0,0.0,0.0,0.0,0.0,0.0,0.0,0.0,0.0,0.0,0.0,0.0,0.0,0.0,0.0,0.0,0.0,0.0,0.0,0.0,0.0,0.0,0.0,0.0,0.0,0.0,0.0,0.0,0.0,0.0,0.0,0.0,0.0,0.0,0.0,0.0,0.0,0.0,0.0,0.0,0.0,0.0,0.0,0.0,0.0,0.0,0.0,0.0,0.0,0.0,0.0,0.0,0.0,0.0,0.0,0.0,0.0,0.0,0.0,0.0,0.0,0.0,0.0,0.0,0.0,0.0,0.0,-2.3365,-2.3445,-2.3486,0.0,0.0,0.0,0.0,0.0,0.0,0.0,0.0,0.0,0.0,0.0,0.0,0.0,0.0,0.0,0.0,0.0,0.0,0.0,0.0,0.0,0.0,0.0,0.0,0.0,0.0,0.0,0.0,0.0,0.0,0.0,0.0,0.0,0.0,0.0,0.0,0.0,0.0,0.0,0.0,0.0,0.0,0.0,0.0,0.0,0.0,0.0,0.0,0.0,0.0,0.0,0.0,0.0,0.0,0.0,0.0,0.0,0.0,0.0,0.0,0.0,0.0,0.0,0.0,0.0,0.0,0.0,0.0,0.0,0.0,0.0,0.0,0.0,0.0,0.0,0.0,0.0,0.0,0.0,0.0,0.0,0.0,0.0,0.0,0.0,0.0,0.0,0.0,0.0,0.0,0.0,0.0,0.0,0.0,0.0,0.0,0.0,0.0,0.0,0.0,0.0,0.0,0.0,0.0,0.0,0.0,0.0,0.0,0.0,0.0,-2.3311,-2.3544,-2.3584,0.0,-2.3753,0.0,0.0,0.0,0.0,0.0,0.0,0.0,0.0,0.0,0.0,0.0,0.0,0.0,0.0,0.0,0.0,0.0,0.0,0.0,0.0,0.0,0.0,0.0,0.0,0.0,0.0,0.0,0.0,0.0,0.0,0.0,0.0,0.0,0.0,0.0,0.0,0.0,0.0,0.0,0.0,0.0,0.0,0.0,0.0,0.0,0.0,0.0,0.0,0.0,0.0,0.0,0.0,0.0,0.0,0.0,0.0,0.0,0.0,0.0,0.0,0.0,0.0,0.0,0.0,0.0,0.0,0.0,0.0,0.0,0.0,0.0,0.0,0.0,0.0,0.0,0.0,0.0,0.0,0.0,0.0,0.0,0.0,0.0,0.0,0.0,0.0,0.0,0.0,0.0,0.0,0.0,0.0,0.0,0.0,0.0,0.0,0.0,0.0,0.0,0.0,0.0,0.0,0.0,0.0,0.0,0.0,0.0,0.0,0.0,0.0,-2.3724,-2.3827,-2.3795,-2.3785,0.0,0.0,0.0,0.0,0.0,0.0,0.0,0.0,0.0,0.0,0.0,0.0,0.0,0.0,0.0,0.0,0.0,0.0,0.0,0.0,0.0,0.0,0.0,0.0,0.0,0.0,0.0,0.0,0.0,0.0,0.0,0.0,0.0,0.0,0.0,0.0,0.0,0.0,0.0,0.0,0.0,0.0,0.0,0.0,0.0,0.0,0.0,0.0,0.0,0.0,0.0,0.0,0.0,0.0,0.0,0.0,0.0,0.0,0.0,0.0,0.0,0.0,0.0,0.0,0.0,0.0,0.0,0.0,0.0,0.0,0.0,0.0,0.0,0.0,0.0,0.0,0.0,0.0,0.0,0.0,0.0,0.0,0.0,0.0,0.0,0.0,0.0,0.0,0.0,0.0,0.0,0.0,0.0,0.0,0.0,0.0,0.0,0.0,0.0,0.0,0.0,0.0,0.0,0.0,0.0,0.0,0.0,0.0,0.0,0.0,-2.4513,-2.4385,-2.4375,-2.4306,-2.4275,-2.4267,0.0,0.0,0.0,0.0,0.0,0.0,0.0,0.0,0.0,0.0,0.0,0.0,0.0,0.0,0.0,0.0,0.0,0.0,0.0,0.0,0.0,0.0,0.0,0.0,0.0,0.0,0.0,0.0,0.0,0.0,0.0,0.0,0.0,0.0,0.0,0.0,0.0,0.0,0.0,0.0,0.0,0.0,0.0,0.0,0.0,0.0,0.0,0.0,0.0,0.0,0.0,0.0,0.0,0.0,0.0,0.0,0.0,0.0,0.0,0.0,0.0,0.0,0.0,0.0,0.0,0.0,0.0,0.0,0.0,0.0,0.0,0.0,0.0,0.0,0.0,0.0,0.0,0.0,0.0,0.0,0.0,0.0,0.0,0.0,0.0,0.0,0.0,0.0,0.0,0.0,0.0,0.0,0.0,0.0,0.0,0.0,0.0,0.0,0.0,0.0,0.0,0.0,0.0,0.0,0.0,0.0,0.0,0.0,-2.6437,-2.5713,-2.5338,-2.5338,-2.5287,-2.5309,0.0,0.0,0.0,0.0,0.0,0.0,0.0,0.0,0.0,0.0,0.0,0.0,0.0,0.0,0.0,0.0,0.0,0.0,0.0,0.0,0.0,0.0,0.0,0.0,0.0,0.0,0.0,0.0,0.0,0.0,0.0,0.0,0.0,0.0,0.0,0.0,0.0,0.0,0.0,0.0,0.0,0.0,0.0,0.0,0.0,0.0,0.0,0.0,0.0,0.0,0.0,0.0,0.0,0.0,0.0,0.0,0.0,0.0,0.0,0.0,0.0,0.0,0.0,0.0,0.0,0.0,0.0,0.0,0.0,0.0,0.0,0.0,0.0,0.0,0.0,0.0,0.0,0.0,0.0,0.0,0.0,0.0,0.0,0.0,0.0,0.0,0.0,0.0,0.0,0.0,0.0,0.0,0.0,0.0,0.0,0.0,0.0,0.0,0.0,0.0,0.0,0.0,0.0,0.0,0.0,0.0,0.0,0.0,0.0,-2.6638,-2.6513,-2.6172,-2.5634,-2.6135,-2.6218,0.0,0.0,0.0,0.0,0.0,0.0,0.0,0.0,0.0,0.0,0.0,0.0,0.0,0.0,0.0,0.0,0.0,0.0,0.0,0.0,0.0,0.0,0.0,0.0,0.0,0.0,0.0,0.0,0.0,0.0,0.0,0.0,0.0,0.0,0.0,0.0,0.0,0.0,0.0,0.0,0.0,0.0,0.0,0.0,0.0,0.0,0.0,0.0,0.0,0.0,0.0,0.0,0.0,0.0,0.0,0.0,0.0,0.0,0.0,0.0,0.0,0.0,0.0,0.0,0.0,0.0,0.0,0.0,0.0,0.0,0.0,0.0,0.0,0.0,0.0,0.0,0.0,0.0,0.0,0.0,0.0,0.0,0.0,0.0,0.0,0.0,0.0,0.0,0.0,0.0,0.0,0.0,0.0,0.0,0.0,0.0,0.0,0.0,0.0,0.0,0.0,0.0,0.0,0.0,0.0,0.0,0.0,0.0,0.0,-2.7124,0.0,-2.7344,-2.6553,-2.6858,-2.6938,0.0,0.0,0.0,0.0,0.0,0.0,0.0,0.0,0.0,0.0,0.0,0.0,0.0,0.0,0.0,0.0,0.0,0.0,0.0,0.0,0.0,0.0,0.0,0.0,0.0,0.0,0.0,0.0,0.0,0.0,0.0,0.0,0.0,0.0,0.0,0.0,0.0,0.0,0.0,0.0,0.0,0.0,0.0,0.0,0.0,0.0,0.0,0.0,0.0,0.0,0.0,0.0,0.0,0.0,0.0,0.0,0.0,0.0,0.0,0.0,0.0,0.0,0.0,0.0,0.0,0.0,0.0,0.0,0.0,0.0,0.0,0.0,0.0,0.0,0.0,0.0,0.0,0.0,0.0,0.0,0.0,0.0,0.0,0.0,0.0,0.0,0.0,0.0,0.0,0.0,0.0,0.0,0.0,0.0,0.0,0.0,0.0,0.0,0.0,0.0,0.0,0.0,0.0,0.0,0.0,0.0,0.0,0.0,-2.8717,-2.8081,-2.8767,-2.8788,-2.8184,-2.741,-2.7482,0.0,0.0,0.0,0.0,0.0,0.0,0.0,0.0,0.0,0.0,0.0,0.0,0.0,0.0,0.0,0.0,0.0,0.0,0.0,0.0,0.0,0.0,0.0,0.0,0.0,0.0,0.0,0.0,0.0,0.0,0.0,0.0,0.0,0.0,0.0,0.0,0.0,0.0,0.0,0.0,0.0,0.0,0.0,0.0,0.0,0.0,0.0,0.0,0.0,0.0,0.0,0.0,0.0,0.0,0.0,0.0,0.0,0.0,0.0,0.0,0.0,0.0,0.0,0.0,0.0,0.0,0.0,0.0,0.0,0.0,0.0,0.0,0.0,0.0,0.0,0.0,0.0,0.0,0.0,0.0,0.0,0.0,0.0,0.0,0.0,0.0,0.0,0.0,0.0,0.0,0.0,0.0,0.0,0.0,0.0,0.0,0.0,0.0,0.0,0.0,0.0,0.0,0.0,0.0,0.0,0.0,0.0,0.0,0.0,-2.8921,-2.9279,-2.9089,-2.8334,-2.8758,-2.8923,0.0,0.0,0.0,0.0,0.0,0.0,0.0,0.0,0.0,0.0,0.0,0.0,0.0,0.0,0.0,0.0,0.0,0.0,0.0,0.0,0.0,0.0,0.0,0.0,0.0,0.0,0.0,0.0,0.0,0.0,0.0,0.0,0.0,0.0,0.0,0.0,0.0,0.0,0.0,0.0,0.0,0.0,0.0,0.0,0.0,0.0,0.0,0.0,0.0,0.0,0.0,0.0,0.0,0.0,0.0,0.0,0.0,0.0,0.0,0.0,0.0,0.0,0.0,0.0,0.0,0.0,0.0,0.0,0.0,0.0,0.0,0.0,0.0,0.0,0.0,0.0,0.0,0.0,0.0,0.0,0.0,0.0,0.0,0.0,0.0,0.0,0.0,0.0,0.0,0.0,0.0,0.0,0.0,0.0,0.0,0.0,0.0,0.0,0.0,0.0,0.0,0.0,0.0,0.0,0.0,0.0,0.0,0.0,0.0,-3.0202,-3.0418,-3.0273,-2.9691,-3.0206,-3.0071,-2.9227,0.0,0.0,0.0,0.0,0.0,0.0,0.0,0.0,0.0,0.0,0.0,0.0,0.0,0.0,0.0,0.0,0.0,0.0,0.0,0.0,0.0,0.0,0.0,0.0,0.0,0.0,0.0,0.0,0.0,0.0,0.0,0.0,0.0,0.0,0.0,0.0,0.0,0.0,0.0,0.0,0.0,0.0,0.0,0.0,0.0,0.0,0.0,0.0,0.0,0.0,0.0,0.0,0.0,0.0,0.0,0.0,0.0,0.0,0.0,0.0,0.0,0.0,0.0,0.0,0.0,0.0,0.0,0.0,0.0,0.0,0.0,0.0,0.0,0.0,0.0,0.0,0.0,0.0,0.0,0.0,0.0,0.0,0.0,0.0,0.0,0.0,0.0,0.0,0.0,0.0,0.0,0.0,0.0,0.0,0.0,0.0,0.0,0.0,0.0,0.0,0.0,0.0,0.0,0.0,0.0,0.0,0.0,0.0,-3.1839,-3.22,-3.2302,-3.2094,-3.1624,-3.0947,0.0,0.0,0.0,0.0,0.0,0.0,0.0,0.0,0.0,0.0,0.0,0.0,0.0,0.0,0.0,0.0,0.0,0.0,0.0,0.0,0.0,0.0,0.0,0.0,0.0,0.0,0.0,0.0,0.0,0.0,0.0,0.0,0.0,0.0,0.0,0.0,0.0,0.0,0.0,0.0,0.0,0.0,0.0,0.0,0.0,0.0,0.0,0.0,0.0,0.0,0.0,0.0,0.0,0.0,0.0,0.0,0.0,0.0,0.0,0.0,0.0,0.0,0.0,0.0,0.0,0.0,0.0,0.0,0.0,0.0,0.0,0.0,0.0,0.0,0.0,0.0,0.0,0.0,0.0,0.0,0.0,0.0,0.0,0.0,0.0,0.0,0.0,0.0,0.0,0.0,0.0,0.0,0.0,0.0,0.0,0.0,0.0,0.0,0.0,0.0,0.0,0.0,0.0,0.0,0.0,0.0,0.0,0.0,0.0,-3.3531,-3.4959,-3.5053,-3.3666,-3.2539,-3.1844,0.0,0.0,0.0,0.0,0.0,0.0,0.0,0.0,0.0,0.0,0.0,0.0,0.0,0.0,0.0,0.0,0.0,0.0,0.0,0.0,0.0,0.0,0.0,0.0,0.0,0.0,0.0,0.0,0.0,0.0,0.0,0.0,0.0,0.0,0.0,0.0,0.0,0.0,0.0,0.0,0.0,0.0,0.0,0.0,0.0,0.0,0.0,0.0,0.0,0.0,0.0,0.0,0.0,0.0,0.0,0.0,0.0,0.0,0.0,0.0,0.0,0.0,0.0,0.0,0.0,0.0,0.0,0.0,0.0,0.0,0.0,0.0,0.0,0.0,0.0,0.0,0.0,0.0,0.0,0.0,0.0,0.0,0.0,0.0,0.0,0.0,0.0,0.0,0.0,0.0,0.0,0.0,0.0,0.0,0.0,0.0,0.0,0.0,0.0,0.0,0.0,0.0,0.0,0.0,0.0,0.0,0.0,0.0,-3.3105,-3.416,-3.6553,-3.7349,-3.6278,-3.4328,-3.293,0.0,0.0,0.0,0.0,0.0,0.0,0.0,0.0,0.0,0.0,0.0,0.0,0.0,0.0,0.0,0.0,0.0,0.0,0.0,0.0,0.0,0.0,0.0,0.0,0.0,0.0,0.0,0.0,0.0,0.0,0.0,0.0,0.0,0.0,0.0,0.0,0.0,0.0,0.0,0.0,0.0,0.0,0.0,0.0,0.0,0.0,0.0,0.0,0.0,0.0,0.0,0.0,0.0,0.0,0.0,0.0,0.0,0.0,0.0,0.0,0.0,0.0,0.0,0.0,0.0,0.0,0.0,0.0,0.0,0.0,0.0,0.0,0.0,0.0,0.0,0.0,0.0,0.0,0.0,0.0,0.0,0.0,0.0,0.0,0.0,0.0,0.0,0.0,0.0,0.0,0.0,0.0,0.0,0.0,0.0,0.0,0.0,0.0,0.0,0.0,0.0,0.0,0.0,0.0,0.0,0.0,0.0,0.0,-3.4081,-3.4375,-3.7392,-3.9021,-3.9008,-3.6273,-3.4054,0.0,0.0,0.0,0.0,0.0,0.0,0.0,0.0,0.0,0.0,0.0,0.0,0.0,0.0,0.0,0.0,0.0,0.0,0.0,0.0,0.0,0.0,0.0,0.0,0.0,0.0,0.0,0.0,0.0,0.0,0.0,0.0,0.0,0.0,0.0,0.0,0.0,0.0,0.0,0.0,0.0,0.0,0.0,0.0,0.0,0.0,0.0,0.0,0.0,0.0,0.0,0.0,0.0,0.0,0.0,0.0,0.0,0.0,0.0,0.0,0.0,0.0,0.0,0.0,0.0,0.0,0.0,0.0,0.0,0.0,0.0,0.0,0.0,0.0,0.0,0.0,0.0,0.0,0.0,0.0,0.0,0.0,0.0,0.0,0.0,0.0,0.0,0.0,0.0,0.0,0.0,0.0,0.0,0.0,0.0,0.0,0.0,0.0,0.0,0.0,0.0,0.0,0.0,0.0,0.0,0.0,0.0,0.0,-3.4417,-3.5892,-3.788,-3.895,-3.9003,-3.6111,-3.4443,0.0,0.0,0.0,0.0,0.0,0.0,0.0,0.0,0.0,0.0,0.0,0.0,0.0,0.0,0.0,0.0,0.0,0.0,0.0,0.0,0.0,0.0,0.0,0.0,0.0,0.0,0.0,0.0,0.0,0.0,0.0,0.0,0.0,0.0,0.0,0.0,0.0,0.0,0.0,0.0,0.0,0.0,0.0,0.0,0.0,0.0,0.0,0.0,-2.9052,0.0,0.0,0.0,0.0,0.0,0.0,0.0,0.0,0.0,0.0,0.0,0.0,0.0,0.0,0.0,0.0,0.0,0.0,0.0,0.0,0.0,0.0,0.0,0.0,0.0,0.0,0.0,0.0,0.0,0.0,0.0,0.0,0.0,0.0,0.0,0.0,0.0,0.0,0.0,0.0,0.0,0.0,0.0,0.0,0.0,0.0,0.0,0.0,0.0,0.0,0.0,0.0,0.0,0.0,0.0,0.0,0.0,0.0,0.0,-3.4457,-3.6366,-3.8007,-3.8896,-3.8876,-3.6666,-3.5196,0.0,0.0,0.0,0.0,0.0,0.0,0.0,0.0,0.0,0.0,0.0,0.0,0.0,0.0,0.0,0.0,0.0,0.0,0.0,0.0,0.0,0.0,0.0,0.0,0.0,0.0,0.0,0.0,0.0,0.0,0.0,0.0,0.0,0.0,0.0,0.0,0.0,0.0,0.0,0.0,0.0,0.0,0.0,0.0,0.0,0.0,0.0,0.0,0.0,0.0,0.0,0.0,0.0,0.0,0.0,0.0,0.0,0.0,0.0,0.0,0.0,0.0,0.0,0.0,0.0,0.0,0.0,0.0,0.0,0.0,0.0,0.0,0.0,0.0,0.0,0.0,0.0,0.0,0.0,0.0,0.0,0.0,0.0,0.0,0.0,0.0,0.0,0.0,0.0,0.0,0.0,0.0,0.0,0.0,0.0,0.0,0.0,0.0,0.0,0.0,0.0,0.0,0.0,0.0,0.0,0.0,0.0,-3.3078,-3.448,-3.6687,-3.8077,-3.8822,-3.8877,-3.7312,-3.593,-3.4701,0.0,0.0,0.0,0.0,0.0,0.0,0.0,0.0,0.0,0.0,0.0,0.0,0.0,0.0,0.0,0.0,0.0,0.0,0.0,0.0,0.0,0.0,0.0,0.0,0.0,0.0,0.0,0.0,0.0,0.0,0.0,0.0,0.0,0.0,0.0,0.0,0.0,0.0,-2.6808,-2.686,0.0,0.0,0.0,0.0,0.0,0.0,0.0,0.0,-2.9737,0.0,0.0,0.0,0.0,0.0,0.0,0.0,0.0,0.0,0.0,0.0,0.0,0.0,0.0,0.0,0.0,0.0,0.0,0.0,0.0,0.0,0.0,0.0,0.0,0.0,0.0,0.0,0.0,0.0,0.0,0.0,0.0,0.0,0.0,0.0,0.0,0.0,0.0,0.0,0.0,0.0,0.0,0.0,0.0,0.0,0.0,0.0,0.0,0.0,0.0,0.0,0.0,0.0,0.0,0.0,0.0,-3.3739,-3.3536,-3.4995,-3.823,-3.8576,-3.875,-3.8766,-3.7274,-3.5821,-3.4562,0.0,0.0,0.0,0.0,0.0,0.0,0.0,0.0,0.0,0.0,0.0,0.0,0.0,0.0,0.0,0.0,0.0,0.0,0.0,0.0,0.0,0.0,0.0,0.0,0.0,0.0,0.0,0.0,0.0,0.0,0.0,0.0,0.0,0.0,0.0,0.0,0.0,0.0,0.0,-2.6842,-2.6742,0.0,0.0,0.0,0.0,0.0,0.0,0.0,0.0,-3.0957,0.0,0.0,0.0,0.0,0.0,0.0,0.0,0.0,0.0,0.0,0.0,0.0,0.0,0.0,0.0,0.0,0.0,0.0,0.0,0.0,0.0,0.0,0.0,0.0,0.0,0.0,0.0,0.0,0.0,0.0,0.0,0.0,0.0,0.0,0.0,0.0,0.0,0.0,0.0,0.0,0.0,0.0,0.0,0.0,0.0,0.0,0.0,0.0,0.0,0.0,0.0,0.0,0.0,0.0,0.0,-3.3883,-3.4219,-3.5664,-3.8275,-3.8596,-3.8704,-3.8713,-3.7187,-3.5747,0.0,0.0,0.0,0.0,0.0,0.0,0.0,0.0,0.0,0.0,0.0,0.0,0.0,0.0,0.0,0.0,0.0,0.0,0.0,0.0,0.0,0.0,0.0,0.0,0.0,0.0,0.0,0.0,0.0,0.0,0.0,0.0,0.0,0.0,0.0,0.0,0.0,0.0,0.0,0.0,-2.7739,-2.805,-2.9531,0.0,0.0,0.0,0.0,0.0,0.0,-3.1009,-3.101,0.0,0.0,0.0,0.0,0.0,0.0,0.0,0.0,0.0,0.0,0.0,0.0,0.0,0.0,0.0,0.0,0.0,0.0,0.0,0.0,0.0,0.0,0.0,0.0,0.0,0.0,0.0,0.0,0.0,0.0,0.0,0.0,0.0,0.0,0.0,0.0,0.0,0.0,0.0,0.0,0.0,0.0,0.0,0.0,0.0,0.0,0.0,0.0,0.0,0.0,0.0,0.0,0.0,0.0,0.0,-3.3967,-3.4726,-3.609,-3.7994,-3.8417,-3.8611,-3.867,-3.6817,-3.5316,0.0,0.0,0.0,0.0,0.0,0.0,0.0,0.0,0.0,0.0,0.0,0.0,0.0,0.0,0.0,0.0,0.0,0.0,0.0,0.0,0.0,0.0,0.0,0.0,0.0,0.0,0.0,0.0,0.0,0.0,0.0,0.0,0.0,0.0,0.0,0.0,0.0,0.0,0.0,0.0,0.0,-2.9283,-3.0607,-3.0058,0.0,0.0,0.0,0.0,-3.0969,-3.1285,0.0,0.0,0.0,0.0,0.0,0.0,0.0,0.0,0.0,0.0,0.0,0.0,0.0,0.0,0.0,0.0,0.0,0.0,0.0,0.0,0.0,0.0,0.0,0.0,0.0,0.0,0.0,0.0,0.0,0.0,0.0,0.0,0.0,0.0,0.0,0.0,0.0,0.0,0.0,0.0,0.0,0.0,0.0,0.0,0.0,0.0,0.0,0.0,0.0,0.0,0.0,0.0,0.0,0.0,0.0,0.0,-3.4334,-3.4711,-3.5882,-3.7977,-3.8135,-3.8352,-3.8637,-3.5716,-3.4084,0.0,0.0,0.0,0.0,0.0,0.0,0.0,0.0,0.0,0.0,0.0,0.0,0.0,0.0,0.0,0.0,0.0,0.0,0.0,0.0,0.0,0.0,0.0,0.0,0.0,0.0,0.0,0.0,0.0,0.0,0.0,0.0,0.0,0.0,0.0,0.0,0.0,0.0,0.0,0.0,0.0,-2.9001,-3.118,-2.9952,-2.9104,0.0,0.0,-3.2003,-3.202,-3.3472,0.0,0.0,0.0,0.0,0.0,0.0,0.0,0.0,0.0,0.0,0.0,0.0,0.0,0.0,0.0,0.0,0.0,0.0,0.0,0.0,0.0,0.0,0.0,0.0,0.0,0.0,0.0,0.0,0.0,0.0,0.0,0.0,0.0,0.0,0.0,0.0,0.0,0.0,0.0,0.0,0.0,0.0,0.0,0.0,0.0,0.0,0.0,0.0,0.0,0.0,0.0,0.0,0.0,0.0,0.0,-3.2855,-3.3348,-3.5006,-3.6332,-3.7268,-3.7596,-3.7948,-3.8334,-3.5238,-3.368,0.0,0.0,0.0,0.0,0.0,0.0,0.0,0.0,0.0,0.0,0.0,0.0,0.0,0.0,0.0,0.0,0.0,0.0,0.0,0.0,0.0,0.0,0.0,0.0,0.0,0.0,0.0,0.0,0.0,0.0,0.0,0.0,0.0,0.0,0.0,0.0,0.0,0.0,0.0,0.0,0.0,0.0,-3.1475,-3.0755,0.0,0.0,0.0,-3.2105,-3.1354,0.0,0.0,0.0,0.0,0.0,0.0,0.0,0.0,0.0,0.0,0.0,0.0,0.0,0.0,0.0,0.0,0.0,0.0,0.0,0.0,0.0,0.0,0.0,0.0,0.0,0.0,0.0,0.0,0.0,0.0,0.0,0.0,0.0,0.0,0.0,0.0,0.0,0.0,0.0,0.0,0.0,0.0,0.0,0.0,0.0,0.0,0.0,0.0,0.0,0.0,0.0,0.0,0.0,0.0,0.0,0.0,0.0,-3.2717,-3.5159,-3.6542,-3.6666,-3.7076,-3.7469,-3.7842,-3.5127,0.0,0.0,0.0,0.0,0.0,0.0,0.0,0.0,0.0,0.0,0.0,0.0,0.0,0.0,0.0,0.0,0.0,0.0,0.0,0.0,0.0,0.0,0.0,0.0,0.0,0.0,0.0,-2.7603,0.0,0.0,0.0,0.0,0.0,0.0,0.0,0.0,0.0,0.0,0.0,0.0,0.0,0.0,-3.1055,-3.1617,-3.1376,-3.1553,0.0,0.0,-3.2242,-3.1609,-3.3822,-3.4722,0.0,0.0,0.0,0.0,0.0,0.0,0.0,0.0,0.0,0.0,0.0,0.0,0.0,0.0,0.0,0.0,0.0,0.0,0.0,0.0,0.0,0.0,0.0,0.0,0.0,0.0,0.0,0.0,0.0,0.0,0.0,0.0,0.0,0.0,0.0,0.0,0.0,0.0,0.0,0.0,0.0,0.0,0.0,0.0,0.0,0.0,0.0,0.0,0.0,0.0,0.0,0.0,0.0,0.0,0.0,-3.338,-3.5001,-3.611,-3.658,-3.6641,-3.6902,-3.7288,-3.5563,-3.4157,0.0,0.0,0.0,0.0,0.0,0.0,0.0,0.0,0.0,0.0,0.0,0.0,0.0,0.0,0.0,0.0,0.0,0.0,0.0,0.0,0.0,0.0,0.0,0.0,0.0,0.0,0.0,0.0,0.0,0.0,0.0,0.0,0.0,0.0,0.0,0.0,0.0,0.0,0.0,0.0,0.0,-3.0975,-3.16,-3.1259,-3.1735,0.0,0.0,-3.2809,-3.4035,-3.5838,-3.6167,-3.3299,0.0,0.0,0.0,0.0,0.0,0.0,0.0,0.0,0.0,0.0,0.0,0.0,0.0,0.0,0.0,0.0,0.0,0.0,0.0,0.0,0.0,0.0,0.0,0.0,0.0,0.0,0.0,0.0,0.0,0.0,0.0,0.0,0.0,0.0,0.0,0.0,0.0,0.0,0.0,0.0,0.0,0.0,0.0,0.0,0.0,0.0,0.0,0.0,0.0,0.0,0.0,0.0,0.0,-3.3151,-3.3237,-3.4922,-3.5888,-3.611,-3.6178,-3.6416,-3.6845,-3.5257,-3.3845,0.0,0.0,0.0,0.0,0.0,0.0,0.0,0.0,0.0,0.0,0.0,0.0,0.0,0.0,0.0,0.0,0.0,0.0,0.0,0.0,0.0,0.0,0.0,0.0,0.0,0.0,0.0,0.0,-2.9779,-2.9723,-2.8705,0.0,0.0,0.0,0.0,0.0,0.0,0.0,0.0,0.0,0.0,-3.1074,-3.2479,-3.2554,0.0,0.0,-3.3923,-3.3616,-3.3248,-3.4693,-3.4818,-3.1856,-3.1595,0.0,0.0,0.0,0.0,0.0,0.0,0.0,0.0,0.0,0.0,0.0,0.0,0.0,0.0,0.0,0.0,0.0,0.0,0.0,0.0,0.0,0.0,0.0,0.0,0.0,0.0,0.0,0.0,0.0,0.0,0.0,0.0,0.0,0.0,0.0,0.0,0.0,0.0,0.0,0.0,0.0,0.0,0.0,0.0,0.0,0.0,0.0,0.0,0.0,0.0,0.0,0.0,-3.3125,-3.3125,-3.4834,-3.5751,-3.5751,-3.5822,-3.6023,-3.6316,-3.5228,-3.4071,0.0,0.0,0.0,0.0,0.0,0.0,0.0,0.0,0.0,0.0,0.0,0.0,0.0,0.0,0.0,0.0,0.0,0.0,0.0,0.0,0.0,0.0,0.0,0.0,0.0,0.0,0.0,0.0,-2.9539,-2.9292,-2.8398,0.0,0.0,0.0,0.0,0.0,0.0,0.0,0.0,0.0,0.0,-3.1397,-3.2362,-3.2572,-3.2761,-3.3144,-3.3238,-3.3055,-3.2493,-3.3441,-3.3507,-3.1424,0.0,0.0,0.0,0.0,0.0,0.0,0.0,0.0,0.0,0.0,0.0,0.0,0.0,0.0,0.0,0.0,0.0,0.0,0.0,0.0,0.0,0.0,0.0,0.0,0.0,0.0,0.0,0.0,0.0,0.0,-2.7018,0.0,0.0,0.0,0.0,0.0,0.0,0.0,0.0,0.0,0.0,0.0,0.0,0.0,0.0,0.0,0.0,0.0,0.0,0.0,0.0,0.0,0.0,-3.3086,-3.3086,-3.4728,-3.5577,-3.56,-3.56,-3.5667,-3.5817,-3.5655,-3.5074,-3.3962,0.0,0.0,0.0,0.0,0.0,0.0,0.0,0.0,0.0,0.0,0.0,0.0,0.0,0.0,0.0,0.0,0.0,0.0,0.0,0.0,0.0,0.0,0.0,0.0,0.0,0.0,-2.7734,-2.8165,-2.8505,0.0,0.0,0.0,0.0,0.0,0.0,0.0,0.0,0.0,0.0,-3.0397,-3.1934,-3.0866,-3.0803,-3.1139,-3.1644,-3.0907,-3.0754,-3.2178,-3.2576,-3.2707,0.0,0.0,0.0,0.0,0.0,0.0,0.0,0.0,0.0,0.0,0.0,0.0,0.0,0.0,0.0,0.0,0.0,0.0,0.0,0.0,0.0,0.0,0.0,0.0,0.0,0.0,0.0,-2.8181,-2.775,0.0,0.0,0.0,0.0,0.0,0.0,0.0,0.0,0.0,0.0,0.0,-3.019,-2.9571,0.0,0.0,0.0,0.0,0.0,0.0,0.0,0.0,0.0,0.0,0.0,0.0,-3.2285,-3.2611,-3.3877,-3.4714,-3.5045,-3.5068,-3.5247,-3.5661,-3.5622,-3.506,-3.3891,0.0,0.0,0.0,0.0,0.0,0.0,0.0,0.0,0.0,0.0,0.0,0.0,0.0,0.0,0.0,0.0,0.0,0.0,0.0,0.0,0.0,0.0,0.0,0.0,0.0,-2.8227,0.0,0.0,0.0,0.0,0.0,0.0,0.0,0.0,0.0,0.0,0.0,-2.8168,-2.9123,-2.9258,-2.968,-3.0757,-3.0778,-3.1233,0.0,0.0,0.0,0.0,0.0,0.0,0.0,0.0,0.0,0.0,0.0,0.0,0.0,0.0,-3.0972,-3.016,-3.0934,-3.1763,-3.1763,0.0,0.0,0.0,0.0,0.0,0.0,0.0,0.0,0.0,0.0,0.0,0.0,0.0,0.0,-2.8568,0.0,-2.805,0.0,0.0,0.0,0.0,0.0,0.0,0.0,0.0,-2.9718,-3.0255,-3.0789,-3.0163,-3.0414,0.0,-3.0756,-2.9842,0.0,0.0,0.0,0.0,0.0,0.0,0.0,0.0,-3.1764,-3.2143,-3.3356,-3.4169,-3.4504,-3.4529,-3.4697,-3.5021,-3.4998,-3.4624,-3.3889,-3.2328,-3.1358,0.0,0.0,0.0,0.0,0.0,0.0,0.0,0.0,0.0,0.0,0.0,0.0,0.0,0.0,0.0,0.0,0.0,0.0,0.0,0.0,0.0,0.0,0.0,-2.7434,0.0,0.0,0.0,0.0,0.0,0.0,0.0,0.0,0.0,-2.7782,-2.8199,-2.8945,-3.0223,-2.9697,-2.9599,-3.0653,0.0,0.0,0.0,0.0,0.0,0.0,0.0,-2.9652,-2.9085,-2.963,-3.0491,-3.1507,-3.2205,-3.2673,-3.2804,0.0,0.0,-3.1721,-3.2397,-3.3211,-3.3193,-3.3211,-3.3193,-3.3211,-3.3132,-3.3101,0.0,0.0,0.0,0.0,0.0,0.0,0.0,0.0,-2.9186,-2.8581,0.0,-2.8518,0.0,0.0,0.0,0.0,0.0,-2.8695,0.0,0.0,-3.1332,-3.2034,-3.1944,-3.1475,-3.131,-3.1307,-3.064,-3.035,-3.0463,-3.1009,0.0,0.0,0.0,0.0,0.0,0.0,-3.1526,-3.1718,-3.3176,-3.3935,-3.3969,-3.3986,-3.3986,-3.3995,-3.3878,-3.3862,-3.3921,-3.2523,-3.1999,-3.2699,-3.0516,0.0,0.0,0.0,0.0,0.0,0.0,0.0,0.0,0.0,0.0,0.0,0.0,0.0,0.0,0.0,0.0,0.0,0.0,0.0,0.0,-2.7859,0.0,0.0,0.0,0.0,0.0,0.0,0.0,0.0,0.0,0.0,-2.7793,-2.8919,-3.0135,-3.089,0.0,0.0,0.0,0.0,-3.0812,-2.9183,-2.8379,-2.8116,-2.8374,-2.9059,-3.0058,-3.1488,0.0,0.0,-3.426,-3.3369,-3.2702,-3.2683,-3.4092,-3.4674,-3.3168,-3.3153,-3.3299,-3.3299,-3.3371,-3.3192,-3.3176,-3.335,-3.3147,-3.1213,0.0,0.0,0.0,0.0,-3.0769,-3.0624,-3.0369,-3.0356,-2.9923,-2.9187,-2.947,0.0,0.0,0.0,0.0,0.0,0.0,-3.044,-3.0605,-3.1047,-3.1541,-3.2066,-3.1393,-3.1634,-3.261,-3.1917,-3.1596,-3.1665,-3.1872,-3.1127,-2.9524,0.0,0.0,0.0,0.0,-3.0804,-3.157,-3.2324,-3.2911,-3.3277,-3.3277,-3.3433,-3.37,-3.3675,-3.3659,-3.37,-3.3265,-3.2821,-3.2458,-3.1774,0.0,0.0,0.0,0.0,0.0,0.0,0.0,0.0,0.0,0.0,0.0,0.0,0.0,0.0,0.0,0.0,0.0,0.0,0.0,-2.7646,-2.7993,-2.7906,0.0,0.0,0.0,0.0,0.0,0.0,0.0,0.0,0.0,-2.9286,-2.865,-2.8548,0.0,0.0,-2.8392,-2.8686,-2.9334,-3.0147,-3.1122,-3.0406,0.0,-3.0856,-3.0704,-3.0671,-3.1223,-3.2693,-3.3925,-3.4354,-3.4797,-3.5211,-3.5617,-3.6231,-3.6484,-3.6111,-3.6132,-3.6238,-3.6274,-3.6274,-3.6274,-3.6274,-3.6221,-3.6168,-3.1119,-3.1184,-3.1195,-3.1092,-3.0987,-3.0952,-3.0959,-3.094,-3.0854,-3.0391,-2.9636,-2.9957,-2.9653,-2.8858,-2.91,0.0,0.0,0.0,-3.069,-3.0927,-3.0927,-3.1209,-3.1626,-3.1185,-3.1445,-3.2282,-3.2196,-3.2099,-3.2166,-3.1935,-3.1314,-3.0279,0.0,0.0,-2.9829,-3.0175,-3.0651,-3.1275,-3.1855,-3.2274,-3.2586,-3.2602,-3.2722,-3.2949,-3.2922,-3.2922,-3.2975,-3.2922,-3.2665,-3.2206,-3.2055,-3.1583,0.0,0.0,0.0,0.0,0.0,0.0,0.0,0.0,0.0,0.0,0.0,-2.7738,-2.7637,0.0,0.0,0.0,-2.9124,-2.9099,-2.8151,-2.842,0.0,0.0,0.0,0.0,0.0,0.0,0.0,-2.6851,-2.8464,-2.9784,-2.9993,-2.9014,-2.8839,-3.034,-2.9572,-2.9072,-2.9676,0.0,-3.1105,-3.2148,-3.1429,-3.1024,-3.1722,-3.173,-3.1876,-3.2622,-3.3541,-3.4308,-3.4717,-3.5513,-3.6245,-3.6655,-3.7031,-3.7352,-3.741,-3.7521,-3.7595,-3.7595,-3.7595,-3.7595,-3.7595,-3.7595,-3.7595,-3.0949,-3.0957,-3.0955,-3.0923,-3.0936,-3.09,-3.093,-3.0949,-3.0773,-3.0177,-2.9363,-3.0094,-2.9398,-2.7728,-2.8243,0.0,-2.9631,-2.999,-3.049,-3.1024,-3.1024,-3.1024,-3.1024,-3.1024,-3.1024,-3.1024,-3.1713,-3.2015,-3.1983,-3.1509,-3.1252,-3.1212,-3.0634,-3.0426,-3.0608,-3.0606,-3.0732,-3.0885,-3.1503,-3.1908,-3.1996,-3.1996,-3.1968,-3.1968,-3.1841,-3.1826,-3.1968,-3.1841,-3.1841,-3.1938,-3.1661,-3.1493,-3.1396,0.0,0.0,0.0,0.0,0.0,0.0,0.0,0.0,0.0,0.0,0.0,0.0,0.0,0.0,0.0,-2.9552,0.0,-2.9623,-2.9051,0.0,0.0,0.0,-2.81,-2.8873,-2.8864,-2.8786,-2.885,0.0,0.0,-3.022,-2.9863,-3.0439,-3.2934,-3.2488,-3.2008,-3.2191,-3.2677,-3.3005,-3.2485,-3.1857,-3.1504,-3.1833,-3.2397,-3.3311,-3.4608,-3.5155,-3.5094,-3.5186,-3.5587,-3.6075,-3.6329,-3.6834,-3.7278,-3.7521,-3.7521,-3.7558,-3.7577,-3.7595,-3.7595,-3.7595,-3.7595,-3.7595,-3.0647,-3.0748,-3.0585,-3.0695,-3.0963,-3.0815,-3.0756,-3.0773,-3.0571,-3.0328,-3.0121,-3.0329,-3.0224,-2.9932,-3.0062,-3.0303,-3.0655,-3.0725,-3.0856,-3.0986,-3.1024,-3.1024,-3.1024,-3.1024,-3.1024,-3.1011,-3.1185,-3.1259,-3.1246,-3.1129,-3.0985,-3.0752,-3.0126,-2.9749,-2.9697,-2.9435,-2.9464,-2.9855,-3.0303,-3.0986,-3.1811,-3.1841,-3.1784,-3.1626,-3.1597,-3.1597,-3.1611,-3.1568,-3.1597,-3.1611,-3.1531,-3.1328,-3.091,-3.0118,0.0,0.0,0.0,0.0,0.0,0.0,0.0,0.0,0.0,-2.6971,-2.5613,0.0,-2.7936,0.0,-2.9124,-3.0323,-2.989,-2.9986,0.0,0.0,-2.8917,-2.8716,-2.9344,-2.9561,-2.9276,-2.8403,-2.929,-3.019,-3.0698,-3.1074,-3.1908,-3.3598,-3.2398,-3.1329,-3.1391,-3.2443,-3.3144,-3.3053,-3.3193,-3.3413,-3.3437,-3.3882,-3.4317,-3.4728,-3.4835,-3.4906,-3.5155,-3.5299,-3.5526,-3.5876,-3.6262,-3.6673,-3.7068,-3.7091,-3.7206,-3.7485,-3.7595,-3.7595,-3.7595,-3.7595,-3.7595,-3.0817,-3.0881,-3.0547,-3.052,-3.0723,-3.0596,-3.0571,-3.0571,-3.033,-3.0254,-3.0267,-3.019,-3.0228,-3.0432,-3.0419,-3.0533,-3.0761,-3.0798,-3.0887,-3.0874,-3.0949,-3.1024,-3.1024,-3.1024,-3.1024,-3.1024,-3.1024,-3.1024,-3.1024,-3.1024,-3.0892,-3.077,-3.0413,-3.0059,-2.9684,-2.8955,-2.8799,-2.9217,-2.9479,-2.9959,-3.0748,-3.1058,-3.1028,-3.0645,-3.0732,-3.0685,-3.0431,-3.026,-3.026,-3.0416,-3.0444,-3.0266,-2.9894,-2.9083,-2.8505,0.0,0.0,0.0,0.0,0.0,0.0,0.0,0.0,0.0,0.0,0.0,-2.8029,-2.7129,-2.9121,-3.0078,-2.9175,-2.9569,-2.9838,-2.9803,-2.9481,-2.9511,-3.0167,-3.0331,-3.0118,-2.9504,-3.0127,-3.0819,-3.1209,-3.1563,-3.2282,-3.3531,-3.2737,-3.2136,-3.2432,-3.3145,-3.36,-3.3616,-3.3907,-3.4101,-3.4101,-3.4275,-3.4423,-3.4423,-3.4423,-3.448,-3.4682,-3.4866,-3.5102,-3.5391,-3.5732,-3.6058,-3.6412,-3.6536,-3.6681,-3.7055,-3.7245,-3.7356,-3.7558,-3.7595,-3.7595,-3.1238,-3.1226,-3.0701,-3.0497,-3.0484,-3.0433,-3.0394,-3.033,-3.0139,-3.0075,-3.0049,-2.9869,-2.9895,-3.0075,-3.0113,-3.0267,-3.0444,-3.0609,-3.0698,-3.0736,-3.0911,-3.0949,-3.1024,-3.1024,-3.1024,-3.1024,-3.1024,-3.1024,-3.1024,-3.1024,-3.0945,-3.0815,-3.0802,-3.0504,-2.9882,-2.8812,-2.8455,-2.8796,-2.8868,-2.9122,-2.9614,-2.999,-2.9957,-2.945,-2.9609,-2.9475,-2.9016,-2.8666,-2.8623,-2.8987,-2.8987,-2.8961,-2.8865,-2.7808,-2.7336,0.0,-2.6553,0.0,0.0,0.0,0.0,0.0,0.0,0.0,0.0,-2.7824,-2.8094,-2.8069,-2.9194,-2.9516,-2.8471,-2.8912,-2.9485,-3.0043,-3.0131,-3.0366,-3.0925,-3.094,-3.0911,-3.0911,-3.0851,-3.1014,-3.1462,-3.1564,-3.1931,-3.281,-3.2919,-3.3019,-3.3751,-3.3969,-3.4036,-3.4101,-3.4101,-3.4101,-3.4101,-3.4101,-3.4109,-3.4101,-3.4126,-3.4101,-3.4126,-3.4472,-3.4771,-3.4958,-3.5243,-3.552,-3.5803,-3.5929,-3.6122,-3.6545,-3.6724,-3.6958,-3.7449,-3.7595,-3.7595,-3.1451,-3.1572,-3.1324,-3.1073,-3.0786,-3.0642,-3.0428,-3.0152,-2.9946,-2.9869,-2.9869,-2.983,-2.9908,-3.0126,-3.0254,-3.0457,-3.066,-3.0698,-3.0811,-3.0949,-3.0798,-3.0849,-3.0986,-3.1024,-3.1024,-3.1024,-3.1024,-3.1024,-3.1024,-3.1024,-3.059,-2.9793,-2.978,-2.9488,-2.888,0.0,0.0,0.0,-2.8623,-2.9296,-3.0135,-2.9231,-2.8799,-2.898,-2.8741,0.0,-2.8468,-2.8383,-2.8383,-2.8425,-2.8454,0.0,0.0,0.0,0.0,0.0,0.0,0.0,0.0,0.0,0.0,0.0,-2.7191,-2.687,-2.6495,-2.6606,-2.7015,-2.7811,-2.8872,-2.9609,-2.9869,-3.0324,-3.0675,-3.0793,-3.0822,-3.0867,-3.0984,-3.0673,-3.0447,-3.0433,-3.0099,-3.0115,-3.0763,-3.0896,-3.1217,-3.2,-3.2155,-3.2431,-3.3119,-3.3713,-3.4075,-3.4101,-3.4101,-3.4101,-3.4101,-3.4101,-3.4101,-3.4101,-3.4101,-3.4101,-3.4126,-3.444,-3.4667,-3.4747,-3.489,-3.5115,-3.5476,-3.5453,-3.5537,-3.6101,-3.6245,-3.6519,-3.7393,-3.7595,-3.7595,-3.1842,0.0,-3.1553,-3.1317,0.0,-3.1037,-3.0914,-3.0691,-3.0057,-2.9779,-2.9779,-2.9779,-2.9869,-2.9934,-3.0037,-3.0152,-3.0292,-3.0343,-3.0533,-3.0723,-3.0698,-3.0811,-3.1024,-3.1024,-3.1024,-3.1024,-3.1024,-3.1024,-3.1024,-3.1024,-3.076,-3.027,-3.027,-3.0098,-2.9797,-2.9588,-2.9122,-2.8352,-2.8583,-2.9083,-2.9788,-2.9202,-2.8775,-2.8649,-2.8294,0.0,0.0,0.0,0.0,0.0,0.0,0.0,0.0,-2.7595,0.0,-2.7407,-2.7144,-2.7072,-2.7332,-2.7295,-2.7308,-2.7391,-2.7355,-2.7255,-2.72,-2.7495,-2.7963,-2.8619,-2.9199,-2.9633,-2.9917,-3.016,-3.0326,-3.0312,-3.0312,-3.0312,-3.0282,-3.0113,-2.996,-2.9929,-2.9744,-2.9775,-3.0222,-3.0254,-3.0585,-3.1304,-3.1448,-3.1762,-3.2652,-3.3214,-3.3662,-3.4009,-3.4101,-3.4101,-3.4101,-3.4101,-3.4101,-3.4101,-3.4101,-3.4101,-3.4101,-3.4275,-3.4382,-3.4399,-3.4472,-3.4561,-3.4745,-3.4769,-3.4911,-3.5402,-3.5621,-3.589,-3.6681,-3.6898,-3.7091,-3.1833,-3.1796,-3.1393,-3.1158,-3.1059,-3.1236,-3.1228,-3.1107,0.0,0.0,0.0,-2.9378,-2.9495,-2.9779,-2.9663,-2.9714,-2.9869,-3.0049,-3.0152,-3.0165,-3.0305,-3.0482,-3.0697,-3.0697,-3.0823,-3.0986,-3.1024,-3.1024,-3.1024,-3.1024,-3.1024,-3.1024,-3.1024,-3.1024,-3.1024,-3.1024,-3.0341,-2.907,-2.8842,-2.8986,-2.9412,-2.9254,-2.8862,-2.83,-2.7953,-2.752,-2.6966,-2.6634,-2.6617,-2.6939,-2.6969,-2.6947,-2.6888,-2.6888,-2.6772,-2.6538,-2.652,-2.667,-2.6972,-2.7012,-2.7144,-2.7477,-2.757,-2.7768,-2.807,-2.8588,-2.9067,-2.9415,-2.9477,-2.954,-2.9602,-2.9602,-2.9602,-2.9602,-2.9602,-2.9602,-2.9602,-2.9602,-2.9634,-2.9602,-2.9602,-2.962,-2.9761,-2.9792,-2.9979,-3.0569,-3.0718,-3.1087,-3.2086,-3.2772,-3.3335,-3.3569,-3.3832,-3.4075,-3.3958,-3.4034,-3.4075,-3.4101,-3.4101,-3.4101,-3.4101,-3.4101,-3.4101,-3.4126,-3.4101,-3.4126,-3.4126,-3.425,-3.4391,-3.4816,-3.4981,-3.5237,-3.5776,-3.5933,-3.6232,-3.0504,-3.0504,-3.039,-3.0055,-2.9669,-3.0527,-3.0598,-3.0169,-2.9617,-2.9096,-2.8633,-2.7851,-2.8343,-2.974,-2.9209,-2.9353,-3.0049,-3.0088,-2.9831,-2.9277,-2.9106,-2.925,-2.9601,-2.9614,-3.0088,-3.0949,-3.0986,-3.1024,-3.1024,-3.0986,-3.1024,-3.1024,-3.1024,-3.0986,-3.1024,-3.1024,-3.0906,-3.0631,-2.9833,-2.9578,-2.9966,-2.8812,-2.8101,-2.7876,-2.7449,-2.6956,-2.6444,-2.6369,-2.6356,-2.6417,-2.6404,-2.6552,-2.6855,-2.6895,-2.7024,-2.7302,-2.7321,-2.736,-2.7392,-2.7419,-2.7432,-2.7523,-2.7835,-2.7894,-2.765,-2.7993,-2.8373,-2.8716,-2.9035,-2.9289,-2.954,-2.9602,-2.9602,-2.9602,-2.9602,-2.9602,-2.9602,-2.9602,-2.9602,-2.9602,-2.9602,-2.9602,-2.9634,-2.9634,-2.9682,-2.9775,-2.9976,-3.016,-3.1057,-3.2501,-3.3124,-3.2756,-3.3371,-3.379,-3.3501,-3.379,-3.3984,-3.4101,-3.4075,-3.4101,-3.4101,-3.4101,-3.4101,-3.4101,-3.4101,-3.4101,-3.4101,-3.4084,-3.4209,-3.4407,-3.4464,-3.4666,-3.5214,-3.5161,-3.5299,-3.0215,-3.0215,-3.0215,-3.0032,-2.9859,-3.0271,-2.9892,-2.8937,-2.8697,-2.8414,-2.8058,-2.74,-2.7557,-2.8263,-2.8011,-2.8091,-2.849,-2.849,-2.8371,-2.8239,-2.8131,-2.8227,-2.8521,-2.8521,-2.8809,-2.9291,-2.9498,-2.9781,-3.0139,-3.0355,-3.0621,-3.0986,-3.1024,-3.0823,-3.047,-3.047,-3.047,-3.0457,-3.0353,-3.0408,-3.0563,-2.9649,-2.9095,-2.9044,-2.8549,-2.8033,-2.7485,-2.7426,-2.7281,-2.6978,-2.6978,-2.7051,-2.7216,-2.7243,-2.7328,-2.7477,-2.7503,-2.7503,-2.7503,-2.7503,-2.7503,-2.7503,-2.7669,-2.7703,-2.7503,-2.8197,-2.8716,-2.889,-2.9162,-2.9429,-2.9602,-2.9602,-2.9602,-2.9602,-2.9602,-2.9602,-2.9602,-2.9602,-2.9602,-2.9602,-2.9602,-2.9602,-2.9602,-2.9602,-2.9602,-2.9602,-2.9775,-3.0038,-3.0146,-3.142,-3.2419,-3.221,-3.2567,-3.2841,-3.2788,-3.3161,-3.3475,-3.3578,-3.3908,-3.4075,-3.4101,-3.4101,-3.4101,-3.4101,-3.4101,-3.4101,-3.4101,-3.4101,-3.4126,-3.4151,-3.4201,-3.4382,-3.461,-3.4675,-3.4991,-2.9532,-2.9532,-2.9532,-2.9669,-2.9852,-2.9624,-2.9,-2.8156,-2.782,-2.7622,-2.7461,-2.6931,-2.687,-2.7229,-2.6951,-2.6905,-2.7098,-2.7098,-2.7098,-2.7098,-2.7098,-2.7209,-2.7389,-2.7441,-2.755,-2.7792,-2.8136,-2.8533,-2.9045,-2.9459,-2.996,-3.052,-3.0583,-3.0317,-2.9806,-2.9806,-2.9793,-2.9832,-3.0317,-3.071,-3.0973,-3.0542,-3.0231,-3.0074,-2.9693,-2.9183,-2.8656,-2.8486,-2.8177,-2.7758,-2.7568,-2.7503,-2.7503,-2.7503,-2.7503,-2.7503,-2.7503,-2.7503,-2.7503,-2.7503,-2.7503,-2.7503,-2.7503,-2.7503,-2.7556,-2.8411,-2.894,-2.894,-2.9131,-2.9352,-2.9446,-2.954,-2.9602,-2.9602,-2.9602,-2.9602,-2.9602,-2.9602,-2.9602,-2.9602,-2.9602,-2.9602,-2.9602,-2.9602,-2.9602,-2.9665,-2.9929,-2.996,-2.9789,-3.0464,-3.1116,-3.1506,-3.1747,-3.2031,-3.2216,-3.2586,-3.2868,-3.3029,-3.3491,-3.3764,-3.3866,-3.3958,-3.4101,-3.4101,-3.4101,-3.4101,-3.4101,-3.4101,-3.4101,-3.4101,-3.4126,-3.4151,-3.4308,-3.4472,-3.4747,-2.7584,-2.7584,-2.762,-2.8081,-2.8713,-2.794,-2.8002,-2.8408,-2.7292,-2.6712,-2.6697,-2.5756,-2.6303,-2.7436,-2.6446,-2.634,-2.6976,-2.7098,-2.6648,-2.5986,-2.5944,-2.6058,-2.6232,-2.6265,-2.6801,-2.7643,-2.7763,-2.7804,-2.7952,-2.8374,-2.8834,-2.9238,-2.9277,-2.9289,-2.9199,-2.916,-2.9199,-2.9199,-2.9238,-2.9832,-3.0949,-3.0934,-3.066,-3.0113,-3.0048,-2.9784,-2.9138,-2.8673,-2.836,-2.8268,-2.7777,-2.7503,-2.7516,-2.7503,-2.7503,-2.7503,-2.7503,-2.7503,-2.7503,-2.7503,-2.7503,-2.7503,-2.7503,-2.7503,-2.7536,-2.8197,-2.849,-2.8341,-2.8522,-2.8876,-2.9145,-2.9415,-2.9571,-2.9602,-2.9602,-2.9602,-2.9602,-2.9602,-2.9602,-2.9602,-2.9602,-2.9602,-2.9602,-2.9602,-2.9602,-2.9602,-2.9665,-2.9727,-2.9665,-2.9775,-3.0007,-3.0343,-3.1101,-3.1777,-3.1722,-3.2076,-3.2382,-3.2477,-3.2922,-3.3251,-3.3407,-3.3764,-3.4101,-3.4075,-3.4101,-3.4101,-3.4101,-3.4101,-3.4101,-3.4101,-3.4101,-3.4167,-3.425,-3.4349,-3.4521,-2.732,-2.732,-2.732,-2.7489,-2.7762,-2.7441,-2.7536,-2.7788,-2.7291,-2.7029,-2.6946,-2.6299,-2.6122,-2.6228,-2.5689,-2.5498,-2.5569,-2.5569,-2.539,-2.502,-2.502,-2.5094,-2.5137,-2.5147,-2.5432,-2.5872,-2.611,-2.6431,-2.6871,-2.7602,-2.8255,-2.8624,-2.8664,-2.8636,-2.8554,-2.8554,-2.8566,-2.8542,-2.8554,-2.8976,-2.9755,-2.9883,-2.9782,-2.953,-2.9504,-2.924,-2.8698,-2.8409,-2.8145,-2.7805,-2.7276,-2.7126,-2.7485,-2.7212,-2.7167,-2.7469,-2.7503,-2.7503,-2.7503,-2.7503,-2.7503,-2.7503,-2.7503,-2.7503,-2.7503,-2.7789,-2.7901,-2.7868,-2.8457,-2.8972,-2.9099,-2.9226,-2.9383,-2.954,-2.9602,-2.9602,-2.9602,-2.9602,-2.9602,-2.9602,-2.9602,-2.9602,-2.9602,-2.9602,-2.9602,-2.9602,-2.9602,-2.9602,-2.9602,-2.9602,-2.9665,-2.9839,-3.0375,-3.0704,-3.0837,-3.1291,-3.1665,-3.1921,-3.2339,-3.2761,-3.313,-3.3329,-3.3646,-3.3984,-3.3984,-3.4025,-3.4101,-3.4101,-3.4101,-3.4101,-3.4101,-3.4126,-3.4176,-3.425,-3.4349,-2.7438,-2.7427,-2.7361,-2.732,-2.732,-2.732,-2.732,-2.732,-2.732,-2.732,-2.7268,-2.6946,-2.633,-2.5637,-2.5303,-2.4993,-2.4704,-2.4559,-2.4507,-2.4507,-2.4507,-2.4507,-2.4507,-2.4507,-2.4507,-2.454,-2.4871,-2.5306,-2.5872,-2.6637,-2.729,-2.7678,-2.7706,-2.7649,-2.7603,-2.7644,-2.7713,-2.7765,-2.7846,-2.8127,-2.8542,-2.8581,-2.874,-2.9055,-2.9121,-2.8885,-2.8451,-2.8292,-2.8035,-2.7642,-2.7115,-2.7014,-2.7421,-2.6967,-2.6797,-2.7032,-2.7188,-2.7222,-2.7087,-2.7356,-2.7423,-2.7323,-2.739,-2.7503,-2.7536,-2.759,-2.7603,-2.7556,-2.8314,-2.8812,-2.8972,-2.9131,-2.9352,-2.9571,-2.9602,-2.9602,-2.9602,-2.9602,-2.9602,-2.9602,-2.9602,-2.9602,-2.9602,-2.9602,-2.9602,-2.9602,-2.9602,-2.9602,-2.9602,-2.9602,-2.9634,-2.9744,-2.9792,-2.9962,-3.0235,-3.0658,-3.0999,-3.1248,-3.168,-3.2256,-3.2718,-3.2783,-3.3156,-3.3517,-3.3636,-3.3832,-3.3984,-3.405,-3.3958,-3.4034,-3.4101,-3.4101,-3.4101,-3.4201,-3.425,-2.7903,-2.7831,-2.7438,-2.732,-2.732,-2.732,-2.732,-2.732,-2.732,-2.732,-2.732,-2.7268,-2.7009,-2.6434,-2.5668,-2.5189,-2.5086,-2.4724,-2.4528,-2.4507,-2.4507,-2.4507,-2.4507,-2.4507,-2.4507,-2.4507,-2.455,-2.4828,-2.5242,-2.5316,-2.5538,-2.601,-2.6135,-2.6104,-2.6218,-2.6528,-2.661,-2.6775,-2.7085,-2.7313,-2.7342,-2.7353,-2.7926,-2.8897,-2.9081,-2.8978,-2.8893,-2.8476,-2.8168,-2.8131,-2.7592,-2.7336,-2.7361,-2.6906,-2.6498,-2.6146,-2.6499,-2.6508,-2.6255,-2.6905,-2.7222,-2.6884,-2.7167,-2.7456,-2.7456,-2.7736,-2.7802,-2.7536,-2.7934,-2.8341,-2.8619,-2.9099,-2.9446,-2.954,-2.9602,-2.9602,-2.9602,-2.9602,-2.9602,-2.9602,-2.9602,-2.9602,-2.9602,-2.9602,-2.9602,-2.9602,-2.9602,-2.9602,-2.9602,-2.9602,-2.9602,-2.9634,-2.9713,-2.9853,-3.0066,-3.0326,-3.0403,-3.0583,-3.1058,-3.1566,-3.1766,-3.2005,-3.2555,-3.2949,-3.2884,-3.3113,-3.3688,-3.3866,-3.3697,-3.3764,-3.4025,-3.4075,-3.4101,-3.4101,-3.4151,-2.8134,-2.7834,-2.7448,-2.732,-2.732,-2.732,-2.732,-2.732,-2.732,-2.732,-2.732,-2.732,-2.7206,-2.7029,-2.6372,-2.5771,-2.521,-2.5003,-2.4786,-2.4538,-2.4507,-2.4507,-2.4507,-2.4507,-2.4507,-2.4507,-2.4507,-2.4583,-2.47,-2.4743,-2.4999,-2.5422,-2.577,-2.601,-2.6249,-2.6445,-2.661,-2.688,-2.6839,-2.688,-2.7179,-2.719,-2.7423,-2.7857,-2.7886,-2.7886,-2.7898,-2.7658,-2.7575,-2.7575,-2.707,-2.6981,-2.7294,-2.7186,-2.687,-2.6428,-2.6532,-2.6418,-2.6027,-2.6242,-2.6427,-2.6277,-2.6679,-2.6998,-2.7066,-2.7403,-2.7636,-2.7603,-2.7868,-2.8145,-2.8308,-2.8683,-2.9035,-2.9257,-2.9446,-2.954,-2.9602,-2.9602,-2.9602,-2.9602,-2.9602,-2.9602,-2.9602,-2.9602,-2.9602,-2.9602,-2.9602,-2.9602,-2.9602,-2.9602,-2.9602,-2.9602,-2.962,-2.9682,-2.9758,-3.0005,-3.0189,-3.0219,-3.0507,-3.0896,-3.119,-3.1349,-3.1806,-3.2407,-3.2327,-3.2355,-3.2964,-3.3335,-3.324,-3.3475,-3.3739,-3.3958,-3.4101,-3.4101,-3.4126,-2.8473,-2.7924,-2.7603,-2.7423,-2.732,-2.732,-2.732,-2.732,-2.732,-2.732,-2.732,-2.732,-2.732,-2.7268,-2.6978,-2.6392,-2.5668,-2.5334,-2.5013,-2.4724,-2.4569,-2.4507,-2.4507,-2.4507,-2.4507,-2.4507,-2.4507,-2.4507,-2.4507,-2.4507,-2.4668,-2.4988,-2.5295,-2.5601,-2.5863,-2.6155,-2.6467,-2.6685,-2.6715,-2.6869,-2.7149,-2.719,-2.719,-2.719,-2.719,-2.719,-2.719,-2.719,-2.719,-2.7144,-2.6887,-2.6822,-2.7007,-2.7076,-2.6873,-2.6405,-2.6468,-2.6263,-2.5744,-2.5908,-2.5975,-2.5664,-2.6104,-2.6427,-2.6461,-2.6782,-2.7019,-2.7222,-2.7469,-2.7703,-2.7901,-2.8052,-2.83,-2.8688,-2.8944,-2.904,-2.8944,-2.9103,-2.9338,-2.954,-2.9602,-2.9602,-2.9602,-2.9602,-2.9602,-2.9602,-2.9602,-2.9602,-2.9602,-2.9602,-2.9602,-2.9602,-2.9602,-2.9602,-2.9634,-2.982,-2.9974,-3.0005,-3.0111,-3.0447,-3.0628,-3.0807,-3.1116,-3.1694,-3.1964,-3.1936,-3.2173,-3.2571,-3.2879,-3.3119,-3.3407,-3.3697,-3.3866,-3.4101,-3.4075,-2.8773,-2.8038,-2.7875,-2.7655,-2.7392,-2.733,-2.732,-2.732,-2.732,-2.732,-2.732,-2.732,-2.732,-2.7299,-2.7247,-2.7009,-2.6444,-2.573,-2.5251,-2.5086,-2.4735,-2.4538,-2.4507,-2.4507,-2.4507,-2.4507,-2.4507,-2.4507,-2.4507,-2.4507,-2.454,-2.454,-2.4658,-2.4786,-2.4583,-2.5506,-2.5895,-2.6104,-2.6633,-2.7056,-2.719,-2.7149,-2.7138,-2.719,-2.719,-2.719,-2.719,-2.719,-2.719,-2.719,-2.7167,-2.6978,-2.6679,-2.6644,-2.6311,-2.6039,-2.6256,-2.596,-2.5254,-2.59,-2.5901,-2.5373,-2.5558,-2.5896,-2.5896,-2.6,-2.6242,-2.6598,-2.6748,-2.6918,-2.7289,-2.7276,-2.7417,-2.7901,-2.8065,-2.7934,-2.7835,-2.8117,-2.873,-2.9261,-2.9369,-2.954,-2.954,-2.9369,-2.9275,-2.9306,-2.9338,-2.9306,-2.9275,-2.9338,-2.954,-2.954,-2.954,-2.9602,-2.9602,-2.9602,-2.9713,-2.9806,-2.9943,-3.0127,-3.0205,-3.0342,-3.0553,-3.1043,-3.0999,-3.1029,-3.1422,-3.1849,-3.2379,-3.2664,-3.3039,-3.3293,-3.3465,-3.3652,-3.3882,-2.9135,-2.8804,-2.8183,-2.7852,-2.7676,-2.7444,-2.732,-2.732,-2.732,-2.732,-2.732,-2.732,-2.732,-2.732,-2.7309,-2.7226,-2.704,-2.6413,-2.5823,-2.5251,-2.5044,-2.4797,-2.4559,-2.4507,-2.4507,-2.4507,-2.4507,-2.4507,-2.4507,-2.4507,-2.4507,-2.454,-2.4828,-2.4988,-2.4956,-2.5295,-2.5549,-2.5864,-2.5843,-2.6082,-2.6663,-2.6704,-2.6869,-2.7149,-2.719,-2.719,-2.719,-2.719,-2.719,-2.719,-2.719,-2.711,-2.7024,-2.699,-2.676,-2.6352,-2.6378,-2.6225,-2.5574,-2.5393,-2.5361,-2.5042,-2.5158,-2.5276,-2.5323,-2.5652,-2.5931,-2.6151,-2.6151,-2.6242,-2.6346,-2.6346,-2.6629,-2.7384,-2.7311,-2.7265,-2.7291,-2.7571,-2.7868,-2.8065,-2.8143,-2.8143,-2.8176,-2.8208,-2.8274,-2.8274,-2.8241,-2.8241,-2.8241,-2.8629,-2.8853,-2.8839,-2.9153,-2.9432,-2.9306,-2.9306,-2.9495,-2.9512,-2.9588,-2.9851,-2.9867,-2.9929,-3.0174,-3.0296,-3.0249,-3.0371,-3.0732,-3.1146,-3.1707,-3.2117,-3.2351,-3.2641,-3.29,-3.3166,-3.3429,-2.9456,-2.9239,-2.868,-2.8224,-2.7914,-2.7614,-2.7455,-2.733,-2.732,-2.732,-2.732,-2.732,-2.732,-2.732,-2.732,-2.732,-2.7278,-2.6988,-2.6434,-2.573,-2.5326,-2.5024,-2.4735,-2.4559,-2.4507,-2.4507,-2.4507,-2.4507,-2.4507,-2.4507,-2.4507,-2.4583,-2.4786,-2.4914,-2.4956,-2.5115,-2.5369,-2.5591,-2.5706,-2.5946,-2.6404,-2.6663,-2.6891,-2.7149,-2.719,-2.719,-2.719,-2.719,-2.719,-2.719,-2.719,-2.719,-2.719,-2.7167,-2.7041,-2.6841,-2.6714,-2.6531,-2.6048,-2.5754,-2.5383,-2.5252,-2.5061,-2.4952,-2.5026,-2.5242,-2.5312,-2.5546,-2.5581,-2.5652,-2.5814,-2.5674,-2.5849,-2.6286,-2.6308,-2.6454,-2.6718,-2.69,-2.7217,-2.7417,-2.7571,-2.7504,-2.7504,-2.7504,-2.7504,-2.7504,-2.7504,-2.7504,-2.7571,-2.7901,-2.8051,-2.8266,-2.868,-2.8821,-2.8803,-2.9008,-2.9275,-2.923,-2.9198,-2.9495,-2.9713,-2.9744,-2.9867,-3.0052,-3.0052,-3.0172,-3.0477,-3.0643,-3.1028,-3.1364,-3.1766,-3.2132,-3.2465,-3.2711,-3.2911,-2.9735,-2.9363,-2.9301,-2.8752,-2.7979,-2.7903,-2.7634,-2.734,-2.732,-2.732,-2.732,-2.732,-2.732,-2.732,-2.732,-2.732,-2.7309,-2.7268,-2.7029,-2.6434,-2.5823,-2.5347,-2.5086,-2.4693,-2.4507,-2.4507,-2.4507,-2.4507,-2.4507,-2.4507,-2.4507,-2.4507,-2.454,-2.454,-2.4625,-2.4946,-2.5115,-2.5242,-2.5874,-2.6196,-2.6373,-2.6809,-2.7056,-2.7108,-2.7149,-2.719,-2.719,-2.719,-2.719,-2.719,-2.719,-2.719,-2.719,-2.719,-2.7167,-2.711,-2.7167,-2.6955,-2.6651,-2.6398,-2.6214,-2.575,-2.5317,-2.4923,-2.4932,-2.4705,-2.4668,-2.4921,-2.4945,-2.5158,-2.5476,-2.53,-2.5052,-2.5016,-2.5264,-2.5534,-2.5906,-2.6022,-2.6333,-2.6968,-2.7338,-2.7338,-2.7136,-2.717,-2.7204,-2.7204,-2.7136,-2.7069,-2.717,-2.717,-2.7371,-2.7703,-2.8051,-2.8228,-2.8208,-2.8403,-2.8643,-2.8546,-2.8578,-2.8899,-2.9387,-2.9495,-2.9449,-2.9605,-2.9898,-3.0005,-3.0127,-3.0312,-3.0539,-3.0925,-3.1335,-3.1737,-3.1964,-3.2117,-3.2312,-2.9922,-2.9777,-2.9446,-2.897,-2.8411,-2.8079,-2.7676,-2.734,-2.732,-2.7262,-2.732,-2.732,-2.7262,-2.732,-2.7272,-2.732,-2.7214,-2.7214,-2.7278,-2.7061,-2.6553,-2.5823,-2.521,-2.4735,-2.4507,-2.4507,-2.4507,-2.4507,-2.4507,-2.4507,-2.4507,-2.4507,-2.4507,-2.4507,-2.454,-2.4615,-2.4658,-2.4711,-2.4882,-2.5285,-2.5622,-2.601,-2.6396,-2.6704,-2.6974,-2.7149,-2.719,-2.719,-2.719,-2.719,-2.719,-2.719,-2.719,-2.719,-2.719,-2.719,-2.7179,-2.7144,-2.699,-2.668,-2.6455,-2.6295,-2.5796,-2.5299,-2.4946,-2.4809,-2.4618,-2.4522,-2.4431,-2.4503,-2.4611,-2.4539,-2.4431,-2.4442,-2.4611,-2.4802,-2.4981,-2.5052,-2.5324,-2.5652,-2.5779,-2.5884,-2.5988,-2.5988,-2.601,-2.5988,-2.6022,-2.6022,-2.623,-2.6471,-2.6676,-2.6913,-2.7204,-2.7471,-2.767,-2.7848,-2.7881,-2.7782,-2.7848,-2.8111,-2.8675,-2.9198,-2.9058,-2.8998,-2.9588,-2.9834,-2.9867,-2.9962,-3.0253,-3.0569,-3.0732,-3.0984,-3.1146,-3.1306,-3.1595,-2.9994,-2.9973,-2.9704,-2.9332,-2.8876,-2.84,-2.776,-2.7128,-2.6855,-2.6822,-2.6774,-2.6774,-2.6774,-2.6774,-2.6784,-2.6582,-2.6322,-2.6274,-2.6466,-2.6798,-2.6614,-2.6061,-2.5313,-2.4879,-2.4693,-2.4507,-2.4497,-2.4507,-2.4507,-2.4507,-2.4507,-2.4507,-2.4507,-2.4507,-2.4507,-2.4507,-2.4507,-2.455,-2.4668,-2.4956,-2.52,-2.5359,-2.5516,-2.5788,-2.6091,-2.6268,-2.6603,-2.6809,-2.6974,-2.7138,-2.719,-2.719,-2.719,-2.719,-2.719,-2.719,-2.719,-2.719,-2.7144,-2.6932,-2.6806,-2.6691,-2.6313,-2.5934,-2.5555,-2.5222,-2.474,-2.4568,-2.4338,-2.4212,-2.4189,-2.4189,-2.4189,-2.4225,-2.4309,-2.4429,-2.4502,-2.4646,-2.4754,-2.4885,-2.4992,-2.5052,-2.5218,-2.5218,-2.5241,-2.53,-2.5453,-2.5418,-2.5453,-2.5721,-2.6,-2.623,-2.6436,-2.6697,-2.6968,-2.7136,-2.7002,-2.6867,-2.7048,-2.7304,-2.7868,-2.8565,-2.868,-2.8712,-2.923,-2.9571,-2.9512,-2.9608,-2.9917,-3.0115,-3.0144,-3.0296,-3.0568,-3.0717,-3.097,-2.9994,-2.9994,-2.9994,-2.9725,-2.9249,-2.8693,-2.7762,-2.6853,-2.623,-2.5994,-2.5994,-2.5945,-2.5984,-2.5945,-2.5994,-2.5645,-2.4992,-2.5138,-2.5441,-2.5885,-2.6111,-2.5788,-2.5072,-2.4934,-2.4625,-2.4262,-2.428,-2.4186,-2.4046,-2.4143,-2.4239,-2.4057,-2.4143,-2.4229,-2.4046,-2.4143,-2.4272,-2.4176,-2.4337,-2.4509,-2.4541,-2.4553,-2.4595,-2.4628,-2.4787,-2.5105,-2.5558,-2.5946,-2.631,-2.688,-2.7108,-2.719,-2.719,-2.719,-2.719,-2.719,-2.719,-2.719,-2.719,-2.7144,-2.7156,-2.7052,-2.676,-2.6536,-2.6283,-2.5647,-2.513,-2.4843,-2.4522,-2.4326,-2.4189,-2.4189,-2.4189,-2.4189,-2.4236,-2.4309,-2.4418,-2.449,-2.4526,-2.4718,-2.4754,-2.4849,-2.4981,-2.5087,-2.5111,-2.5076,-2.5147,-2.5182,-2.5182,-2.5382,-2.5523,-2.5558,-2.5756,-2.6,-2.6195,-2.6389,-2.6126,-2.5953,-2.6195,-2.6471,-2.7002,-2.7591,-2.8051,-2.8344,-2.8468,-2.8707,-2.8994,-2.9202,-2.9421,-2.9608,-2.9591,-2.9915,-3.0235,-3.031,-3.0507,-2.9994,-2.9994,-2.9994,-2.9725,-2.9167,-2.8147,-2.7302,-2.6685,-2.5634,-2.5177,-2.5138,-2.5148,-2.5148,-2.5138,-2.5148,-2.5041,-2.4796,-2.4796,-2.5041,-2.508,-2.5227,-2.4977,-2.4481,-2.4443,-2.4019,-2.35,-2.3032,-2.2896,-2.2931,-2.3018,-2.2887,-2.2931,-2.3062,-2.2887,-2.2931,-2.3062,-2.2887,-2.2887,-2.3008,-2.3139,-2.3236,-2.34,-2.3477,-2.3511,-2.376,-2.4018,-2.419,-2.4318,-2.4702,-2.5431,-2.6393,-2.6933,-2.7097,-2.719,-2.719,-2.719,-2.719,-2.719,-2.719,-2.719,-2.719,-2.7167,-2.7052,-2.6898,-2.6536,-2.6318,-2.5693,-2.5164,-2.4771,-2.4625,-2.4315,-2.4212,-2.4189,-2.4189,-2.4189,-2.4236,-2.4273,-2.4273,-2.4381,-2.449,-2.4562,-2.4634,-2.4814,-2.4849,-2.4885,-2.4897,-2.4957,-2.4981,-2.5052,-2.5123,-2.5147,-2.5182,-2.5347,-2.5594,-2.5687,-2.5861,-2.5756,-2.5546,-2.5652,-2.5756,-2.6286,-2.6697,-2.7191,-2.7391,-2.7451,-2.7815,-2.8371,-2.8228,-2.8344,-2.868,-2.9044,-2.931,-2.9529,-2.9744,-2.982,-2.9617,-2.9994,-2.9994,-2.9641,-2.8938,-2.804,-2.7031,-2.5945,-2.5017,-2.4529,-2.4381,-2.4362,-2.4353,-2.4353,-2.4313,-2.4156,-2.3967,-2.4214,-2.4362,-2.4452,-2.4688,-2.4575,-2.3992,-2.3777,-2.3418,-2.2968,-2.283,-2.2621,-2.2451,-2.2359,-2.2482,-2.2394,-2.235,-2.2492,-2.2394,-2.235,-2.2438,-2.2438,-2.2394,-2.2394,-2.2448,-2.2315,-2.2315,-2.2315,-2.2561,-2.277,-2.311,-2.3381,-2.3684,-2.42,-2.502,-2.6049,-2.6787,-2.7067,-2.7149,-2.719,-2.719,-2.719,-2.719,-2.719,-2.719,-2.719,-2.719,-2.7052,-2.6806,-2.6674,-2.6306,-2.5739,-2.5417,-2.5096,-2.4602,-2.4281,-2.4223,-2.4189,-2.4189,-2.4189,-2.4189,-2.4189,-2.4236,-2.4345,-2.4381,-2.4454,-2.4562,-2.4646,-2.4718,-2.479,-2.4825,-2.4849,-2.4885,-2.4957,-2.4957,-2.5028,-2.5159,-2.5253,-2.5253,-2.5347,-2.5453,-2.5382,-2.5418,-2.5453,-2.5652,-2.6022,-2.6402,-2.6607,-2.6879,-2.7384,-2.7769,-2.7537,-2.7438,-2.7868,-2.826,-2.8519,-2.868,-2.8648,-2.8757,-2.8963,-2.9617,-2.9617,-2.9185,-2.8449,-2.7826,-2.6608,-2.5124,-2.4383,-2.3859,-2.3582,-2.3538,-2.3529,-2.3529,-2.3529,-2.3138,-2.2946,-2.3188,-2.3529,-2.3628,-2.4066,-2.3939,-2.3516,-2.3228,-2.3035,-2.2824,-2.251,-2.2334,-2.2102,-2.2078,-2.1828,-2.2006,-2.205,-2.1872,-2.2006,-2.205,-2.1917,-2.1872,-2.1828,-2.1872,-2.1872,-2.1481,-2.1311,-2.1311,-2.1347,-2.157,-2.1996,-2.2306,-2.2658,-2.2833,-2.3294,-2.4361,-2.5579,-2.6404,-2.6715,-2.6622,-2.6456,-2.6415,-2.6415,-2.6592,-2.6674,-2.688,-2.6962,-2.6921,-2.6796,-2.6465,-2.6102,-2.582,-2.5391,-2.505,-2.4732,-2.4539,-2.4301,-2.4223,-2.4189,-2.4152,-2.4043,-2.408,-2.42,-2.4236,-2.4261,-2.4345,-2.4418,-2.4454,-2.4574,-2.4646,-2.4682,-2.4718,-2.4718,-2.4754,-2.4754,-2.4861,-2.4992,-2.5028,-2.5052,-2.5052,-2.5147,-2.5218,-2.5253,-2.5253,-2.5253,-2.5488,-2.5861,-2.6173,-2.6505,-2.6867,-2.6968,-2.6731,-2.6799,-2.717,-2.7438,-2.767,-2.767,-2.7557,-2.7756,-2.7716,-2.7814,-2.7814,-2.7716,-2.7435,-2.6426,-2.5614,-2.4882,-2.3808,-2.315,-2.2839,-2.2787,-2.2846,-2.2846,-2.2795,-2.2695,-2.2695,-2.2846,-2.2896,-2.2896,-2.3138,-2.2987,-2.2953,-2.2833,-2.2594,-2.207,-2.1751,-2.145,-2.1184,-2.0828,-2.096,-2.0753,-2.0772,-2.0772,-2.0826,-2.069,-2.0862,-2.0907,-2.0898,-2.0862,-2.0817,-2.069,-2.06,-2.06,-2.06,-2.069,-2.069,-2.0817,-2.1042,-2.1659,-2.2076,-2.277,-2.3554,-2.4114,-2.4457,-2.4808,-2.4904,-2.5041,-2.5168,-2.5084,-2.5379,-2.5799,-2.6049,-2.6049,-2.6027,-2.5898,-2.545,-2.4764,-2.4567,-2.4353,-2.3908,-2.4171,-2.4431,-2.4288,-2.397,-2.3787,-2.3446,-2.3593,-2.4007,-2.4007,-2.408,-2.42,-2.4273,-2.4309,-2.4381,-2.4418,-2.4418,-2.4345,-2.4273,-2.4381,-2.4502,-2.4646,-2.4837,-2.4861,-2.4861,-2.4885,-2.4921,-2.5052,-2.5123,-2.5123,-2.5123,-2.5123,-2.5359,-2.5641,-2.5734,-2.5826,-2.5849,-2.5918,-2.6126,-2.6458,-2.6641,-2.679,-2.6867,-2.6921,-2.7124,-2.7006,-2.7394,-2.7394,-2.7114,-2.6653,-2.6109,-2.5308,-2.4562,-2.3773,-2.3194,-2.292,-2.2697,-2.2603,-2.2603,-2.2603,-2.2603,-2.2603,-2.2603,-2.2603,-2.2603,-2.2603,-2.2603,-2.2603,-2.2603,-2.2508,-2.2216,-2.177,-2.1216,-2.09,-2.0749,-2.0497,-2.0317,-2.0292,-2.0292,-2.0292,-2.0382,-2.0292,-2.0292,-2.0292,-2.0292,-2.0292,-2.0292,-2.0292,-2.0292,-2.0292,-2.0292,-2.0292,-2.0292,-2.0464,-2.0781,-2.0997,-2.1293,-2.1641,-2.1987,-2.2595,-2.3597,-2.3856,-2.3943,-2.4114,-2.4211,-2.452,-2.4819,-2.5031,-2.5126,-2.5115,-2.5031,-2.4693,-2.4284,-2.3857,-2.3909,-2.3708,-2.3733,-2.346,-2.3308,-2.3154,-2.2863,-2.2606,-2.2793,-2.3139,-2.3545,-2.3849,-2.4007,-2.4189,-2.4236,-2.42,-2.4189,-2.4152,-2.397,-2.3776,-2.3776,-2.3849,-2.397,-2.408,-2.4345,-2.4309,-2.4334,-2.4322,-2.4539,-2.4647,-2.4647,-2.473,-2.4611,-2.4802,-2.5099,-2.5087,-2.5028,-2.5347,-2.5581,-2.5687,-2.5756,-2.5896,-2.607,-2.6195,-2.6321,-2.6526,-2.6254,-2.6898,-2.6907,-2.6482,-2.5872,-2.5826,-2.5212,-2.4276,-2.3905,-2.3511,-2.31,-2.2818,-2.2688,-2.2611,-2.2603,-2.2603,-2.2603,-2.2603,-2.2603,-2.2603,-2.2603,-2.2603,-2.2603,-2.2603,-2.2577,-2.25,-2.2285,-2.1756,-2.1285,-2.1037,-2.0763,-2.0557,-2.0429,-2.0343,-2.0309,-2.0292,-2.0292,-2.0292,-2.0292,-2.0292,-2.0292,-2.0292,-2.0292,-2.0292,-2.0292,-2.0292,-2.0292,-2.0292,-2.0292,-2.0382,-2.0382,-2.0374,-2.0337,-2.0292,-2.1204,-2.2707,-2.311,-2.3197,-2.324,-2.325,-2.3347,-2.378,-2.4006,-2.4092,-2.4006,-2.3887,-2.3747,-2.3816,-2.3807,-2.346,-2.3278,-2.3031,-2.2718,-2.2465,-2.2234,-2.1869,-2.1711,-2.1832,-2.2107,-2.2633,-2.3324,-2.3618,-2.3629,-2.3361,-2.3165,-2.3165,-2.3128,-2.3054,-2.2868,-2.283,-2.2868,-2.299,-2.3213,-2.3618,-2.3692,-2.3582,-2.357,-2.3548,-2.3621,-2.3621,-2.3827,-2.3948,-2.4129,-2.4238,-2.4431,-2.4443,-2.4874,-2.5241,-2.5382,-2.5453,-2.5347,-2.5418,-2.5674,-2.5744,-2.5779,-2.4979,-2.5145,-2.5145,-2.5034,-2.4979,-2.5034,-2.4708,-2.4264,-2.4116,-2.3751,-2.316,-2.3049,-2.2894,-2.2663,-2.2603,-2.2603,-2.2603,-2.2603,-2.2603,-2.2603,-2.2603,-2.2603,-2.2603,-2.2603,-2.2603,-2.2594,-2.2534,-2.2261,-2.1833,-2.1499,-2.1165,-2.0883,-2.078,-2.0651,-2.0394,-2.0386,-2.0292,-2.0292,-2.0292,-2.0292,-2.0292,-2.0292,-2.0292,-2.0292,-2.0292,-2.0292,-2.0292,-2.0292,-2.0292,-2.0292,-2.0292,-2.0292,-2.0292,-2.0292,-2.0337,-2.069,-2.0907,-2.1177,-2.1472,-2.165,-2.2006,-2.2614,-2.2867,-2.2911,-2.279,-2.2369,-2.2078,-2.1785,-2.2503,-2.2895,-2.2778,-2.3068,-2.2982,-2.2551,-2.1996,-2.1419,-2.1044,-2.0914,-2.1183,-2.1336,-2.1907,-2.2483,-2.2793,-2.2371,-2.2069,-2.2069,-2.2096,-2.2059,-2.1983,-2.1956,-2.1918,-2.2031,-2.2408,-2.2782,-2.2968,-2.2905,-2.282,-2.2723,-2.2723,-2.2723,-2.2883,-2.308,-2.3021,-2.3169,-2.3401,-2.3815,-2.4204,-2.4612,-2.4993,-2.5218,-2.5276,-2.5276,-2.5347,-2.5312,-2.5312,-2.4821,-2.4821,-2.4821,-2.4821,-2.4821,-2.4821,-2.468,-2.4547,-2.4261,-2.3939,-2.3468,-2.3194,-2.2903,-2.2663,-2.2603,-2.2603,-2.2603,-2.2603,-2.2603,-2.2603,-2.2603,-2.2603,-2.2603,-2.2603,-2.2603,-2.2603,-2.2594,-2.2542,-2.221,-2.1919,-2.155,-2.1234,-2.1165,-2.1002,-2.066,-2.0617,-2.048,-2.0369,-2.0292,-2.0292,-2.0292,-2.0292,-2.0292,-2.0292,-2.0292,-2.0292,-2.0292,-2.0292,-2.0292,-2.0292,-2.0292,-2.0292,-2.0292,-2.0292,-2.0337,-2.0337,-2.0428,-2.0555,-2.0645,-2.0736,-2.1132,-2.1436,-2.1695,-2.173,-2.165,-2.1436,-2.115,-2.1195,-2.1776,-2.2019,-2.192,-2.205,-2.1976,-2.1726,-2.1514,-2.102,-2.0471,-2.0253,-2.0265,-2.0343,-2.0537,-2.1106,-2.169,-2.169,-2.1489,-2.1565,-2.1565,-2.1499,-2.1298,-2.1068,-2.1068,-2.1068,-2.1527,-2.2021,-2.2096,-2.2134,-2.2134,-2.2048,-2.2086,-2.2086,-2.2059,-2.2134,-2.2086,-2.2161,-2.2397,-2.2872,-2.3463,-2.4131,-2.4707,-2.4993,-2.5229,-2.5123,-2.5004,-2.5312,-2.5312,-2.4821,-2.4821,-2.4821,-2.4821,-2.4821,-2.4821,-2.4821,-2.4778,-2.4458,-2.4179,-2.3768,-2.334,-2.2912,-2.2671,-2.2603,-2.2603,-2.2603,-2.2603,-2.2603,-2.2603,-2.2603,-2.2603,-2.2603,-2.2603,-2.2603,-2.2603,-2.2603,-2.2577,-2.25,-2.2294,-2.1936,-2.1576,-2.1567,-2.1353,-2.1105,-2.0977,-2.0857,-2.0514,-2.0352,-2.03,-2.0292,-2.0292,-2.0292,-2.0292,-2.0292,-2.0292,-2.0292,-2.0292,-2.0292,-2.0292,-2.0292,-2.0292,-2.0292,-2.0292,-2.0292,-2.0292,-2.0337,-2.0337,-2.0382,-2.0473,-2.0609,-2.0736,-2.0781,-2.1042,-2.0997,-2.0916,-2.0916,-2.0916,-2.1186,-2.1329,-2.1275,-2.1253,-2.1218,-2.1062,-2.073,-2.0287,-2.0003,-1.9993,-1.994,-2.0031,-2.0063,-1.9883,-2.0421,-2.0847,-2.0991,-2.1068,-2.1029,-2.0885,-2.0615,-2.0294,-2.0255,-2.0304,-2.0489,-2.0865,-2.0942,-2.1058,-2.1183,-2.1298,-2.1336,-2.1221,-2.1029,-2.1029,-2.1068,-2.1183,-2.1461,-2.1907,-2.2489,-2.3475,-2.4335,-2.4095,-2.4,-2.448,-2.4671,-2.5004,-2.5241,-2.4821,-2.4821,-2.4821,-2.4821,-2.4821,-2.4821,-2.4821,-2.4821,-2.4778,-2.4521,-2.4076,-2.3451,-2.2912,-2.2688,-2.262,-2.2603,-2.2603,-2.2603,-2.2603,-2.2603,-2.2603,-2.2603,-2.2603,-2.2603,-2.2603,-2.2603,-2.2603,-2.2603,-2.2594,-2.2542,-2.2285,-2.2004,-2.1961,-2.1713,-2.1473,-2.1302,-2.1148,-2.0814,-2.0549,-2.0369,-2.0343,-2.0317,-2.0292,-2.0292,-2.0292,-2.0292,-2.0292,-2.0292,-2.0292,-2.0292,-2.0292,-2.0292,-2.0292,-2.0292,-2.0292,-2.0292,-2.0292,-2.0292,-2.0337,-2.0337,-2.0473,-2.0609,-2.0699,-2.0699,-2.0699,-2.0699,-2.0744,-2.0744,-2.0916,-2.1042,-2.1087,-2.1168,-2.1015,-2.0843,-2.0616,-2.0443,-2.0229,-2.0035,-1.9957,-1.9856,-1.9804,-1.9762,-1.9672,-2.0227,-2.0205,-2.0255,-2.0216,-2.007,-1.9913,-1.9678,-1.9559,-1.9569,-1.9529,-1.9599,-1.9559,-1.9756,-2.0138,-2.0216,-2.0216,-1.9982,-1.9756,-1.9835,-2.0226,-2.0382,-2.0653,-2.1106,-2.1451,-2.2,-2.2366,-2.2515,-2.2776,-2.3441,-2.4036,-2.4409,-2.4719,-2.4821,-2.4821,-2.4821,-2.4821,-2.4821,-2.4821,-2.4821,-2.4821,-2.4821,-2.4607,-2.4133,-2.346,-2.3032,-2.286,-2.2671,-2.2603,-2.2603,-2.2603,-2.2603,-2.2603,-2.2603,-2.2603,-2.2603,-2.2603,-2.2603,-2.2603,-2.2603,-2.2603,-2.2603,-2.2603,-2.2551,-2.2405,-2.2354,-2.2098,-2.1859,-2.1559,-2.1353,-2.1182,-2.0865,-2.066,-2.06,-2.0386,-2.0292,-2.0292,-2.0292,-2.0292,-2.0292,-2.0292,-2.0292,-2.0292,-2.0292,-2.0292,-2.0292,-2.0292,-2.0292,-2.0292,-2.0292,-2.0292,-2.0292,-2.0292,-2.0337,-2.0382,-2.0473,-2.0473,-2.0473,-2.0473,-2.0473,-2.0518,-2.069,-2.0817,-2.0826,-2.0997,-2.0998,-2.0846,-2.0677,-2.0569,-2.0422,-2.0183,-2.0036,-1.9964,-2.0011,-2.0007,-1.982,-1.9725,-1.9564,-1.9436,-1.932,-1.9292,-1.9292,-1.9292,-1.9292,-1.9292,-1.9292,-1.9292,-1.9292,-1.9292,-1.9292,-1.9292,-1.9292,-1.9292,-1.9292,-1.9332,-1.9648,-1.9766,-1.9844,-2.0148,-2.0333,-2.0333,-2.0711,-2.1458,-2.2027,-2.259,-2.3184,-2.3734,-2.3963,-2.4423,-2.432,-2.4654,-2.4821,-2.4821,-2.4821,-2.4821,-2.4821,-2.4821,-2.4598,-2.4196,-2.3562,-2.3203,-2.304,-2.2774,-2.2603,-2.2603,-2.2603,-2.2603,-2.2603,-2.2603,-2.2603,-2.2603,-2.2603,-2.2603,-2.2603,-2.2603,-2.2603,-2.2603,-2.2603,-2.2577,-2.2577,-2.2585,-2.2397,-2.2208,-2.1799,-2.1585,-2.1499,-2.1251,-2.1045,-2.0977,-2.0805,-2.0557,-2.054,-2.0506,-2.0394,-2.0343,-2.0292,-2.0292,-2.0292,-2.0292,-2.0292,-2.0292,-2.0292,-2.0292,-2.0292,-2.0292,-2.0292,-2.0292,-2.0292,-2.0292,-2.0337,-2.0337,-2.0337,-2.0292,-2.0292,-2.0337,-2.0337,-2.0473,-2.0609,-2.0609,-2.0781,-2.0826,-2.0649,-2.0802,-2.0722,-2.0553,-2.0366,-2.0223,-2.0098,-2.0103,-1.9976,-1.9955,-1.9799,-1.962,-1.9441,-1.932,-1.9301,-1.9292,-1.9292,-1.9292,-1.9292,-1.9292,-1.9292,-1.9292,-1.9311,-1.9329,-1.9292,-1.9292,-1.9292,-1.9292,-1.9292,-1.9292,-1.945,-1.949,-1.9332,-1.945,-1.9756,-2.0246,-2.0855,-2.1354,-2.1773,-2.2151,-2.2664,-2.2925,-2.3585,-2.3183,-2.4256,-2.471,-2.471,-2.4765,-2.4821,-2.4821,-2.4821,-2.4624,-2.4273,-2.3828,-2.346,-2.3151,-2.2818,-2.2671,-2.2603,-2.2603,-2.2603,-2.2603,-2.2603,-2.2603,-2.2603,-2.2603,-2.2603,-2.2603,-2.2603,-2.2603,-2.2603,-2.2603,-2.2603,-2.2603,-2.2594,-2.2568,-2.2525,-2.2167,-2.1996,-2.1927,-2.1593,-2.1448,-2.1379,-2.1293,-2.1071,-2.0925,-2.0857,-2.0737,-2.048,-2.0412,-2.0386,-2.03,-2.0292,-2.0292,-2.0292,-2.0292,-2.0292,-2.0292,-2.0292,-2.0292,-2.0292,-2.0292,-2.0292,-2.0292,-2.0292,-2.0292,-2.0292,-2.0292,-2.0292,-2.0292,-2.0337,-2.0337,-2.0428,-2.0518,-2.0518,-2.0538,-2.0684,-2.0676,-2.0509,-2.0527,-2.0369,-2.0254,-2.0042,-1.988,-1.9913,-1.9925,-1.9774,-1.957,-1.9381,-1.9347,-1.9399,-1.9522,-1.9604,-1.9632,-1.965,-1.954,-1.9549,-1.9402,-1.9356,-1.932,-1.9292,-1.9292,-1.9292,-1.9292,-1.9292,-1.9292,-1.9292,-1.9292,-1.9292,-1.9332,-1.9786,-2.0207,-2.0489,-2.0875,-2.125,-2.1593,-2.1849,-2.3183,-2.3014,-2.3472,-2.3641,-2.3697,-2.4487,-2.4821,-2.4821,-2.4812,-2.4744,-2.4509,-2.4213,-2.3845,-2.3477,-2.3083,-2.2783,-2.2637,-2.2603,-2.2603,-2.2603,-2.2603,-2.2603,-2.2603,-2.2603,-2.2603,-2.2603,-2.2603,-2.2603,-2.2603,-2.2603,-2.2603,-2.2603,-2.2603,-2.2603,-2.2568,-2.2439,-2.2414,-2.2295,-2.2021,-2.179,-2.1764,-2.1576,-2.1388,-2.1242,-2.1234,-2.1054,-2.072,-2.0677,-2.0583,-2.0412,-2.0377,-2.0335,-2.0326,-2.0317,-2.0292,-2.0292,-2.0292,-2.0292,-2.0292,-2.0292,-2.0292,-2.0292,-2.0292,-2.0292,-2.0292,-2.0292,-2.0292,-2.0292,-2.0292,-2.0292,-2.0337,-2.0382,-2.0382,-2.0382,-2.043,-2.0439,-2.0378,-2.0532,-2.0552,-2.0418,-2.0244,-2.0132,-2.0079,-2.0148,-2.0043,-2.0015,-1.9864,-1.9902,-1.9989,-2.0095,-2.0168,-2.0168,-2.0182,-1.998,-1.9833,-1.971,-1.9555,-1.9522,-1.9412,-1.9292,-1.9292,-1.9338,-1.9292,-1.9292,-1.9292,-1.9292,-1.9292,-1.9292,-1.9292,-1.952,-1.9874,-2.0031,-2.0216,-2.0566,-2.0847,-2.257,-2.24,-2.2845,-2.2845,-2.2845,-2.3745,-2.4256,-2.4479,-2.471,-2.4821,-2.4727,-2.4347,-2.411,-2.3785,-2.3357,-2.3032,-2.2783,-2.2645,-2.2603,-2.2603,-2.2603,-2.2603,-2.2603,-2.2603,-2.2603,-2.2603,-2.2603,-2.2603,-2.2603,-2.2603,-2.2603,-2.2603,-2.2603,-2.2603,-2.2585,-2.2577,-2.2568,-2.25,-2.2311,-2.2184,-2.2165,-2.197,-2.1773,-2.1662,-2.1576,-2.1439,-2.1174,-2.102,-2.0942,-2.0711,-2.0574,-2.0506,-2.048,-2.0377,-2.0317,-2.0292,-2.0292,-2.0292,-2.0292,-2.0292,-2.0292,-2.0292,-2.0292,-2.0292,-2.0292,-2.0292,-2.0292,-2.0292,-2.0292,-2.0246,-2.0246,-2.0246,-2.0292,-2.0292,-2.0292,-2.0292,-2.0329,-2.0484,-2.052,-2.0411,-2.0303,-2.0221,-2.01,-2.0385,-2.036,-2.0411,-2.0416,-2.0359,-2.0325,-2.0452,-2.0462,-2.041,-2.0398,-2.0189,-2.0052,-1.9998,-1.9866,-1.9719,-1.9551,-1.9352,-1.943,-1.9485,-1.9393,-1.9292,-1.9301,-1.9301,-1.9292,-1.9292,-1.9292,-1.9292,-1.9411,-1.945,-1.9301,-1.9648,-2.0118,-2.1717,-2.1432,-2.2456,-2.2562,-2.2222,-2.2788,-2.3352,-2.3921,-2.4487,-2.471,-2.4629,-2.4272,-2.413,-2.3968,-2.3433,-2.316,-2.3023,-2.2791,-2.2663,-2.2611,-2.2603,-2.2603,-2.2603,-2.2603,-2.2603,-2.2603,-2.2603,-2.2603,-2.2603,-2.2603,-2.2603,-2.2603,-2.2603,-2.2603,-2.2603,-2.2603,-2.2603,-2.2568,-2.2542,-2.2482,-2.2431,-2.2474,-2.2268,-2.2081,-2.1978,-2.179,-2.1567,-2.1413,-2.1371,-2.1225,-2.1062,-2.0942,-2.078,-2.0523,-2.0386,-2.0292,-2.0292,-2.0292,-2.0292,-2.0292,-2.0292,-2.0292,-2.0292,-2.0292,-2.0292,-2.0292,-2.0292,-2.0292,-2.0292,-2.0192,-2.0147,-2.0192,-2.0238,-2.0238,-2.0246,-2.0246,-2.0292,-2.0329,-2.0329,-2.0238,-2.0102,-1.9926,-1.9629,-1.9785,-1.9746,-2.0035,-1.9934,-1.9893,-1.9966,-2.0406,-2.0415,-2.0345,-2.0316,-2.0328,-2.0204,-1.9956,-1.9913,-1.9731,-1.9564,-1.9415,-1.9512,-1.9624,-1.965,-1.9567,-1.9375,-1.9311,-1.9292,-1.9292,-1.9292,-1.9292,-1.9292,-1.9292,-1.9292,-1.9292,-1.9569,-2.1382,-2.1268,-2.1546,-2.1603,-2.1546,-2.2108,-2.2732,-2.3296,-2.3913,-2.3977,-2.3576,-2.4314,-2.4158,-2.3599,-2.3784,-2.3483,-2.3202,-2.298,-2.2817,-2.2714,-2.2519,-2.2603,-2.2603,-2.2603,-2.2603,-2.2603,-2.2603,-2.2603,-2.2603,-2.2603,-2.2603,-2.2603,-2.2603,-2.2603,-2.2603,-2.2603,-2.2603,-2.2603,-2.2603,-2.2603,-2.2603,-2.2603,-2.2482,-2.2422,-2.2388,-2.2133,-2.1919,-2.1824,-2.1739,-2.1448,-2.1345,-2.1259,-2.1225,-2.0908,-2.0651,-2.0317,-2.0292,-2.0292,-2.0292,-2.0292,-2.0192,-2.0147,-2.0192,-2.0292,-2.0292,-2.0192,-2.0192,-2.0102,-1.9866,-1.9637,-1.9492,-1.9492,-1.9446,-1.9392,-1.9583,-1.9911,-1.9911,-1.9957,-1.9911,-1.9683,-1.9538,-1.9072,-1.8788,-1.8534,-1.8563,-1.9085,-1.9335,-1.9241,-1.9502,-1.9954,-1.9929,-1.9823,-1.9912,-1.9834,-1.98,-1.9626,-1.9704,-1.9701,-1.9365,-1.927,-1.9521,-1.9624,-1.9852,-1.9661,-1.9201,-1.9181,-1.9292,-1.9292,-1.9292,-1.9292,-1.9292,-1.9292,-1.9292,-1.9292,-1.9292,-2.1211,-2.1211,-2.1211,-2.1211,-2.1261,-2.1603,-2.2002,-2.2392,-2.3183,-2.3296,-2.3135,-2.3745,-2.3733,-2.3259,-2.3338,-2.3158,-2.2802,-2.243,-2.2293,-2.2485,-2.23,-2.2409,-2.2502,-2.2552,-2.2603,-2.2603,-2.2603,-2.2603,-2.2603,-2.2603,-2.2603,-2.2603,-2.2603,-2.2603,-2.2603,-2.2603,-2.2603,-2.2603,-2.2603,-2.2603,-2.2552,-2.2552,-2.2603,-2.2493,-2.2493,-2.2339,-2.2194,-2.2143,-2.2055,-2.1833,-2.1782,-2.1636,-2.1576,-2.1293,-2.0925,-2.058,-2.0079,-1.9833,-1.9596,-1.9126,-1.9355,-1.9583,-1.9729,-1.9675,-1.9629,-1.9583,-1.9583,-1.9538,-1.9163,-1.8888,-1.8742,-1.8603,-1.8457,-1.8272,-1.8834,-1.9438,-1.9492,-1.9492,-1.9263,-1.898,-1.8557,-1.7994,-1.7669,-1.7336,-1.7382,-1.7994,-1.8272,-1.8226,-1.8639,-1.9282,-1.9052,-1.8763,-1.9031,-1.9167,-1.9159,-1.8999,-1.8909,-1.8797,-1.8474,-1.8532,-1.9125,-1.9041,-1.8684,-1.8716,-1.8833,-1.8775,-1.8751,-1.9188,-1.9292,-1.9192,-1.9042,-1.9134,-1.9173,-1.9292,-1.9292,-2.1211,-2.1211,-2.1211,-2.1211,-2.1211,-2.1268,-2.1268,-2.1318,-2.2392,-2.2845,-2.2796,-2.2965,-2.3054,-2.2887,-2.2807,-2.2695,-2.2397,-2.2081,-2.1925,-2.2149,-2.1771,-2.1835,-2.2139,-2.2443,-2.2241,-2.2392,-2.2493,-2.2443,-2.2603,-2.2603,-2.2603,-2.2603,-2.2603,-2.2603,-2.2603,-2.2603,-2.2493,-2.2131,-2.2182,-2.219,-2.2291,-2.2392,-2.2443,-2.2182,-2.2131,-2.2097,-2.2156,-2.2316,-2.2485,-2.2315,-2.2278,-2.2047,-2.1833,-2.1419,-2.1047,-2.0462,-1.9723,-1.9185,-1.873,-1.8264,-1.8234,-1.845,-1.865,-1.8696,-1.8696,-1.9026,-1.9163,-1.8696,-1.828,-1.7809,-1.7569,-1.7762,-1.7762,-1.7662,-1.7948,-1.8272,-1.8365,-1.8365,-1.8226,-1.7902,-1.7436,-1.6915,-1.6452,-1.617,-1.6405,-1.6922,-1.7203,-1.7203,-1.7475,-1.8218,-1.8172,-1.7747,-1.811,-1.8334,-1.8064,-1.7949,-1.7864,-1.7712,-1.7485,-1.7734,-1.8279,-1.7932,-1.7314,-1.7679,-1.8091,-1.8027,-1.8104,-1.8348,-1.8461,-1.8449,-1.844,-1.8794,-1.8935,-1.8776,-1.8886,-2.1211,-2.1211,-2.1211,-2.1211,-2.1211,-2.1211,-2.1211,-2.1211,-2.1489,-2.166,-2.1774,-2.2505,-2.2732,-2.2361,-2.2566,-2.2521,-2.2253,-2.1814,-2.1719,-2.1598,-2.1278,-2.1256,-2.1326,-2.153,-2.1632,-2.1827,-2.1979,-2.2131,-2.2342,-2.2502,-2.2603,-2.2594,-2.2493,-2.2342,-2.2392,-2.2392,-2.1979,-2.1353,-2.1302,-2.1251,-2.1148,-2.1097,-2.1038,-2.0475,-2.0158,-2.0261,-2.0467,-2.0936,-2.114,-2.1304,-2.2156,-2.222,-2.2004,-2.1098,-2.0467,-1.9958,-1.9031,-1.8405,-1.7949,-1.7516,-1.7476,-1.751,-1.7684,-1.7677,-1.7909,-1.8465,-1.8465,-1.7855,-1.725,-1.6727,-1.6492,-1.6781,-1.7016,-1.6962,-1.7008,-1.7149,-1.725,-1.7149,-1.7102,-1.668,-1.6264,-1.5839,-1.5378,-1.533,-1.5514,-1.5751,-1.6035,-1.6177,-1.617,-1.6586,-1.7055,-1.6868,-1.7289,-1.7429,-1.7055,-1.6821,-1.6687,-1.6727,-1.6625,-1.6982,-1.7366,-1.706,-1.6682,-1.7078,-1.7391,-1.7272,-1.713,-1.6997,-1.7151,-1.7489,-1.7516,-1.7687,-1.7441,-1.7261,-1.7691,-2.1211,-2.1211,-2.1211,-2.1211,-2.1211,-2.1211,-2.1211,-2.1211,-2.1211,-2.1211,-2.1268,-2.1831,-2.1995,-2.1717,-2.2051,-2.2217,-2.1869,-2.1522,-2.1372,-2.1192,-2.0963,-2.0921,-2.0842,-2.0846,-2.1078,-2.1326,-2.1377,-2.153,-2.1886,-2.1835,-2.1827,-2.208,-2.1928,-2.1615,-2.1717,-2.1454,-2.0877,-2.0158,-2.0158,-1.9901,-1.9694,-1.9702,-1.9901,-1.928,-1.9176,-1.9124,-1.9332,-1.9849,-2.0004,-2.021,-2.0656,-2.077,-2.0561,-2.0101,-1.9656,-1.9135,-1.8395,-1.7547,-1.719,-1.6856,-1.6684,-1.6703,-1.6676,-1.6669,-1.664,-1.7109,-1.7102,-1.6546,-1.5846,-1.533,-1.5283,-1.5466,-1.5514,-1.5466,-1.6028,-1.6405,-1.6217,-1.5934,-1.5751,-1.5425,-1.514,-1.5045,-1.4717,-1.4723,-1.486,-1.4908,-1.5146,-1.5242,-1.5188,-1.533,-1.5656,-1.594,-1.6264,-1.6123,-1.5656,-1.5466,-1.5378,-1.5514,-1.5792,-1.5812,-1.5953,-1.6059,-1.6121,-1.6253,-1.6361,-1.6436,-1.6255,-1.6155,-1.6517,-1.7044,-1.6769,-1.6487,-1.6175,-1.5963,-1.62,-2.1211,-2.1211,-2.1211,-2.1211,-2.1211,-2.1211,-2.1211,-2.1211,-2.1211,-2.1211,-2.1211,-2.1268,-2.1211,-2.1211,-2.1211,-2.1211,-2.1136,-2.1044,-2.0991,-2.0929,-2.0712,-2.0581,-2.0576,-2.0718,-2.0746,-2.0846,-2.0917,-2.0968,-2.1121,-2.1121,-2.1275,-2.1318,-2.085,-2.0277,-2.0261,-1.979,-1.9161,-1.8902,-1.87,-1.8237,-1.8244,-1.8356,-1.861,-1.876,-1.876,-1.8812,-1.876,-1.8916,-1.8916,-1.9176,-1.9339,-1.9568,-1.9398,-1.9206,-1.8846,-1.8359,-1.7586,-1.6919,-1.639,-1.5745,-1.5729,-1.5732,-1.5698,-1.5668,-1.5703,-1.5663,-1.5704,-1.5419,-1.4723,-1.449,-1.4436,-1.4436,-1.4436,-1.4484,-1.5188,-1.5656,-1.5283,-1.4956,-1.4675,-1.4394,-1.4346,-1.4346,-1.4346,-1.4298,-1.4298,-1.4298,-1.4298,-1.4298,-1.4394,-1.4627,-1.4956,-1.5003,-1.5146,-1.4813,-1.4484,-1.458,-1.4723,-1.4723,-1.4956,-1.4729,-1.4669,-1.5022,-1.518,-1.501,-1.513,-1.5444,-1.5586,-1.5558,-1.6,-1.63,-1.5696,-1.5224,-1.5375,-1.5133,-1.4809,-2.1211,-2.1211,-2.1211,-2.1211,-2.1211,-2.1211,-2.1211,-2.1211,-2.1211,-2.1211,-2.1211,-2.1211,-2.1211,-2.1211,-2.1211,-2.1203,-2.1159,-2.0896,-2.0708,-2.0692,-2.0547,-2.029,-2.0151,-2.0279,-2.0158,-2.032,-2.0589,-2.0814,-2.0506,-2.066,-2.0873,-2.0865,-2.0055,-1.9635,-1.9583,-1.8902,-1.8014,-1.7706,-1.7285,-1.6922,-1.6836,-1.6942,-1.71,-1.6942,-1.6518,-1.6518,-1.6723,-1.747,-1.7786,-1.8146,-1.8558,-1.8819,-1.8655,-1.8244,-1.7921,-1.7612,-1.6787,-1.6358,-1.5795,-1.5505,-1.5549,-1.5183,-1.5175,-1.4977,-1.4908,-1.4783,-1.4825,-1.4813,-1.4394,-1.4394,-1.4346,-1.4346,-1.4346,-1.4346,-1.4771,-1.4771,-1.458,-1.4532,-1.4442,-1.4346,-1.4346,-1.4298,-1.4298,-1.4298,-1.4298,-1.4298,-1.4298,-1.4298,-1.4298,-1.4298,-1.4298,-1.4298,-1.4298,-1.4298,-1.4346,-1.4394,-1.4442,-1.4346,-1.4298,-1.44,-1.44,-1.4352,-1.4436,-1.4519,-1.4472,-1.4665,-1.4775,-1.5007,-1.481,-1.4924,-1.4301,-1.3969,-1.4257,-1.4433,-1.42]},{"header":{"parameterUnit":"m.s-1","parameterCategory":1,"la1":31.0,"la2":29.5877,"lo1":-88.7671,"lo2":-86.6584,"dy":0.0162,"dx":0.0185,"nx":115,"ny":88,"refTime":"2023-03-28T06:00:00:Z","depth":0,"parameterNumber":3,"parameterNumberName":"V-component_of_WINDS"},"data":[0.0,0.0,0.0,0.0,0.0,0.0,0.0,0.0,0.0,0.0,0.0,0.0,0.0,0.0,0.0,0.0,0.0,0.0,0.0,0.0,0.0,0.0,0.0,0.0,0.0,0.0,0.0,0.0,0.0,0.0,0.0,0.0,0.0,0.0,0.0,0.0,0.0,0.0,0.0,0.0,0.0,0.0,0.0,0.0,0.0,0.0,0.0,0.0,0.0,0.0,0.0,0.0,0.0,0.0,0.0,0.0,0.0,0.0,0.0,0.0,0.0,0.0,0.0,0.0,0.0,0.0,0.0,0.0,0.0,0.0,0.0,0.0,0.0,0.0,0.0,0.0,0.0,0.0,0.0,0.0,0.0,0.0,0.0,0.0,0.0,0.0,0.0,0.0,0.0,0.0,0.0,0.0,0.0,0.0,0.0,0.0,0.0,0.0,0.0,0.0,0.0,0.0,0.0,0.0,0.0,0.0,0.0,0.0,0.0,0.0,0.0,0.0,0.0,0.0,0.0,0.0,0.0,0.0,0.0,0.0,0.0,0.0,0.0,0.0,0.0,0.0,0.0,0.0,0.0,0.0,0.0,0.0,0.0,0.0,0.0,0.0,0.0,0.0,0.0,0.0,0.0,0.0,0.0,0.0,0.0,0.0,0.0,0.0,0.0,0.0,0.0,0.0,0.0,0.0,0.0,0.0,0.0,0.0,0.0,0.0,0.0,0.0,0.0,0.0,0.0,0.0,0.0,0.0,0.0,0.0,0.0,0.0,0.0,0.0,0.0,0.0,0.0,0.0,0.0,0.0,0.0,0.0,0.0,0.0,0.0,0.0,0.0,0.0,0.0,0.0,0.0,0.0,0.0,0.0,0.0,0.0,0.0,0.0,0.0,0.0,0.0,0.0,0.0,0.0,0.0,0.0,0.0,0.0,0.0,0.0,0.0,0.0,0.0,0.0,0.0,0.0,0.0,0.0,0.0,0.0,0.0,0.0,0.0,0.0,0.0,0.0,0.0,0.0,0.0,0.0,0.0,0.0,0.0,0.0,0.0,0.0,0.0,0.0,0.0,0.0,0.0,0.0,0.0,0.0,0.0,0.0,0.0,0.0,0.0,0.0,0.0,0.0,0.0,0.0,0.0,0.0,0.0,0.0,0.0,0.0,0.0,0.0,0.0,0.0,0.0,0.0,0.0,0.0,0.0,0.0,0.0,0.0,0.0,0.0,0.0,0.0,0.0,0.0,0.0,0.0,0.0,0.0,0.0,0.0,0.0,0.0,0.0,0.0,0.0,0.0,0.0,0.0,0.0,0.0,0.0,0.0,0.0,0.0,0.0,0.0,0.0,0.0,0.0,0.0,0.0,0.0,0.0,0.0,0.0,0.0,0.0,0.0,0.0,0.0,0.0,0.0,0.0,0.0,0.0,0.0,0.0,0.0,0.0,0.0,0.0,0.0,0.0,0.0,0.0,0.0,0.0,0.0,0.0,0.0,0.0,0.0,0.0,0.0,0.0,0.0,0.0,0.0,0.0,0.0,0.0,0.0,0.0,0.0,0.0,0.0,0.0,0.0,0.0,0.0,0.0,0.0,0.0,0.0,0.0,0.0,0.0,0.0,0.0,0.0,0.0,0.0,0.0,0.0,0.0,0.0,0.0,0.0,0.0,0.0,0.0,0.0,0.0,0.0,0.0,0.0,0.0,0.0,0.0,0.0,0.0,0.0,0.0,0.0,0.0,0.0,0.0,0.0,0.0,0.0,0.0,0.0,0.0,0.0,0.0,0.0,0.0,0.0,0.0,0.0,0.0,0.0,0.0,0.0,0.0,0.0,0.0,0.0,0.0,0.0,0.0,0.0,0.0,0.0,0.0,0.0,0.0,0.0,0.0,0.0,0.0,0.0,0.0,0.0,0.0,0.0,0.0,0.0,0.0,0.0,0.0,0.0,0.0,0.0,0.0,0.0,0.0,0.0,0.0,0.0,0.0,0.0,0.0,0.0,0.0,0.0,0.0,0.0,0.0,0.0,0.0,0.0,0.0,0.0,0.0,0.0,0.0,0.0,0.0,0.0,0.0,0.0,0.0,0.0,0.0,0.0,0.0,0.0,0.0,0.0,0.0,0.0,0.0,0.0,0.0,0.0,0.0,0.0,0.0,0.0,0.0,0.0,0.0,0.0,0.0,0.0,0.0,0.0,0.0,0.0,0.0,0.0,0.0,0.0,0.0,0.0,0.0,0.0,0.0,0.0,0.0,0.0,0.0,0.0,0.0,0.0,0.0,0.0,0.0,0.0,0.0,0.0,0.0,0.0,0.0,0.0,0.0,0.0,0.0,0.0,0.0,0.0,0.0,0.0,0.0,0.0,0.0,0.0,0.0,0.0,0.0,0.0,0.0,0.0,0.0,0.0,0.0,0.0,0.0,0.0,0.0,0.0,0.0,0.0,0.0,0.0,0.0,0.0,0.0,0.0,0.0,0.0,0.0,0.0,0.0,0.0,0.0,0.0,0.0,0.0,0.0,0.0,0.0,0.0,0.0,0.0,0.0,0.0,0.0,0.0,0.0,0.0,0.0,0.0,0.0,0.0,0.0,0.0,0.0,0.0,0.0,0.0,0.0,0.0,0.0,0.0,0.0,0.0,0.0,0.0,0.0,0.0,0.0,0.0,0.0,0.0,0.0,0.0,0.0,0.0,0.0,0.0,0.0,0.0,0.0,0.0,0.0,0.0,0.0,0.0,0.0,0.0,0.0,0.0,0.0,0.0,0.0,0.0,0.0,0.0,0.0,0.0,0.0,0.0,0.0,0.0,0.0,0.0,0.0,0.0,0.0,0.0,0.0,0.0,0.0,0.0,0.0,0.0,0.0,0.0,0.0,0.0,0.0,0.0,0.0,0.0,0.0,0.0,0.0,0.0,0.0,0.0,0.0,0.0,0.0,0.0,0.0,0.0,0.0,0.0,0.0,0.0,0.0,0.0,0.0,0.0,0.0,0.0,0.0,0.0,0.0,0.0,0.0,0.0,0.0,0.0,0.0,0.0,0.0,0.0,0.0,0.0,0.0,0.0,0.0,0.0,0.0,0.0,0.0,0.0,0.0,0.0,0.0,0.0,0.0,0.0,0.0,0.0,0.0,0.0,0.0,0.0,0.0,0.0,0.0,0.0,0.0,0.0,0.0,0.0,0.0,0.0,0.0,0.0,0.0,0.0,0.0,0.0,0.0,0.0,0.0,0.0,0.0,0.0,0.0,0.0,0.0,0.0,0.0,0.0,0.0,0.0,0.0,0.0,0.0,0.0,0.0,0.0,0.0,0.0,0.0,0.0,0.0,0.0,0.0,0.0,0.0,0.0,0.0,0.0,0.0,0.0,0.0,0.0,0.0,0.0,0.0,0.0,0.0,0.0,0.0,0.0,0.0,0.0,0.0,0.0,0.0,0.0,0.0,0.0,0.0,0.0,0.0,0.0,0.0,0.0,0.0,0.0,0.0,0.0,0.0,0.0,0.0,0.0,0.0,0.0,0.0,0.0,0.0,0.0,0.0,0.0,0.0,0.0,0.0,0.0,0.0,0.0,0.0,0.0,0.0,0.0,0.0,0.0,0.0,0.0,0.0,0.0,0.0,0.0,0.0,0.0,0.0,0.0,0.0,0.0,0.0,0.0,0.0,0.0,0.0,0.0,0.0,0.0,0.0,0.0,0.0,0.0,0.0,0.0,0.0,0.0,0.0,0.0,0.0,0.0,0.0,0.0,0.0,0.0,0.0,0.0,0.0,0.0,0.0,0.0,0.0,0.0,0.0,0.0,0.0,0.0,0.0,0.0,0.0,0.0,0.0,0.0,0.0,0.0,0.0,0.0,0.0,0.0,0.0,0.0,0.0,0.0,0.0,0.0,0.0,0.0,0.0,0.0,0.0,0.0,0.0,0.0,0.0,0.0,0.0,0.0,0.0,0.0,0.0,0.0,0.0,0.0,0.0,0.0,0.0,0.0,0.0,0.0,0.0,0.0,0.0,0.0,0.0,0.0,0.0,0.0,0.0,0.0,0.0,0.0,0.0,0.0,0.0,0.0,0.0,0.0,0.0,0.0,0.0,0.0,0.0,0.0,0.0,0.0,0.0,0.0,0.0,0.0,0.0,0.0,0.0,0.0,0.0,0.0,0.0,0.0,0.0,0.0,0.0,0.0,0.0,0.0,0.0,0.0,0.0,0.0,0.0,0.0,0.0,0.0,0.0,0.0,0.0,0.0,0.0,0.0,0.0,0.0,0.0,0.0,0.0,0.0,0.0,0.0,0.0,0.0,1.1568,0.0,0.0,0.0,0.0,0.0,0.0,0.0,0.0,0.0,0.0,0.0,0.0,0.0,0.0,0.0,0.0,0.0,0.0,0.0,0.0,0.0,0.0,0.0,0.0,0.0,0.0,0.0,0.0,0.0,0.0,0.0,0.0,0.0,0.0,0.0,0.0,0.0,0.0,0.0,0.0,0.0,0.0,0.0,0.0,0.0,0.0,0.0,0.0,0.0,0.0,0.0,0.0,0.0,0.0,0.0,0.0,0.0,0.0,0.0,0.0,0.0,0.0,0.0,0.0,0.0,0.0,0.0,0.0,0.0,0.0,0.0,0.0,0.0,0.0,0.0,0.0,0.0,0.0,0.0,0.0,0.0,0.0,0.0,0.0,0.0,0.0,0.0,0.0,0.0,0.0,0.0,0.0,0.0,0.0,0.0,0.0,0.0,0.0,0.0,0.0,0.0,0.0,0.0,0.0,0.0,0.0,0.0,0.0,0.0,0.0,1.1859,1.161,1.141,1.1133,1.0905,0.0,0.0,0.0,0.0,0.0,0.0,0.0,0.0,0.0,0.0,0.0,0.0,0.0,0.0,0.0,0.0,0.0,0.0,0.0,0.0,0.0,0.0,0.0,0.0,0.0,0.0,0.0,0.0,0.0,0.0,0.0,0.0,0.0,0.0,0.0,0.0,0.0,0.0,0.0,0.0,0.0,0.0,0.0,0.0,0.0,0.0,0.0,0.0,0.0,0.0,0.0,0.0,0.0,0.0,0.0,0.0,0.0,0.0,0.0,0.0,0.0,0.0,0.0,0.0,0.0,0.0,0.0,0.0,0.0,0.0,0.0,0.0,0.0,0.0,0.0,0.0,0.0,0.0,0.0,0.0,0.0,0.0,0.0,0.0,0.0,0.0,0.0,0.0,0.0,0.0,0.0,0.0,0.0,0.0,0.0,0.0,0.0,0.0,0.0,0.0,0.0,0.0,0.0,0.0,0.0,0.0,0.0,0.0,0.0,0.0,0.0,0.0,1.0617,1.0438,1.0395,0.0,0.0,0.0,0.0,0.0,0.0,0.0,0.0,0.0,0.0,0.0,0.0,0.0,0.0,0.0,0.0,0.0,0.0,0.0,0.0,0.0,0.0,0.0,0.0,0.0,0.0,0.0,0.0,0.0,0.0,0.0,0.0,0.0,0.0,0.0,0.0,0.0,0.0,0.0,0.0,0.0,0.0,0.0,0.0,0.0,0.0,0.0,0.0,0.0,0.0,0.0,0.0,0.0,0.0,0.0,0.0,0.0,0.0,0.0,0.0,0.0,0.0,0.0,0.0,0.0,0.0,0.0,0.0,0.0,0.0,0.0,0.0,0.0,0.0,0.0,0.0,0.0,0.0,0.0,0.0,0.0,0.0,0.0,0.0,0.0,0.0,0.0,0.0,0.0,0.0,0.0,0.0,0.0,0.0,0.0,0.0,0.0,0.0,0.0,0.0,0.0,0.0,0.0,0.0,0.0,0.0,0.0,0.0,0.0,0.0,1.0593,1.0115,1.0072,0.0,0.9718,0.0,0.0,0.0,0.0,0.0,0.0,0.0,0.0,0.0,0.0,0.0,0.0,0.0,0.0,0.0,0.0,0.0,0.0,0.0,0.0,0.0,0.0,0.0,0.0,0.0,0.0,0.0,0.0,0.0,0.0,0.0,0.0,0.0,0.0,0.0,0.0,0.0,0.0,0.0,0.0,0.0,0.0,0.0,0.0,0.0,0.0,0.0,0.0,0.0,0.0,0.0,0.0,0.0,0.0,0.0,0.0,0.0,0.0,0.0,0.0,0.0,0.0,0.0,0.0,0.0,0.0,0.0,0.0,0.0,0.0,0.0,0.0,0.0,0.0,0.0,0.0,0.0,0.0,0.0,0.0,0.0,0.0,0.0,0.0,0.0,0.0,0.0,0.0,0.0,0.0,0.0,0.0,0.0,0.0,0.0,0.0,0.0,0.0,0.0,0.0,0.0,0.0,0.0,0.0,0.0,0.0,0.0,0.0,0.0,0.0,0.9736,0.9536,0.9614,0.964,0.0,0.0,0.0,0.0,0.0,0.0,0.0,0.0,0.0,0.0,0.0,0.0,0.0,0.0,0.0,0.0,0.0,0.0,0.0,0.0,0.0,0.0,0.0,0.0,0.0,0.0,0.0,0.0,0.0,0.0,0.0,0.0,0.0,0.0,0.0,0.0,0.0,0.0,0.0,0.0,0.0,0.0,0.0,0.0,0.0,0.0,0.0,0.0,0.0,0.0,0.0,0.0,0.0,0.0,0.0,0.0,0.0,0.0,0.0,0.0,0.0,0.0,0.0,0.0,0.0,0.0,0.0,0.0,0.0,0.0,0.0,0.0,0.0,0.0,0.0,0.0,0.0,0.0,0.0,0.0,0.0,0.0,0.0,0.0,0.0,0.0,0.0,0.0,0.0,0.0,0.0,0.0,0.0,0.0,0.0,0.0,0.0,0.0,0.0,0.0,0.0,0.0,0.0,0.0,0.0,0.0,0.0,0.0,0.0,0.0,0.9226,0.9178,0.9204,0.933,0.941,0.9376,0.0,0.0,0.0,0.0,0.0,0.0,0.0,0.0,0.0,0.0,0.0,0.0,0.0,0.0,0.0,0.0,0.0,0.0,0.0,0.0,0.0,0.0,0.0,0.0,0.0,0.0,0.0,0.0,0.0,0.0,0.0,0.0,0.0,0.0,0.0,0.0,0.0,0.0,0.0,0.0,0.0,0.0,0.0,0.0,0.0,0.0,0.0,0.0,0.0,0.0,0.0,0.0,0.0,0.0,0.0,0.0,0.0,0.0,0.0,0.0,0.0,0.0,0.0,0.0,0.0,0.0,0.0,0.0,0.0,0.0,0.0,0.0,0.0,0.0,0.0,0.0,0.0,0.0,0.0,0.0,0.0,0.0,0.0,0.0,0.0,0.0,0.0,0.0,0.0,0.0,0.0,0.0,0.0,0.0,0.0,0.0,0.0,0.0,0.0,0.0,0.0,0.0,0.0,0.0,0.0,0.0,0.0,0.0,0.9655,0.9359,0.9191,0.9191,0.9329,0.9212,0.0,0.0,0.0,0.0,0.0,0.0,0.0,0.0,0.0,0.0,0.0,0.0,0.0,0.0,0.0,0.0,0.0,0.0,0.0,0.0,0.0,0.0,0.0,0.0,0.0,0.0,0.0,0.0,0.0,0.0,0.0,0.0,0.0,0.0,0.0,0.0,0.0,0.0,0.0,0.0,0.0,0.0,0.0,0.0,0.0,0.0,0.0,0.0,0.0,0.0,0.0,0.0,0.0,0.0,0.0,0.0,0.0,0.0,0.0,0.0,0.0,0.0,0.0,0.0,0.0,0.0,0.0,0.0,0.0,0.0,0.0,0.0,0.0,0.0,0.0,0.0,0.0,0.0,0.0,0.0,0.0,0.0,0.0,0.0,0.0,0.0,0.0,0.0,0.0,0.0,0.0,0.0,0.0,0.0,0.0,0.0,0.0,0.0,0.0,0.0,0.0,0.0,0.0,0.0,0.0,0.0,0.0,0.0,0.0,0.9499,0.8968,0.863,0.8515,0.8429,0.8298,0.0,0.0,0.0,0.0,0.0,0.0,0.0,0.0,0.0,0.0,0.0,0.0,0.0,0.0,0.0,0.0,0.0,0.0,0.0,0.0,0.0,0.0,0.0,0.0,0.0,0.0,0.0,0.0,0.0,0.0,0.0,0.0,0.0,0.0,0.0,0.0,0.0,0.0,0.0,0.0,0.0,0.0,0.0,0.0,0.0,0.0,0.0,0.0,0.0,0.0,0.0,0.0,0.0,0.0,0.0,0.0,0.0,0.0,0.0,0.0,0.0,0.0,0.0,0.0,0.0,0.0,0.0,0.0,0.0,0.0,0.0,0.0,0.0,0.0,0.0,0.0,0.0,0.0,0.0,0.0,0.0,0.0,0.0,0.0,0.0,0.0,0.0,0.0,0.0,0.0,0.0,0.0,0.0,0.0,0.0,0.0,0.0,0.0,0.0,0.0,0.0,0.0,0.0,0.0,0.0,0.0,0.0,0.0,0.0,0.9472,0.0,0.8753,0.834,0.8147,0.7947,0.0,0.0,0.0,0.0,0.0,0.0,0.0,0.0,0.0,0.0,0.0,0.0,0.0,0.0,0.0,0.0,0.0,0.0,0.0,0.0,0.0,0.0,0.0,0.0,0.0,0.0,0.0,0.0,0.0,0.0,0.0,0.0,0.0,0.0,0.0,0.0,0.0,0.0,0.0,0.0,0.0,0.0,0.0,0.0,0.0,0.0,0.0,0.0,0.0,0.0,0.0,0.0,0.0,0.0,0.0,0.0,0.0,0.0,0.0,0.0,0.0,0.0,0.0,0.0,0.0,0.0,0.0,0.0,0.0,0.0,0.0,0.0,0.0,0.0,0.0,0.0,0.0,0.0,0.0,0.0,0.0,0.0,0.0,0.0,0.0,0.0,0.0,0.0,0.0,0.0,0.0,0.0,0.0,0.0,0.0,0.0,0.0,0.0,0.0,0.0,0.0,0.0,0.0,0.0,0.0,0.0,0.0,0.0,1.0064,0.9635,0.98,0.9493,0.8819,0.861,0.8173,0.0,0.0,0.0,0.0,0.0,0.0,0.0,0.0,0.0,0.0,0.0,0.0,0.0,0.0,0.0,0.0,0.0,0.0,0.0,0.0,0.0,0.0,0.0,0.0,0.0,0.0,0.0,0.0,0.0,0.0,0.0,0.0,0.0,0.0,0.0,0.0,0.0,0.0,0.0,0.0,0.0,0.0,0.0,0.0,0.0,0.0,0.0,0.0,0.0,0.0,0.0,0.0,0.0,0.0,0.0,0.0,0.0,0.0,0.0,0.0,0.0,0.0,0.0,0.0,0.0,0.0,0.0,0.0,0.0,0.0,0.0,0.0,0.0,0.0,0.0,0.0,0.0,0.0,0.0,0.0,0.0,0.0,0.0,0.0,0.0,0.0,0.0,0.0,0.0,0.0,0.0,0.0,0.0,0.0,0.0,0.0,0.0,0.0,0.0,0.0,0.0,0.0,0.0,0.0,0.0,0.0,0.0,0.0,0.0,0.9712,0.9372,0.8998,0.8595,0.7975,0.7514,0.0,0.0,0.0,0.0,0.0,0.0,0.0,0.0,0.0,0.0,0.0,0.0,0.0,0.0,0.0,0.0,0.0,0.0,0.0,0.0,0.0,0.0,0.0,0.0,0.0,0.0,0.0,0.0,0.0,0.0,0.0,0.0,0.0,0.0,0.0,0.0,0.0,0.0,0.0,0.0,0.0,0.0,0.0,0.0,0.0,0.0,0.0,0.0,0.0,0.0,0.0,0.0,0.0,0.0,0.0,0.0,0.0,0.0,0.0,0.0,0.0,0.0,0.0,0.0,0.0,0.0,0.0,0.0,0.0,0.0,0.0,0.0,0.0,0.0,0.0,0.0,0.0,0.0,0.0,0.0,0.0,0.0,0.0,0.0,0.0,0.0,0.0,0.0,0.0,0.0,0.0,0.0,0.0,0.0,0.0,0.0,0.0,0.0,0.0,0.0,0.0,0.0,0.0,0.0,0.0,0.0,0.0,0.0,0.0,1.0069,0.9263,0.886,0.8901,0.7777,0.7185,0.7186,0.0,0.0,0.0,0.0,0.0,0.0,0.0,0.0,0.0,0.0,0.0,0.0,0.0,0.0,0.0,0.0,0.0,0.0,0.0,0.0,0.0,0.0,0.0,0.0,0.0,0.0,0.0,0.0,0.0,0.0,0.0,0.0,0.0,0.0,0.0,0.0,0.0,0.0,0.0,0.0,0.0,0.0,0.0,0.0,0.0,0.0,0.0,0.0,0.0,0.0,0.0,0.0,0.0,0.0,0.0,0.0,0.0,0.0,0.0,0.0,0.0,0.0,0.0,0.0,0.0,0.0,0.0,0.0,0.0,0.0,0.0,0.0,0.0,0.0,0.0,0.0,0.0,0.0,0.0,0.0,0.0,0.0,0.0,0.0,0.0,0.0,0.0,0.0,0.0,0.0,0.0,0.0,0.0,0.0,0.0,0.0,0.0,0.0,0.0,0.0,0.0,0.0,0.0,0.0,0.0,0.0,0.0,0.0,1.0653,0.9576,0.9224,0.9659,0.8068,0.7216,0.0,0.0,0.0,0.0,0.0,0.0,0.0,0.0,0.0,0.0,0.0,0.0,0.0,0.0,0.0,0.0,0.0,0.0,0.0,0.0,0.0,0.0,0.0,0.0,0.0,0.0,0.0,0.0,0.0,0.0,0.0,0.0,0.0,0.0,0.0,0.0,0.0,0.0,0.0,0.0,0.0,0.0,0.0,0.0,0.0,0.0,0.0,0.0,0.0,0.0,0.0,0.0,0.0,0.0,0.0,0.0,0.0,0.0,0.0,0.0,0.0,0.0,0.0,0.0,0.0,0.0,0.0,0.0,0.0,0.0,0.0,0.0,0.0,0.0,0.0,0.0,0.0,0.0,0.0,0.0,0.0,0.0,0.0,0.0,0.0,0.0,0.0,0.0,0.0,0.0,0.0,0.0,0.0,0.0,0.0,0.0,0.0,0.0,0.0,0.0,0.0,0.0,0.0,0.0,0.0,0.0,0.0,0.0,0.0,1.1138,1.0438,1.0259,1.0655,0.9177,0.8384,0.0,0.0,0.0,0.0,0.0,0.0,0.0,0.0,0.0,0.0,0.0,0.0,0.0,0.0,0.0,0.0,0.0,0.0,0.0,0.0,0.0,0.0,0.0,0.0,0.0,0.0,0.0,0.0,0.0,0.0,0.0,0.0,0.0,0.0,0.0,0.0,0.0,0.0,0.0,0.0,0.0,0.0,0.0,0.0,0.0,0.0,0.0,0.0,0.0,0.0,0.0,0.0,0.0,0.0,0.0,0.0,0.0,0.0,0.0,0.0,0.0,0.0,0.0,0.0,0.0,0.0,0.0,0.0,0.0,0.0,0.0,0.0,0.0,0.0,0.0,0.0,0.0,0.0,0.0,0.0,0.0,0.0,0.0,0.0,0.0,0.0,0.0,0.0,0.0,0.0,0.0,0.0,0.0,0.0,0.0,0.0,0.0,0.0,0.0,0.0,0.0,0.0,0.0,0.0,0.0,0.0,0.0,0.0,1.1359,1.1471,1.1569,1.1642,1.1787,0.9884,0.8862,0.0,0.0,0.0,0.0,0.0,0.0,0.0,0.0,0.0,0.0,0.0,0.0,0.0,0.0,0.0,0.0,0.0,0.0,0.0,0.0,0.0,0.0,0.0,0.0,0.0,0.0,0.0,0.0,0.0,0.0,0.0,0.0,0.0,0.0,0.0,0.0,0.0,0.0,0.0,0.0,0.0,0.0,0.0,0.0,0.0,0.0,0.0,0.0,0.0,0.0,0.0,0.0,0.0,0.0,0.0,0.0,0.0,0.0,0.0,0.0,0.0,0.0,0.0,0.0,0.0,0.0,0.0,0.0,0.0,0.0,0.0,0.0,0.0,0.0,0.0,0.0,0.0,0.0,0.0,0.0,0.0,0.0,0.0,0.0,0.0,0.0,0.0,0.0,0.0,0.0,0.0,0.0,0.0,0.0,0.0,0.0,0.0,0.0,0.0,0.0,0.0,0.0,0.0,0.0,0.0,0.0,0.0,0.0,1.1943,1.1752,1.2647,1.3009,1.2674,1.0401,0.9045,0.0,0.0,0.0,0.0,0.0,0.0,0.0,0.0,0.0,0.0,0.0,0.0,0.0,0.0,0.0,0.0,0.0,0.0,0.0,0.0,0.0,0.0,0.0,0.0,0.0,0.0,0.0,0.0,0.0,0.0,0.0,0.0,0.0,0.0,0.0,0.0,0.0,0.0,0.0,0.0,0.0,0.0,0.0,0.0,0.0,0.0,0.0,0.0,0.0,0.0,0.0,0.0,0.0,0.0,0.0,0.0,0.0,0.0,0.0,0.0,0.0,0.0,0.0,0.0,0.0,0.0,0.0,0.0,0.0,0.0,0.0,0.0,0.0,0.0,0.0,0.0,0.0,0.0,0.0,0.0,0.0,0.0,0.0,0.0,0.0,0.0,0.0,0.0,0.0,0.0,0.0,0.0,0.0,0.0,0.0,0.0,0.0,0.0,0.0,0.0,0.0,0.0,0.0,0.0,0.0,0.0,0.0,0.0,1.2569,1.2622,1.3089,1.3222,1.3003,1.1083,0.9836,0.0,0.0,0.0,0.0,0.0,0.0,0.0,0.0,0.0,0.0,0.0,0.0,0.0,0.0,0.0,0.0,0.0,0.0,0.0,0.0,0.0,0.0,0.0,0.0,0.0,0.0,0.0,0.0,0.0,0.0,0.0,0.0,0.0,0.0,0.0,0.0,0.0,0.0,0.0,0.0,0.0,0.0,0.0,0.0,0.0,0.0,0.0,0.0,1.1407,0.0,0.0,0.0,0.0,0.0,0.0,0.0,0.0,0.0,0.0,0.0,0.0,0.0,0.0,0.0,0.0,0.0,0.0,0.0,0.0,0.0,0.0,0.0,0.0,0.0,0.0,0.0,0.0,0.0,0.0,0.0,0.0,0.0,0.0,0.0,0.0,0.0,0.0,0.0,0.0,0.0,0.0,0.0,0.0,0.0,0.0,0.0,0.0,0.0,0.0,0.0,0.0,0.0,0.0,0.0,0.0,0.0,0.0,0.0,1.2969,1.2923,1.3319,1.344,1.3197,1.2046,1.0802,0.0,0.0,0.0,0.0,0.0,0.0,0.0,0.0,0.0,0.0,0.0,0.0,0.0,0.0,0.0,0.0,0.0,0.0,0.0,0.0,0.0,0.0,0.0,0.0,0.0,0.0,0.0,0.0,0.0,0.0,0.0,0.0,0.0,0.0,0.0,0.0,0.0,0.0,0.0,0.0,0.0,0.0,0.0,0.0,0.0,0.0,0.0,0.0,0.0,0.0,0.0,0.0,0.0,0.0,0.0,0.0,0.0,0.0,0.0,0.0,0.0,0.0,0.0,0.0,0.0,0.0,0.0,0.0,0.0,0.0,0.0,0.0,0.0,0.0,0.0,0.0,0.0,0.0,0.0,0.0,0.0,0.0,0.0,0.0,0.0,0.0,0.0,0.0,0.0,0.0,0.0,0.0,0.0,0.0,0.0,0.0,0.0,0.0,0.0,0.0,0.0,0.0,0.0,0.0,0.0,0.0,0.0,1.3281,1.3236,1.3127,1.3531,1.3652,1.3434,1.2939,1.1718,0.9787,0.0,0.0,0.0,0.0,0.0,0.0,0.0,0.0,0.0,0.0,0.0,0.0,0.0,0.0,0.0,0.0,0.0,0.0,0.0,0.0,0.0,0.0,0.0,0.0,0.0,0.0,0.0,0.0,0.0,0.0,0.0,0.0,0.0,0.0,0.0,0.0,0.0,0.0,1.5752,1.5508,0.0,0.0,0.0,0.0,0.0,0.0,0.0,0.0,1.2622,0.0,0.0,0.0,0.0,0.0,0.0,0.0,0.0,0.0,0.0,0.0,0.0,0.0,0.0,0.0,0.0,0.0,0.0,0.0,0.0,0.0,0.0,0.0,0.0,0.0,0.0,0.0,0.0,0.0,0.0,0.0,0.0,0.0,0.0,0.0,0.0,0.0,0.0,0.0,0.0,0.0,0.0,0.0,0.0,0.0,0.0,0.0,0.0,0.0,0.0,0.0,0.0,0.0,0.0,0.0,0.0,1.4539,1.3763,1.3477,1.3915,1.3993,1.3913,1.3633,1.3108,1.1986,1.0197,0.0,0.0,0.0,0.0,0.0,0.0,0.0,0.0,0.0,0.0,0.0,0.0,0.0,0.0,0.0,0.0,0.0,0.0,0.0,0.0,0.0,0.0,0.0,0.0,0.0,0.0,0.0,0.0,0.0,0.0,0.0,0.0,0.0,0.0,0.0,0.0,0.0,0.0,0.0,1.6936,1.6468,0.0,0.0,0.0,0.0,0.0,0.0,0.0,0.0,1.2272,0.0,0.0,0.0,0.0,0.0,0.0,0.0,0.0,0.0,0.0,0.0,0.0,0.0,0.0,0.0,0.0,0.0,0.0,0.0,0.0,0.0,0.0,0.0,0.0,0.0,0.0,0.0,0.0,0.0,0.0,0.0,0.0,0.0,0.0,0.0,0.0,0.0,0.0,0.0,0.0,0.0,0.0,0.0,0.0,0.0,0.0,0.0,0.0,0.0,0.0,0.0,0.0,0.0,0.0,0.0,1.5086,1.4658,1.4545,1.474,1.4334,1.4039,1.3899,1.3352,1.2265,0.0,0.0,0.0,0.0,0.0,0.0,0.0,0.0,0.0,0.0,0.0,0.0,0.0,0.0,0.0,0.0,0.0,0.0,0.0,0.0,0.0,0.0,0.0,0.0,0.0,0.0,0.0,0.0,0.0,0.0,0.0,0.0,0.0,0.0,0.0,0.0,0.0,0.0,0.0,0.0,1.6709,1.6646,1.658,0.0,0.0,0.0,0.0,0.0,0.0,1.3123,1.2766,0.0,0.0,0.0,0.0,0.0,0.0,0.0,0.0,0.0,0.0,0.0,0.0,0.0,0.0,0.0,0.0,0.0,0.0,0.0,0.0,0.0,0.0,0.0,0.0,0.0,0.0,0.0,0.0,0.0,0.0,0.0,0.0,0.0,0.0,0.0,0.0,0.0,0.0,0.0,0.0,0.0,0.0,0.0,0.0,0.0,0.0,0.0,0.0,0.0,0.0,0.0,0.0,0.0,0.0,0.0,1.5704,1.5688,1.5599,1.5399,1.4699,1.4292,1.4075,1.34,1.2376,0.0,0.0,0.0,0.0,0.0,0.0,0.0,0.0,0.0,0.0,0.0,0.0,0.0,0.0,0.0,0.0,0.0,0.0,0.0,0.0,0.0,0.0,0.0,0.0,0.0,0.0,0.0,0.0,0.0,0.0,0.0,0.0,0.0,0.0,0.0,0.0,0.0,0.0,0.0,0.0,0.0,1.6779,1.6446,1.594,0.0,0.0,0.0,0.0,1.3707,1.3766,0.0,0.0,0.0,0.0,0.0,0.0,0.0,0.0,0.0,0.0,0.0,0.0,0.0,0.0,0.0,0.0,0.0,0.0,0.0,0.0,0.0,0.0,0.0,0.0,0.0,0.0,0.0,0.0,0.0,0.0,0.0,0.0,0.0,0.0,0.0,0.0,0.0,0.0,0.0,0.0,0.0,0.0,0.0,0.0,0.0,0.0,0.0,0.0,0.0,0.0,0.0,0.0,0.0,0.0,0.0,0.0,1.6885,1.651,1.6023,1.544,1.5311,1.4866,1.411,1.2999,1.2112,0.0,0.0,0.0,0.0,0.0,0.0,0.0,0.0,0.0,0.0,0.0,0.0,0.0,0.0,0.0,0.0,0.0,0.0,0.0,0.0,0.0,0.0,0.0,0.0,0.0,0.0,0.0,0.0,0.0,0.0,0.0,0.0,0.0,0.0,0.0,0.0,0.0,0.0,0.0,0.0,0.0,1.7642,1.715,1.6946,1.6383,0.0,0.0,1.5695,1.566,1.5564,0.0,0.0,0.0,0.0,0.0,0.0,0.0,0.0,0.0,0.0,0.0,0.0,0.0,0.0,0.0,0.0,0.0,0.0,0.0,0.0,0.0,0.0,0.0,0.0,0.0,0.0,0.0,0.0,0.0,0.0,0.0,0.0,0.0,0.0,0.0,0.0,0.0,0.0,0.0,0.0,0.0,0.0,0.0,0.0,0.0,0.0,0.0,0.0,0.0,0.0,0.0,0.0,0.0,0.0,0.0,1.8118,1.7825,1.7597,1.733,1.7033,1.6445,1.5718,1.4859,1.3659,1.2592,0.0,0.0,0.0,0.0,0.0,0.0,0.0,0.0,0.0,0.0,0.0,0.0,0.0,0.0,0.0,0.0,0.0,0.0,0.0,0.0,0.0,0.0,0.0,0.0,0.0,0.0,0.0,0.0,0.0,0.0,0.0,0.0,0.0,0.0,0.0,0.0,0.0,0.0,0.0,0.0,0.0,0.0,1.7223,1.7312,0.0,0.0,0.0,1.5486,1.4746,0.0,0.0,0.0,0.0,0.0,0.0,0.0,0.0,0.0,0.0,0.0,0.0,0.0,0.0,0.0,0.0,0.0,0.0,0.0,0.0,0.0,0.0,0.0,0.0,0.0,0.0,0.0,0.0,0.0,0.0,0.0,0.0,0.0,0.0,0.0,0.0,0.0,0.0,0.0,0.0,0.0,0.0,0.0,0.0,0.0,0.0,0.0,0.0,0.0,0.0,0.0,0.0,0.0,0.0,0.0,0.0,0.0,1.8605,1.8744,1.8669,1.8381,1.7585,1.6731,1.582,1.482,0.0,0.0,0.0,0.0,0.0,0.0,0.0,0.0,0.0,0.0,0.0,0.0,0.0,0.0,0.0,0.0,0.0,0.0,0.0,0.0,0.0,0.0,0.0,0.0,0.0,0.0,0.0,1.6017,0.0,0.0,0.0,0.0,0.0,0.0,0.0,0.0,0.0,0.0,0.0,0.0,0.0,0.0,1.8202,1.7166,1.7482,1.7445,0.0,0.0,1.5335,1.4614,1.5458,1.5459,0.0,0.0,0.0,0.0,0.0,0.0,0.0,0.0,0.0,0.0,0.0,0.0,0.0,0.0,0.0,0.0,0.0,0.0,0.0,0.0,0.0,0.0,0.0,0.0,0.0,0.0,0.0,0.0,0.0,0.0,0.0,0.0,0.0,0.0,0.0,0.0,0.0,0.0,0.0,0.0,0.0,0.0,0.0,0.0,0.0,0.0,0.0,0.0,0.0,0.0,0.0,0.0,0.0,0.0,0.0,1.9175,1.9803,1.9657,1.8638,1.8519,1.7948,1.6944,1.6442,1.5476,0.0,0.0,0.0,0.0,0.0,0.0,0.0,0.0,0.0,0.0,0.0,0.0,0.0,0.0,0.0,0.0,0.0,0.0,0.0,0.0,0.0,0.0,0.0,0.0,0.0,0.0,0.0,0.0,0.0,0.0,0.0,0.0,0.0,0.0,0.0,0.0,0.0,0.0,0.0,0.0,0.0,1.8337,1.7157,1.7731,1.8,0.0,0.0,1.6047,1.683,1.7142,1.6578,1.4522,0.0,0.0,0.0,0.0,0.0,0.0,0.0,0.0,0.0,0.0,0.0,0.0,0.0,0.0,0.0,0.0,0.0,0.0,0.0,0.0,0.0,0.0,0.0,0.0,0.0,0.0,0.0,0.0,0.0,0.0,0.0,0.0,0.0,0.0,0.0,0.0,0.0,0.0,0.0,0.0,0.0,0.0,0.0,0.0,0.0,0.0,0.0,0.0,0.0,0.0,0.0,0.0,0.0,1.9723,1.9578,2.0061,2.0098,1.9657,1.949,1.8957,1.802,1.7531,1.6507,0.0,0.0,0.0,0.0,0.0,0.0,0.0,0.0,0.0,0.0,0.0,0.0,0.0,0.0,0.0,0.0,0.0,0.0,0.0,0.0,0.0,0.0,0.0,0.0,0.0,0.0,0.0,0.0,1.8428,1.8259,1.7376,0.0,0.0,0.0,0.0,0.0,0.0,0.0,0.0,0.0,0.0,1.8856,1.8469,1.8653,0.0,0.0,1.7098,1.6487,1.6351,1.6548,1.6097,1.4308,1.3493,0.0,0.0,0.0,0.0,0.0,0.0,0.0,0.0,0.0,0.0,0.0,0.0,0.0,0.0,0.0,0.0,0.0,0.0,0.0,0.0,0.0,0.0,0.0,0.0,0.0,0.0,0.0,0.0,0.0,0.0,0.0,0.0,0.0,0.0,0.0,0.0,0.0,0.0,0.0,0.0,0.0,0.0,0.0,0.0,0.0,0.0,0.0,0.0,0.0,0.0,0.0,0.0,1.9805,1.9805,2.0213,2.0381,2.0381,2.0216,1.9814,1.9107,1.8781,1.7878,0.0,0.0,0.0,0.0,0.0,0.0,0.0,0.0,0.0,0.0,0.0,0.0,0.0,0.0,0.0,0.0,0.0,0.0,0.0,0.0,0.0,0.0,0.0,0.0,0.0,0.0,0.0,0.0,1.8773,1.8616,1.7874,0.0,0.0,0.0,0.0,0.0,0.0,0.0,0.0,0.0,0.0,1.9524,1.9253,1.909,1.8724,1.7996,1.6981,1.6167,1.5848,1.5861,1.5536,1.4362,0.0,0.0,0.0,0.0,0.0,0.0,0.0,0.0,0.0,0.0,0.0,0.0,0.0,0.0,0.0,0.0,0.0,0.0,0.0,0.0,0.0,0.0,0.0,0.0,0.0,0.0,0.0,0.0,0.0,0.0,2.3903,0.0,0.0,0.0,0.0,0.0,0.0,0.0,0.0,0.0,0.0,0.0,0.0,0.0,0.0,0.0,0.0,0.0,0.0,0.0,0.0,0.0,0.0,1.9831,1.9831,2.0355,2.0644,2.0605,2.0605,2.0489,2.0264,2.043,1.9793,1.8249,0.0,0.0,0.0,0.0,0.0,0.0,0.0,0.0,0.0,0.0,0.0,0.0,0.0,0.0,0.0,0.0,0.0,0.0,0.0,0.0,0.0,0.0,0.0,0.0,0.0,0.0,1.7204,1.7175,1.7554,0.0,0.0,0.0,0.0,0.0,0.0,0.0,0.0,0.0,0.0,1.9929,2.0393,1.9194,1.8738,1.8251,1.7361,1.579,1.4958,1.5738,1.5451,1.5078,0.0,0.0,0.0,0.0,0.0,0.0,0.0,0.0,0.0,0.0,0.0,0.0,0.0,0.0,0.0,0.0,0.0,0.0,0.0,0.0,0.0,0.0,0.0,0.0,0.0,0.0,0.0,2.5823,2.5484,0.0,0.0,0.0,0.0,0.0,0.0,0.0,0.0,0.0,0.0,0.0,2.7242,2.7455,0.0,0.0,0.0,0.0,0.0,0.0,0.0,0.0,0.0,0.0,0.0,0.0,2.0966,2.0676,2.1634,2.1956,2.1423,2.1385,2.1126,2.0537,2.0566,1.9937,1.8545,0.0,0.0,0.0,0.0,0.0,0.0,0.0,0.0,0.0,0.0,0.0,0.0,0.0,0.0,0.0,0.0,0.0,0.0,0.0,0.0,0.0,0.0,0.0,0.0,0.0,1.9309,0.0,0.0,0.0,0.0,0.0,0.0,0.0,0.0,0.0,0.0,0.0,1.8732,1.9413,1.9457,1.9598,2.0021,1.9372,1.9046,0.0,0.0,0.0,0.0,0.0,0.0,0.0,0.0,0.0,0.0,0.0,0.0,0.0,0.0,1.3749,1.2725,1.2695,1.2833,1.2833,0.0,0.0,0.0,0.0,0.0,0.0,0.0,0.0,0.0,0.0,0.0,0.0,0.0,0.0,2.7408,0.0,2.7326,0.0,0.0,0.0,0.0,0.0,0.0,0.0,0.0,2.914,2.9345,2.9154,2.9383,2.8925,0.0,2.7693,2.6518,0.0,0.0,0.0,0.0,0.0,0.0,0.0,0.0,2.1678,2.1326,2.2393,2.2723,2.2247,2.2209,2.1945,2.1461,2.1499,2.1062,2.0162,1.9425,1.9028,0.0,0.0,0.0,0.0,0.0,0.0,0.0,0.0,0.0,0.0,0.0,0.0,0.0,0.0,0.0,0.0,0.0,0.0,0.0,0.0,0.0,0.0,0.0,1.9388,0.0,0.0,0.0,0.0,0.0,0.0,0.0,0.0,0.0,1.8607,1.8931,1.9432,2.0051,1.989,1.9824,2.0145,0.0,0.0,0.0,0.0,0.0,0.0,0.0,1.5027,1.502,1.4854,1.483,1.5197,1.5232,1.5106,1.482,0.0,0.0,1.3793,1.3752,1.3884,1.3876,1.3884,1.3876,1.3884,1.4021,1.4093,0.0,0.0,0.0,0.0,0.0,0.0,0.0,0.0,2.9122,2.8457,0.0,2.8768,0.0,0.0,0.0,0.0,0.0,2.9715,0.0,0.0,3.2164,3.2598,3.1528,3.0863,3.0501,3.0365,2.8886,2.7994,2.761,2.579,0.0,0.0,0.0,0.0,0.0,0.0,2.2024,2.1953,2.2694,2.3106,2.3021,2.3032,2.3032,2.2984,2.3121,2.311,2.2988,2.23,2.2199,2.2526,2.0246,0.0,0.0,0.0,0.0,0.0,0.0,0.0,0.0,0.0,0.0,0.0,0.0,0.0,0.0,0.0,0.0,0.0,0.0,0.0,0.0,1.9326,0.0,0.0,0.0,0.0,0.0,0.0,0.0,0.0,0.0,0.0,1.8835,1.9506,2.0183,2.0494,0.0,0.0,0.0,0.0,1.9207,1.7492,1.6509,1.5948,1.5728,1.5737,1.6066,1.6787,0.0,0.0,1.7598,1.6501,1.5686,1.5589,1.5807,1.5802,1.5291,1.4804,1.4522,1.4522,1.4553,1.4475,1.4511,1.4892,1.515,3.074,0.0,0.0,0.0,0.0,2.9909,3.0557,3.1655,3.1641,3.119,3.0489,3.092,0.0,0.0,0.0,0.0,0.0,0.0,3.1315,3.197,3.2574,3.2804,3.2702,3.3081,3.2687,3.1629,3.1639,3.1185,3.0246,2.9656,2.766,2.4337,0.0,0.0,0.0,0.0,2.3637,2.3628,2.4413,2.4576,2.4011,2.4011,2.3793,2.3379,2.3415,2.3404,2.3379,2.3184,2.3035,2.2939,2.2248,0.0,0.0,0.0,0.0,0.0,0.0,0.0,0.0,0.0,0.0,0.0,0.0,0.0,0.0,0.0,0.0,0.0,0.0,0.0,1.9629,2.0385,2.0602,0.0,0.0,0.0,0.0,0.0,0.0,0.0,0.0,0.0,1.98,1.9416,1.9392,0.0,0.0,1.8748,1.8584,1.8913,1.9345,1.9779,1.8862,0.0,1.9469,1.8449,1.7619,1.7755,1.8169,1.8276,1.7457,1.7921,1.8183,1.742,1.7088,1.6916,1.6791,1.6371,1.6039,1.6055,1.6055,1.6055,1.6055,1.6174,1.6245,3.2721,3.1872,3.0924,3.089,3.1463,3.1497,3.2199,3.3398,3.3451,3.2949,3.213,3.2764,3.2008,3.0344,3.0598,0.0,0.0,0.0,3.2482,3.3384,3.3384,3.3468,3.3693,3.4182,3.3942,3.3066,3.3122,3.2807,3.2026,3.1314,2.9651,2.7025,0.0,0.0,2.3994,2.4435,2.4655,2.4655,2.5338,2.55,2.5004,2.5016,2.4826,2.4492,2.4528,2.4528,2.4456,2.4528,2.4448,2.4214,2.3828,2.3317,0.0,0.0,0.0,0.0,0.0,0.0,0.0,0.0,0.0,0.0,0.0,2.0666,2.0637,0.0,0.0,0.0,2.1452,2.1288,2.083,2.1416,0.0,0.0,0.0,0.0,0.0,0.0,0.0,1.9197,2.0633,2.1441,2.0807,2.0128,1.9867,2.0368,1.976,1.9242,1.9318,0.0,2.0345,2.0927,2.0168,1.986,2.065,1.9876,1.9153,1.9312,1.9561,1.9559,1.8948,1.9282,1.9323,1.8576,1.7861,1.7318,1.7147,1.6902,1.6689,1.6689,1.6689,1.6689,1.6689,1.6689,1.6689,3.4448,3.423,3.1985,3.1744,3.2814,3.2848,3.346,3.4448,3.4631,3.3959,3.2826,3.424,3.3448,3.1066,3.1575,0.0,3.2479,3.3235,3.3862,3.438,3.438,3.438,3.438,3.438,3.438,3.438,3.3638,3.3297,3.3192,3.1578,3.0644,3.0406,2.8692,2.7037,2.5569,2.5511,2.539,2.5234,2.5682,2.5896,2.591,2.591,2.5945,2.5945,2.6131,2.6119,2.5945,2.6131,2.6131,2.5921,2.5016,2.4439,2.4309,0.0,0.0,0.0,0.0,0.0,0.0,0.0,0.0,0.0,0.0,0.0,0.0,0.0,0.0,0.0,2.283,0.0,2.2834,2.2393,0.0,0.0,0.0,2.1127,2.1561,2.18,2.184,2.1592,0.0,0.0,2.1805,2.1399,2.1363,2.2006,2.1759,2.1387,2.1005,2.1475,2.1793,2.1197,2.0837,2.0557,2.0623,2.054,2.0663,2.1052,2.128,2.1191,2.1038,2.0391,1.9638,1.9164,1.8264,1.7432,1.6902,1.6902,1.6771,1.673,1.6689,1.6689,1.6689,1.6689,1.6689,3.4716,3.4601,3.4118,3.3941,3.4013,3.4148,3.4384,3.4631,3.4783,3.4659,3.4347,3.4736,3.4464,3.3758,3.3904,3.3951,3.3897,3.4124,3.4269,3.4414,3.438,3.438,3.438,3.438,3.438,3.4366,3.4182,3.4113,3.4099,3.3675,3.258,3.0954,3.0061,2.8603,2.6564,2.6795,2.6763,2.6297,2.611,2.6,2.6107,2.6131,2.6201,2.6361,2.6396,2.6396,2.6349,2.643,2.6396,2.6349,2.6108,2.571,2.5142,2.4226,0.0,0.0,0.0,0.0,0.0,0.0,0.0,0.0,0.0,2.2184,2.1067,0.0,2.2421,0.0,2.3901,2.4501,2.4043,2.3481,0.0,0.0,2.1989,2.1737,2.2364,2.32,2.334,2.224,2.3666,2.423,2.2871,2.2889,2.2971,2.2769,2.1648,2.0786,2.0728,2.1474,2.1937,2.1826,2.2074,2.2379,2.2237,2.1951,2.1705,2.1859,2.1873,2.1759,2.128,2.1001,2.0615,2.004,1.9332,1.8585,1.7829,1.7691,1.7448,1.6886,1.6689,1.6689,1.6689,1.6689,1.6689,3.5295,3.5213,3.4986,3.4802,3.465,3.4735,3.4783,3.4783,3.4968,3.5034,3.5049,3.5115,3.5082,3.4931,3.4916,3.4817,3.4616,3.4582,3.453,3.4515,3.4448,3.438,3.438,3.438,3.438,3.438,3.438,3.438,3.438,3.438,3.3787,3.2567,3.226,3.1059,2.898,2.7597,2.668,2.6192,2.6426,2.6798,2.7204,2.6939,2.6735,2.658,2.648,2.6265,2.5991,2.6189,2.6189,2.5978,2.5945,2.5793,2.5476,2.4621,2.4185,0.0,0.0,0.0,0.0,0.0,0.0,0.0,0.0,0.0,0.0,0.0,2.3781,2.3479,2.4817,2.535,2.4481,2.4375,2.4324,2.4242,2.3927,2.3951,2.4538,2.517,2.5272,2.4484,2.5504,2.5803,2.4548,2.4604,2.4437,2.3588,2.2711,2.2035,2.1773,2.2147,2.2451,2.2461,2.2763,2.3001,2.3001,2.274,2.2515,2.2515,2.2515,2.2392,2.2042,2.1787,2.1405,2.0847,2.0216,1.9629,1.9006,1.8767,1.8439,1.7674,1.7318,1.7123,1.6771,1.6689,1.6689,3.6094,3.6001,3.5473,3.516,3.5067,3.5086,3.5042,3.4968,3.5133,3.5213,3.5261,3.5439,3.5392,3.5213,3.518,3.5049,3.4868,3.475,3.4698,3.4664,3.4481,3.4448,3.438,3.438,3.438,3.438,3.438,3.438,3.438,3.438,3.4293,3.4148,3.4134,3.3216,3.1283,2.8251,2.6419,2.5871,2.6978,2.7818,2.8349,2.7722,2.7092,2.6575,2.6369,2.602,2.5447,2.5811,2.5829,2.5421,2.5421,2.551,2.5706,2.4602,2.4398,0.0,2.4332,0.0,0.0,0.0,0.0,0.0,0.0,0.0,0.0,2.5777,2.5744,2.4779,2.5659,2.5884,2.4913,2.5299,2.5801,2.6231,2.6308,2.6514,2.6942,2.7074,2.7108,2.7108,2.7175,2.696,2.6283,2.6252,2.5742,2.4612,2.4303,2.3935,2.3305,2.3021,2.2957,2.3001,2.3001,2.3001,2.3001,2.3001,2.2953,2.3001,2.2964,2.3001,2.2964,2.244,2.1939,2.1527,2.1019,2.0508,2.0051,1.9864,1.9511,1.8621,1.831,1.7876,1.6968,1.6689,1.6689,3.7069,3.6966,3.692,3.6544,3.5967,3.6116,3.5785,3.5148,3.5374,3.5439,3.5439,3.5472,3.5407,3.5195,3.5034,3.4883,3.4731,3.4698,3.4597,3.4448,3.4582,3.4563,3.4414,3.438,3.438,3.438,3.438,3.438,3.438,3.438,3.3825,3.2728,3.2713,3.1761,2.9971,0.0,0.0,0.0,2.8498,2.8538,2.7795,2.6903,2.6217,2.5753,2.6049,0.0,2.6029,2.6122,2.6122,2.6047,2.6016,0.0,0.0,0.0,0.0,0.0,0.0,0.0,0.0,0.0,0.0,0.0,2.6779,2.6521,2.615,2.626,2.6317,2.6277,2.6572,2.6895,2.7131,2.6887,2.6724,2.6827,2.6853,2.6891,2.6994,2.7377,2.7656,2.7643,2.8006,2.796,2.7157,2.6976,2.6603,2.5625,2.5463,2.511,2.4228,2.3497,2.3038,2.3001,2.3001,2.3001,2.3001,2.3001,2.3001,2.3001,2.3001,2.3001,2.2964,2.2526,2.2138,2.1977,2.1749,2.1308,2.0585,2.0624,2.0518,1.955,1.9323,1.8758,1.709,1.6689,1.6689,3.7863,0.0,3.752,3.7157,0.0,3.6907,3.6679,3.6253,3.5741,3.5489,3.5489,3.5489,3.5439,3.5359,3.5246,3.5148,3.5078,3.4983,3.4817,3.465,3.4698,3.4597,3.438,3.438,3.438,3.438,3.438,3.438,3.438,3.438,3.4013,3.3324,3.3324,3.2846,3.1954,3.2148,3.1435,2.9747,3.012,3.0182,2.9984,2.8885,2.8093,2.7606,2.7383,0.0,0.0,0.0,0.0,0.0,0.0,0.0,0.0,2.7177,0.0,2.7889,2.7682,2.767,2.7935,2.808,2.834,2.8801,2.8889,2.8471,2.7379,2.7555,2.7721,2.7637,2.7709,2.7876,2.8143,2.7941,2.7789,2.7776,2.7776,2.7776,2.7809,2.802,2.8183,2.8216,2.8411,2.8379,2.7815,2.7723,2.7358,2.6501,2.633,2.5951,2.4886,2.4131,2.357,2.3102,2.3001,2.3001,2.3001,2.3001,2.3001,2.3001,2.3001,2.3001,2.3001,2.274,2.2542,2.2553,2.244,2.2231,2.1869,2.1832,2.1603,2.075,2.0411,1.9894,1.8439,1.8046,1.7691,3.8962,3.8916,3.8337,3.805,3.7929,3.7809,3.7714,3.7485,0.0,0.0,0.0,3.5797,3.5701,3.5489,3.5587,3.5569,3.5439,3.5261,3.5148,3.5085,3.5016,3.4835,3.462,3.462,3.4534,3.4414,3.438,3.438,3.438,3.438,3.438,3.438,3.438,3.438,3.438,3.438,3.355,3.1934,3.1613,3.1772,3.2309,3.1098,3.015,2.9499,2.8884,2.8188,2.7501,2.7822,2.7865,2.7473,2.7443,2.7601,2.7904,2.7904,2.815,2.8584,2.8627,2.8914,2.9564,2.9608,2.9883,3.0583,3.0552,2.9974,2.8689,2.9028,2.9131,2.878,2.8716,2.8651,2.8587,2.8587,2.8587,2.8587,2.8587,2.8587,2.8587,2.8587,2.8554,2.8587,2.8587,2.8541,2.8365,2.8333,2.8078,2.7404,2.7237,2.6786,2.558,2.4696,2.3998,2.3669,2.3361,2.3038,2.3176,2.3065,2.3038,2.3001,2.3001,2.3001,2.3001,2.3001,2.3001,2.2964,2.3001,2.2964,2.2964,2.2777,2.2494,2.1756,2.1489,2.1068,2.0138,1.9816,1.9265,4.1037,4.1037,4.0976,4.0617,4.0003,3.9426,3.89,3.8269,3.7485,3.6826,3.6321,3.6875,3.6523,3.5522,3.591,3.5767,3.5261,3.5228,3.5394,3.5753,3.5943,3.58,3.5434,3.5449,3.5073,3.4448,3.4414,3.438,3.438,3.4414,3.438,3.438,3.438,3.4414,3.438,3.438,3.425,3.3945,3.2771,3.1997,3.1716,3.0763,2.9742,2.8741,2.8988,2.8781,2.8111,2.8154,2.814,2.8082,2.8068,2.8411,2.9115,2.9158,2.9491,3.0189,3.0277,3.032,3.0422,3.0451,3.0466,3.0568,3.031,3.0176,3.0241,3.0085,2.9834,2.9477,2.9162,2.8908,2.8651,2.8587,2.8587,2.8587,2.8587,2.8587,2.8587,2.8587,2.8587,2.8587,2.8587,2.8587,2.8554,2.8554,2.8476,2.8379,2.8137,2.7941,2.682,2.5052,2.4288,2.4684,2.3913,2.3386,2.3731,2.3386,2.3139,2.3001,2.3038,2.3001,2.3001,2.3001,2.3001,2.3001,2.3001,2.3001,2.3001,2.299,2.2804,2.2505,2.2381,2.2031,2.1106,2.1231,2.1001,4.1492,4.1492,4.1492,4.1336,4.1003,4.0723,4.0397,4.0103,3.9771,3.8841,3.7574,3.7454,3.7071,3.6585,3.6753,3.6692,3.6384,3.6384,3.6477,3.6554,3.6662,3.6538,3.626,3.626,3.6056,3.5691,3.5546,3.5335,3.5055,3.492,3.4687,3.4414,3.438,3.4534,3.482,3.482,3.482,3.4806,3.3933,3.333,3.3135,3.2357,3.1752,3.1214,3.1087,3.0659,2.9995,2.9996,2.9838,2.9506,2.9506,2.9651,3.0029,3.0058,3.0218,3.0583,3.0612,3.0612,3.0612,3.0612,3.0612,3.0612,3.0462,3.0431,3.0612,2.9974,2.9477,2.9334,2.9035,2.8794,2.8587,2.8587,2.8587,2.8587,2.8587,2.8587,2.8587,2.8587,2.8587,2.8587,2.8587,2.8587,2.8587,2.8587,2.8587,2.8587,2.8379,2.8072,2.7927,2.6364,2.5158,2.5392,2.4933,2.4636,2.4707,2.4204,2.3768,2.3621,2.325,2.3038,2.3001,2.3001,2.3001,2.3001,2.3001,2.3001,2.3001,2.3001,2.2964,2.2927,2.2852,2.2542,2.2155,2.209,2.1548,4.1981,4.1981,4.1981,4.1884,4.1754,4.1917,4.19,4.1743,4.1734,4.0855,3.9402,3.8462,3.7932,3.765,3.761,3.7546,3.7383,3.7383,3.7383,3.7383,3.7383,3.7279,3.7098,3.7084,3.6978,3.6797,3.6584,3.6275,3.5867,3.5578,3.5234,3.4802,3.4721,3.4953,3.5365,3.5365,3.535,3.5317,3.4953,3.4635,3.4399,3.392,3.3649,3.3474,3.2977,3.2411,3.1756,3.1567,3.1293,3.0829,3.0685,3.0612,3.0612,3.0612,3.0612,3.0612,3.0612,3.0612,3.0612,3.0612,3.0612,3.0612,3.0612,3.0612,3.0538,2.9744,2.9257,2.9257,2.9067,2.8844,2.8748,2.8651,2.8587,2.8587,2.8587,2.8587,2.8587,2.8587,2.8587,2.8587,2.8587,2.8587,2.8587,2.8587,2.8587,2.8522,2.8216,2.8183,2.8392,2.755,2.6752,2.6261,2.5938,2.565,2.5511,2.5004,2.46,2.4384,2.3779,2.3423,2.3276,2.3176,2.3001,2.3001,2.3001,2.3001,2.3001,2.3001,2.3001,2.3001,2.2964,2.2927,2.2654,2.244,2.1977,4.3402,4.3402,4.3355,4.3035,4.2569,4.3127,4.3017,4.2515,4.243,4.2336,4.1906,4.0722,3.9458,3.8464,3.83,3.7969,3.7472,3.7383,3.7706,3.8165,3.8193,3.8092,3.7901,3.795,3.7573,3.6934,3.6843,3.6813,3.6676,3.6399,3.6087,3.5785,3.5753,3.5769,3.5817,3.5849,3.5817,3.5817,3.5785,3.5317,3.4448,3.4356,3.4051,3.3518,3.3445,3.3079,3.2504,3.1845,3.1496,3.1395,3.0917,3.0612,3.0627,3.0612,3.0612,3.0612,3.0612,3.0612,3.0612,3.0612,3.0612,3.0612,3.0612,3.0612,3.0582,2.9974,2.9696,2.9865,2.9665,2.932,2.9081,2.878,2.8619,2.8587,2.8587,2.8587,2.8587,2.8587,2.8587,2.8587,2.8587,2.8587,2.8587,2.8587,2.8587,2.8587,2.8522,2.8457,2.8522,2.8379,2.8105,2.7683,2.6739,2.5963,2.6092,2.5687,2.53,2.5146,2.4528,2.4047,2.3829,2.3423,2.3001,2.3038,2.3001,2.3001,2.3001,2.3001,2.3001,2.3001,2.3001,2.2938,2.2777,2.2628,2.2365,4.3615,4.3615,4.3615,4.3462,4.3265,4.3492,4.3432,4.3202,4.3149,4.3151,4.3019,4.2088,4.0906,3.9626,3.9558,3.917,3.8539,3.8539,3.8634,3.8898,3.8898,3.8827,3.8799,3.8816,3.8606,3.8266,3.808,3.7835,3.7499,3.6964,3.6492,3.6228,3.6197,3.6244,3.6383,3.6383,3.6399,3.6368,3.6383,3.6023,3.5382,3.5299,3.518,3.4959,3.4929,3.4616,3.405,3.3707,3.3393,3.299,3.2363,3.1901,3.1618,3.1235,3.091,3.0642,3.0612,3.0612,3.0612,3.0612,3.0612,3.0612,3.0612,3.0612,3.0612,3.0326,3.0249,3.028,2.9727,2.9226,2.9099,2.8972,2.8812,2.8651,2.8587,2.8587,2.8587,2.8587,2.8587,2.8587,2.8587,2.8587,2.8587,2.8587,2.8587,2.8587,2.8587,2.8587,2.8587,2.8587,2.8522,2.8254,2.7591,2.7224,2.7162,2.6607,2.6161,2.5849,2.5323,2.4743,2.4181,2.3938,2.3559,2.3139,2.3139,2.3113,2.3001,2.3001,2.3001,2.3001,2.3001,2.2964,2.2889,2.2777,2.2628,4.391,4.3893,4.3681,4.3615,4.3615,4.3615,4.3615,4.3615,4.3615,4.3615,4.3532,4.3019,4.2137,4.1028,4.0591,4.0094,3.963,3.9398,3.9315,3.9315,3.9315,3.9315,3.9315,3.9315,3.9315,3.9272,3.904,3.8689,3.8266,3.769,3.7219,3.6981,3.6935,3.7027,3.7134,3.7104,3.7028,3.7013,3.6952,3.6739,3.6368,3.6337,3.6212,3.5959,3.5881,3.567,3.5292,3.5094,3.4775,3.4288,3.3634,3.3138,3.2751,3.2138,3.1514,3.1029,3.0866,3.0836,3.0955,3.0717,3.0657,3.0747,3.0687,3.0612,3.0582,3.0507,3.0522,3.0538,2.9837,2.9383,2.9226,2.9067,2.8844,2.8619,2.8587,2.8587,2.8587,2.8587,2.8587,2.8587,2.8587,2.8587,2.8587,2.8587,2.8587,2.8587,2.8587,2.8587,2.8587,2.8587,2.8554,2.8411,2.8333,2.8124,2.7888,2.7364,2.6947,2.6688,2.6173,2.5429,2.4767,2.4648,2.4145,2.3742,2.3607,2.3361,2.3139,2.3075,2.3176,2.3065,2.3001,2.3001,2.3001,2.2852,2.2777,4.4655,4.4539,4.391,4.3615,4.3615,4.3615,4.3615,4.3615,4.3615,4.3615,4.3615,4.3532,4.3118,4.2303,4.1077,4.0409,4.0243,3.9663,3.9348,3.9315,3.9315,3.9315,3.9315,3.9315,3.9315,3.9315,3.9288,3.9067,3.8777,3.8706,3.8583,3.829,3.8205,3.825,3.8148,3.7886,3.7828,3.7711,3.7537,3.7421,3.7375,3.7391,3.6892,3.6086,3.5913,3.5946,3.5839,3.5322,3.5018,3.4973,3.4379,3.3983,3.3863,3.3301,3.2576,3.193,3.1511,3.1452,3.1638,3.1087,3.0836,3.1131,3.091,3.0628,3.0628,3.0401,3.0341,3.0582,3.0219,2.9865,2.9571,2.9099,2.8748,2.8651,2.8587,2.8587,2.8587,2.8587,2.8587,2.8587,2.8587,2.8587,2.8587,2.8587,2.8587,2.8587,2.8587,2.8587,2.8587,2.8587,2.8587,2.8554,2.8444,2.8268,2.8099,2.7789,2.7676,2.7477,2.6939,2.6311,2.607,2.5744,2.4981,2.4492,2.4612,2.4335,2.3534,2.3276,2.3486,2.3423,2.3113,2.3038,2.3001,2.3001,2.2927,4.5133,4.4652,4.3926,4.3615,4.3615,4.3615,4.3615,4.3615,4.3615,4.3615,4.3615,4.3615,4.3433,4.3151,4.2204,4.1243,4.0442,4.0111,3.9763,3.9365,3.9315,3.9315,3.9315,3.9315,3.9315,3.9315,3.9315,3.9245,3.9148,3.9121,3.8958,3.8683,3.8476,3.829,3.8103,3.7943,3.7828,3.7685,3.7714,3.7685,3.7494,3.751,3.7315,3.6968,3.6922,3.6922,3.6938,3.6703,3.6594,3.6594,3.5923,3.5402,3.5013,3.4178,3.333,3.2708,3.2473,3.2263,3.1927,3.1623,3.1495,3.1595,3.1307,3.1058,3.0999,3.0702,3.0492,3.0522,3.028,3.005,2.9896,2.9509,2.9162,2.894,2.8748,2.8651,2.8587,2.8587,2.8587,2.8587,2.8587,2.8587,2.8587,2.8587,2.8587,2.8587,2.8587,2.8587,2.8587,2.8587,2.8587,2.8587,2.8541,2.8476,2.8425,2.8164,2.7967,2.7934,2.759,2.7095,2.6756,2.6539,2.5928,2.5205,2.537,2.5335,2.4504,2.3998,2.4095,2.3768,2.346,2.3176,2.3001,2.3001,2.2964,4.5566,4.4688,4.4175,4.378,4.3615,4.3615,4.3615,4.3615,4.3615,4.3615,4.3615,4.3615,4.3615,4.3532,4.3069,4.2237,4.1077,4.0641,4.0127,3.9663,3.9415,3.9315,3.9315,3.9315,3.9315,3.9315,3.9315,3.9315,3.9315,3.9315,3.9191,3.8942,3.8766,3.8588,3.8343,3.8144,3.7976,3.7847,3.7801,3.7669,3.7539,3.751,3.751,3.751,3.751,3.751,3.751,3.751,3.751,3.7447,3.7006,3.6497,3.5921,3.5206,3.4474,3.3873,3.365,3.3315,3.2729,3.2425,3.222,3.212,3.1737,3.1495,3.1466,3.1219,3.1014,3.0836,3.0642,3.0431,3.0249,3.0083,2.9822,2.9449,2.9198,2.9103,2.9198,2.904,2.883,2.8651,2.8587,2.8587,2.8587,2.8587,2.8587,2.8587,2.8587,2.8587,2.8587,2.8587,2.8587,2.8587,2.8587,2.8587,2.8554,2.836,2.8197,2.8164,2.8079,2.7656,2.7397,2.7196,2.6812,2.6126,2.5826,2.5861,2.5534,2.4992,2.4552,2.4228,2.3829,2.3486,2.3276,2.3001,2.3038,4.6046,4.487,4.4718,4.4257,4.3731,4.3631,4.3615,4.3615,4.3615,4.3615,4.3615,4.3615,4.3615,4.3582,4.3499,4.3118,4.2319,4.1177,4.0509,4.0243,3.968,3.9365,3.9315,3.9315,3.9315,3.9315,3.9315,3.9315,3.9315,3.9315,3.9272,3.9272,3.9175,3.9094,3.9245,3.8628,3.8391,3.825,3.786,3.7583,3.751,3.7539,3.7524,3.751,3.751,3.751,3.751,3.751,3.751,3.751,3.7478,3.7133,3.6553,3.6337,3.6048,3.5351,3.4922,3.4607,3.4207,3.345,3.2929,3.2696,3.2203,3.1908,3.1908,3.1823,3.1623,3.135,3.1248,3.1102,3.0777,3.0762,3.0584,3.0117,2.9964,3.0086,3.0178,2.9889,2.93,2.8881,2.8798,2.8651,2.8651,2.8798,2.8894,2.8862,2.883,2.8862,2.8894,2.883,2.8651,2.8651,2.8651,2.8587,2.8587,2.8587,2.8444,2.8346,2.8229,2.8033,2.7921,2.7743,2.751,2.6926,2.7007,2.6973,2.6483,2.5906,2.524,2.4838,2.4337,2.4022,2.3815,2.3618,2.3287,4.6626,4.6096,4.5102,4.4572,4.4291,4.3813,4.3615,4.3615,4.3615,4.3615,4.3615,4.3615,4.3615,4.3615,4.3598,4.3466,4.3168,4.227,4.1326,4.0509,4.0177,3.9779,3.9398,3.9315,3.9315,3.9315,3.9315,3.9315,3.9315,3.9315,3.9315,3.9272,3.9067,3.8942,3.8985,3.8766,3.86,3.8436,3.8403,3.8217,3.7815,3.7786,3.7669,3.7539,3.751,3.751,3.751,3.751,3.751,3.751,3.751,3.7399,3.7196,3.7148,3.6832,3.6187,3.5975,3.5603,3.5038,3.4396,3.3885,3.3611,3.2936,3.2425,3.2339,3.2104,3.1879,3.1724,3.1724,3.1623,3.1537,3.1537,3.1247,3.0614,3.06,3.0615,3.0644,3.0419,3.0147,2.9964,2.9917,2.9917,2.9886,2.9856,2.9794,2.9794,2.9825,2.9825,2.9825,2.9453,2.9233,2.9219,2.8962,2.8734,2.8862,2.8862,2.867,2.8624,2.8573,2.8327,2.8281,2.8216,2.7954,2.7822,2.7901,2.7769,2.731,2.6778,2.6079,2.5604,2.5276,2.4933,2.4623,2.4263,2.39,4.7139,4.6792,4.5897,4.5168,4.4671,4.4191,4.383,4.3631,4.3615,4.3615,4.3615,4.3615,4.3615,4.3615,4.3615,4.3615,4.3549,4.3085,4.2303,4.1177,4.0531,4.0144,3.968,3.9398,3.9315,3.9315,3.9315,3.9315,3.9315,3.9315,3.9315,3.9245,3.9094,3.9013,3.8985,3.886,3.8694,3.8572,3.8472,3.8286,3.7972,3.7815,3.77,3.7539,3.751,3.751,3.751,3.751,3.751,3.751,3.751,3.751,3.751,3.7478,3.7304,3.6943,3.6769,3.6516,3.5853,3.5366,3.4936,3.4597,3.3791,3.3263,3.3135,3.2748,3.2398,3.2188,3.216,3.2104,3.1949,3.2061,3.1921,3.1536,3.1492,3.1318,3.1145,3.1014,3.0763,3.0584,3.0419,3.048,3.048,3.048,3.048,3.048,3.048,3.048,3.0419,3.0117,2.995,2.9721,2.9376,2.9265,2.931,2.9135,2.8894,2.8912,2.8944,2.867,2.8444,2.8411,2.8281,2.8085,2.8085,2.8013,2.7623,2.741,2.6913,2.6552,2.607,2.5616,2.5194,2.4874,2.4576,4.7587,4.699,4.6891,4.6013,4.4884,4.4655,4.4224,4.3648,4.3615,4.3615,4.3615,4.3615,4.3615,4.3615,4.3615,4.3615,4.3598,4.3532,4.3151,4.2303,4.1326,4.0564,4.0243,3.9613,3.9315,3.9315,3.9315,3.9315,3.9315,3.9315,3.9315,3.9315,3.9272,3.9272,3.9218,3.8969,3.886,3.8777,3.8359,3.8116,3.8017,3.7759,3.7583,3.7569,3.7539,3.751,3.751,3.751,3.751,3.751,3.751,3.751,3.751,3.751,3.7478,3.7399,3.7478,3.7101,3.6598,3.625,3.5998,3.5442,3.4766,3.4304,3.4081,3.3617,3.311,3.2699,3.2656,3.2492,3.2244,3.2382,3.2574,3.2602,3.241,3.2173,3.1849,3.1779,3.1522,3.0955,3.0629,3.0629,3.0807,3.0778,3.0748,3.0748,3.0807,3.0866,3.0778,3.0778,3.0599,3.0299,2.995,2.9811,2.9856,2.967,2.9467,2.956,2.9529,2.9216,2.8753,2.867,2.8688,2.8527,2.8249,2.8164,2.8033,2.7776,2.7497,2.7061,2.6586,2.6104,2.5826,2.5604,2.5358,4.7885,4.7653,4.7123,4.6361,4.5467,4.4937,4.4291,4.3648,4.3615,4.3628,4.3615,4.3615,4.3628,4.3615,4.3645,4.3615,4.3658,4.3658,4.3549,4.3201,4.239,4.1326,4.0442,3.968,3.9315,3.9315,3.9315,3.9315,3.9315,3.9315,3.9315,3.9315,3.9315,3.9315,3.9272,3.9202,3.9175,3.9164,3.9056,3.875,3.8528,3.829,3.8049,3.7786,3.7642,3.7539,3.751,3.751,3.751,3.751,3.751,3.751,3.751,3.751,3.751,3.751,3.7494,3.7447,3.7148,3.6722,3.6329,3.6108,3.5505,3.4901,3.4336,3.4146,3.3729,3.3291,3.3091,3.3038,3.2958,3.3011,3.3091,3.3107,3.2958,3.2839,3.2703,3.2648,3.2413,3.2104,3.1977,3.1892,3.1807,3.1807,3.1764,3.1807,3.1779,3.1779,3.1608,3.1407,3.1233,3.1028,3.0748,3.051,3.0329,3.0192,3.0162,3.0253,3.0192,2.9948,2.9435,2.8944,2.9058,2.9062,2.8573,2.8373,2.8281,2.8124,2.7782,2.7464,2.731,2.6994,2.6837,2.662,2.6277,4.8001,4.7968,4.7537,4.6941,4.6212,4.545,4.4859,4.4377,4.404,4.3877,4.3906,4.3906,4.3906,4.3906,4.3923,4.4023,4.4133,4.4162,4.4047,4.3731,4.2904,4.1707,4.0608,3.9912,3.9613,3.9315,3.9299,3.9315,3.9315,3.9315,3.9315,3.9315,3.9315,3.9315,3.9315,3.9315,3.9315,3.9288,3.9191,3.8985,3.8805,3.8678,3.8551,3.8322,3.8141,3.8042,3.7905,3.7759,3.7642,3.7524,3.751,3.751,3.751,3.751,3.751,3.751,3.751,3.751,3.7447,3.7069,3.6896,3.6738,3.6216,3.5695,3.5173,3.4715,3.4051,3.3814,3.3498,3.3324,3.3293,3.3293,3.3293,3.3266,3.3229,3.3165,3.3112,3.3005,3.2924,3.28,3.2718,3.2648,3.2496,3.2496,3.2453,3.2382,3.2287,3.2315,3.2287,3.2048,3.1823,3.1608,3.1436,3.1189,3.0955,3.0807,3.0925,3.1043,3.0911,3.0659,3.0147,2.9515,2.9376,2.9345,2.8912,2.8619,2.8624,2.8468,2.8143,2.796,2.7987,2.7822,2.7523,2.7356,2.704,4.8001,4.8001,4.8001,4.757,4.6808,4.6142,4.5637,4.5249,4.4641,4.435,4.435,4.4378,4.4333,4.4378,4.435,4.453,4.4855,4.4773,4.4625,4.4164,4.3349,4.2289,4.1215,4.059,4.0184,3.9787,3.9525,3.9468,3.953,3.9494,3.9458,3.9547,3.9494,3.9441,3.953,3.9494,3.9415,3.9451,3.9329,3.9222,3.9179,3.9102,3.9076,3.9032,3.8908,3.875,3.8523,3.8286,3.8014,3.7685,3.7569,3.751,3.751,3.751,3.751,3.751,3.751,3.751,3.751,3.7447,3.7462,3.732,3.6832,3.644,3.6093,3.53,3.4589,3.4194,3.3751,3.3482,3.3293,3.3293,3.3293,3.3293,3.3282,3.3229,3.315,3.3096,3.3069,3.2951,3.2924,3.2827,3.2703,3.2621,3.2578,3.2605,3.2551,3.2523,3.2523,3.2342,3.2231,3.2203,3.202,3.1823,3.1637,3.145,3.1694,3.1836,3.1637,3.1407,3.0925,3.0375,2.995,2.9673,2.9608,2.9404,2.9121,2.8885,2.8661,2.8468,2.8514,2.8203,2.7888,2.7835,2.759,4.8001,4.8001,4.8001,4.757,4.6905,4.65,4.6005,4.5416,4.4964,4.4841,4.4773,4.479,4.479,4.4773,4.479,4.4828,4.4964,4.4964,4.4828,4.4783,4.4589,4.3922,4.2833,4.1704,4.098,4.0807,4.04,4.0162,4.012,4.007,4.0145,4.012,4.0045,4.0145,4.012,4.0045,4.0145,4.0145,4.0053,3.9978,3.9944,3.9825,3.9757,3.9715,3.9543,3.9387,3.9282,3.9203,3.8962,3.8513,3.7956,3.7671,3.7553,3.751,3.751,3.751,3.751,3.751,3.751,3.751,3.751,3.7478,3.732,3.7022,3.644,3.614,3.5363,3.4636,3.4173,3.3893,3.3467,3.3324,3.3293,3.3293,3.3293,3.3282,3.3256,3.3256,3.3176,3.3096,3.3043,3.2989,3.2854,3.2827,3.28,3.2816,3.2746,3.2703,3.2648,3.2594,3.2551,3.2523,3.237,3.2176,3.2076,3.1936,3.202,3.2188,3.2104,3.202,3.1536,3.1189,3.0733,3.0555,3.0554,3.0222,2.9701,2.9811,2.9673,2.9376,2.9044,2.8803,2.8578,2.8411,2.836,4.8212,4.8001,4.8001,4.7899,4.7688,4.7248,4.6819,4.6448,4.5956,4.5532,4.5257,4.5222,4.5205,4.5205,4.5249,4.5311,4.5433,4.5302,4.5222,4.5152,4.5001,4.4795,4.4534,4.3228,4.2356,4.1756,4.1186,4.081,4.0502,4.0441,4.0351,4.04,4.0424,4.0368,4.04,4.0424,4.0375,4.0375,4.04,4.04,4.0392,4.0466,4.0466,4.0466,4.0285,4.0144,3.9927,3.9792,3.9612,3.9299,3.8805,3.8169,3.7727,3.7599,3.7539,3.751,3.751,3.751,3.751,3.751,3.751,3.751,3.751,3.732,3.6896,3.6629,3.6124,3.5426,3.4984,3.4541,3.3862,3.3419,3.334,3.3293,3.3293,3.3293,3.3293,3.3293,3.3282,3.3203,3.3176,3.3123,3.3043,3.3005,3.2951,3.2897,3.287,3.2827,3.28,3.2746,3.2746,3.2691,3.2566,3.2468,3.2468,3.237,3.2287,3.2342,3.2315,3.2287,3.2104,3.1779,3.1465,3.1291,3.1058,3.0614,3.0238,3.045,3.0539,3.0147,2.978,2.9532,2.9376,2.9407,2.9328,4.8562,4.8212,4.8212,4.8452,4.8661,4.8075,4.7756,4.7627,4.7089,4.6326,4.5788,4.5701,4.5684,4.5684,4.5684,4.5905,4.6023,4.5879,4.5684,4.5632,4.5381,4.5381,4.5294,4.474,4.3783,4.2257,4.1894,4.1457,4.1027,4.0662,4.0731,4.0635,4.0611,4.0707,4.0635,4.0611,4.0683,4.0707,4.0731,4.0707,4.0707,4.0937,4.1047,4.1047,4.1007,4.089,4.0618,4.0449,4.0252,4.0153,3.9843,3.9176,3.8463,3.7972,3.7801,3.7844,3.796,3.7988,3.7988,3.7889,3.7831,3.7685,3.7626,3.7655,3.748,3.7189,3.6848,3.6449,3.6011,3.52,3.4514,3.3931,3.3525,3.334,3.3293,3.3319,3.3398,3.3372,3.3309,3.3282,3.324,3.3203,3.315,3.3123,3.3058,3.3005,3.2978,3.2951,3.2951,3.2924,3.2924,3.2843,3.2718,3.2691,3.2648,3.2648,3.2551,3.2496,3.2468,3.2468,3.2468,3.2259,3.1936,3.168,3.1378,3.1043,3.0955,3.116,3.1102,3.0778,3.0539,3.0329,3.0329,3.0405,3.0224,4.9239,4.9161,4.9161,4.9239,4.924,4.8925,4.8428,4.7798,4.7491,4.6815,4.6185,4.608,4.6073,4.6073,4.6097,4.6147,4.6147,4.6073,4.6048,4.6048,4.5905,4.598,4.591,4.5795,4.5194,4.4386,4.3388,4.2556,4.2143,4.1775,4.1359,4.1398,4.1323,4.1323,4.1318,4.1386,4.1277,4.1255,4.1237,4.1277,4.13,4.1386,4.1431,4.1431,4.1431,4.1386,4.1386,4.13,4.1186,4.0843,4.0552,4.0144,3.9689,3.9351,3.9139,3.8941,3.8903,3.8838,3.8756,3.881,3.8618,3.8339,3.8169,3.8169,3.8137,3.8036,3.782,3.7503,3.6766,3.5851,3.5114,3.46,3.3937,3.3583,3.345,3.3581,3.3797,3.3694,3.3424,3.3424,3.3372,3.3309,3.3256,3.3229,3.3176,3.315,3.315,3.3203,3.3256,3.3176,3.3112,3.3005,3.2885,3.2843,3.2843,3.28,3.2773,3.2648,3.2594,3.2594,3.2594,3.2594,3.2385,3.2163,3.2064,3.1964,3.1921,3.1864,3.1694,3.1392,3.1262,3.116,3.1043,3.097,3.0793,4.961,4.9419,4.9419,4.9551,4.9734,4.9625,4.9271,4.873,4.8207,4.7555,4.6863,4.6407,4.6214,4.6214,4.6214,4.6214,4.6214,4.6214,4.6214,4.6214,4.6214,4.6214,4.6214,4.6214,4.6021,4.5424,4.4512,4.35,4.2851,4.2424,4.2026,4.1657,4.1604,4.1604,4.1604,4.156,4.1604,4.1604,4.1604,4.1604,4.1604,4.1604,4.1604,4.1604,4.1604,4.1604,4.1604,4.1604,4.1498,4.134,4.1209,4.1013,4.0808,4.0601,4.0243,3.9664,3.9508,3.9456,3.9351,3.9315,3.9146,3.8957,3.8821,3.8783,3.8767,3.8728,3.876,3.8487,3.7902,3.7081,3.677,3.5773,3.511,3.4718,3.4327,3.4217,3.4317,3.4193,3.3984,3.3704,3.3513,3.3424,3.3293,3.3282,3.3309,3.3293,3.3319,3.345,3.3565,3.3565,3.3513,3.345,3.3372,3.3203,3.3229,3.3187,3.3171,3.3011,3.2931,3.2931,3.2893,3.2958,3.2839,3.2636,3.2621,3.2617,3.237,3.216,3.2076,3.202,3.1908,3.1766,3.1637,3.1507,3.1334,5.0034,4.9669,4.9686,4.9936,5.0233,5.0278,5.0021,4.9635,4.9012,4.8205,4.7362,4.6783,4.6389,4.6232,4.6214,4.6214,4.6214,4.6214,4.6214,4.6214,4.6214,4.6214,4.6214,4.6214,4.6161,4.6003,4.5565,4.4606,4.3641,4.3131,4.257,4.2148,4.1885,4.171,4.1639,4.1604,4.1604,4.1604,4.1604,4.1604,4.1604,4.1604,4.1604,4.1604,4.1604,4.1604,4.1604,4.1604,4.1604,4.156,4.156,4.1542,4.1582,4.1604,4.1059,4.0135,3.9927,3.9876,3.9851,3.9868,3.9834,3.9577,3.9463,3.9411,3.9463,3.9558,3.962,3.9441,3.8944,3.8378,3.7986,3.7128,3.6357,3.5778,3.5323,3.4998,3.4913,3.4769,3.4617,3.4276,3.3857,3.3652,3.3668,3.3832,3.3942,3.3942,3.3968,3.4018,3.4143,3.4168,3.4143,3.4084,3.3933,3.3652,3.3601,3.3678,3.3662,3.363,3.3578,3.3578,3.3481,3.3419,3.3288,3.3208,3.3091,3.3033,3.2711,3.2453,3.2342,3.2287,3.237,3.2315,3.2061,3.2005,3.1977,5.0792,5.071,5.071,5.0764,5.0792,5.0764,5.038,4.975,4.9583,4.8696,4.7485,4.7257,4.6811,4.6337,4.6214,4.6214,4.6214,4.6214,4.6214,4.6214,4.6214,4.6214,4.6214,4.6214,4.6214,4.6196,4.6074,4.5642,4.4764,4.4079,4.3395,4.2816,4.2605,4.2342,4.1815,4.1797,4.1604,4.1604,4.1604,4.1604,4.1604,4.1604,4.1604,4.1604,4.1604,4.1604,4.1604,4.1604,4.1604,4.1604,4.1604,4.1604,4.1604,4.1604,4.1582,4.1386,4.1255,4.1117,4.0919,4.0825,4.0635,4.0277,4.0111,4.0086,4.0178,4.0458,4.0662,4.0864,4.0182,3.9555,3.9058,3.8296,3.7319,3.6621,3.6159,3.5823,3.5637,3.5328,3.5168,3.5075,3.4721,3.4374,3.4193,3.4448,3.4642,3.4642,3.4601,3.4625,3.4673,3.4714,3.4738,3.4666,3.4423,3.4177,3.4052,3.4118,3.4152,3.4169,3.4169,3.4169,3.4086,3.3977,3.3969,3.3869,3.3732,3.3465,3.3161,3.2884,3.2645,3.2496,3.2425,3.2425,3.237,3.2398,3.2398,5.0891,5.0891,5.0891,5.0891,5.0891,5.0891,5.0742,5.0329,4.9881,4.9082,4.8117,4.7555,4.6958,4.6337,4.6214,4.6214,4.6214,4.6214,4.6214,4.6214,4.6214,4.6214,4.6214,4.6214,4.6214,4.6214,4.6196,4.6091,4.5536,4.494,4.4185,4.3535,4.3395,4.3061,4.2359,4.2271,4.199,4.1762,4.1604,4.1604,4.1604,4.1604,4.1604,4.1604,4.1604,4.1604,4.1604,4.1604,4.1604,4.1604,4.1604,4.1604,4.1604,4.1604,4.1582,4.1582,4.1538,4.1453,4.1408,4.1363,4.114,4.096,4.0802,4.0761,4.0825,4.096,4.1175,4.1152,4.0847,4.045,4.0059,3.9474,3.8843,3.8109,3.7263,3.687,3.6553,3.598,3.5727,3.5683,3.5571,3.5214,3.488,3.488,3.4981,3.4934,3.4934,3.4998,3.5098,3.5237,3.5237,3.5237,3.4958,3.4649,3.4601,3.4577,3.4577,3.4609,3.4585,3.4585,3.4625,3.4577,3.4585,3.4536,3.4407,3.407,3.3665,3.3214,3.2861,3.2645,3.2437,3.252,3.2586,3.2398,3.2398,5.0891,5.0891,5.0891,5.0891,5.0891,5.0891,5.0891,5.0803,5.0285,4.9574,4.8731,4.7854,4.6976,4.6354,4.6214,4.6214,4.6214,4.6214,4.6214,4.6214,4.6214,4.6214,4.6214,4.6214,4.6214,4.6214,4.6214,4.6161,4.6003,4.5582,4.4975,4.4237,4.422,4.3781,4.3272,4.3009,4.2763,4.2061,4.1727,4.1622,4.1604,4.1604,4.1604,4.1604,4.1604,4.1604,4.1604,4.1604,4.1604,4.1604,4.1604,4.1604,4.1604,4.1604,4.1604,4.1604,4.1582,4.1582,4.156,4.1515,4.1448,4.1363,4.134,4.1186,4.1209,4.1272,4.1272,4.1272,4.1134,4.1082,4.0978,4.0395,3.9905,3.9302,3.8682,3.8254,3.7719,3.7016,3.6534,3.6417,3.6288,3.5963,3.5638,3.5391,3.5283,3.5237,3.526,3.5368,3.5526,3.5688,3.571,3.5705,3.5577,3.5334,3.5289,3.522,3.5168,3.5098,3.5075,3.5144,3.526,3.526,3.5237,3.5168,3.5021,3.4721,3.4301,3.3681,3.3113,3.324,3.3261,3.2933,3.2815,3.2586,3.2453,5.0891,5.0891,5.0891,5.0891,5.0891,5.0891,5.0891,5.0891,5.0803,5.0276,4.9363,4.8082,4.6976,4.6389,4.6249,4.6214,4.6214,4.6214,4.6214,4.6214,4.6214,4.6214,4.6214,4.6214,4.6214,4.6214,4.6214,4.6214,4.6196,4.6091,4.5565,4.5115,4.5027,4.4518,4.4027,4.3676,4.336,4.2675,4.2131,4.1762,4.171,4.1657,4.1604,4.1604,4.1604,4.1604,4.1604,4.1604,4.1604,4.1604,4.1604,4.1604,4.1604,4.1604,4.1604,4.1604,4.1604,4.1604,4.1582,4.1582,4.1515,4.1448,4.1403,4.1403,4.1403,4.1403,4.138,4.138,4.1272,4.1186,4.1163,4.099,4.0585,4.0146,3.9604,3.9165,3.855,3.7879,3.7434,3.7245,3.7051,3.6874,3.6612,3.6398,3.5895,3.58,3.5732,3.5837,3.5924,3.6054,3.6118,3.6135,3.6156,3.6097,3.6118,3.6011,3.5776,3.5732,3.5732,3.5864,3.6011,3.5968,3.5749,3.5661,3.5504,3.5214,3.5005,3.4616,3.4358,3.426,3.4087,3.3633,3.3235,3.2986,3.2803,5.0891,5.0891,5.0891,5.0891,5.0891,5.0891,5.0891,5.0891,5.0891,5.0452,4.9618,4.8099,4.7222,4.6871,4.6354,4.6214,4.6214,4.6214,4.6214,4.6214,4.6214,4.6214,4.6214,4.6214,4.6214,4.6214,4.6214,4.6214,4.6214,4.6214,4.6109,4.581,4.5705,4.5308,4.4817,4.4202,4.3781,4.343,4.278,4.2359,4.2236,4.1797,4.1604,4.1604,4.1604,4.1604,4.1604,4.1604,4.1604,4.1604,4.1604,4.1604,4.1604,4.1604,4.1604,4.1604,4.1604,4.1604,4.1604,4.1604,4.1582,4.156,4.1515,4.1515,4.1515,4.1515,4.1515,4.1493,4.1386,4.13,4.1318,4.1209,4.0989,4.0694,4.0363,3.9936,3.944,3.8772,3.8386,3.8248,3.8135,3.8027,3.7772,3.7491,3.6891,3.6362,3.6335,3.6284,3.6284,3.6284,3.6284,3.6284,3.6284,3.6284,3.6284,3.6284,3.6284,3.6284,3.6284,3.6284,3.6284,3.6262,3.6092,3.6028,3.5985,3.5793,3.5666,3.5666,3.5425,3.4931,3.4576,3.4211,3.3811,3.3427,3.3287,5.1061,5.1132,5.0972,5.0891,5.0891,5.0891,5.0891,5.0891,5.0891,5.0434,4.9609,4.831,4.7573,4.7239,4.6565,4.6214,4.6214,4.6214,4.6214,4.6214,4.6214,4.6214,4.6214,4.6214,4.6214,4.6214,4.6214,4.6214,4.6214,4.6214,4.6161,4.6161,4.6179,4.5793,4.5407,4.4694,4.4255,4.4079,4.357,4.3149,4.3009,4.2658,4.2148,4.2113,4.2043,4.1815,4.171,4.1604,4.1604,4.1604,4.1604,4.1604,4.1604,4.1604,4.1604,4.1604,4.1604,4.1604,4.1604,4.1604,4.1604,4.1582,4.1582,4.1582,4.1604,4.1604,4.1582,4.1582,4.1515,4.1448,4.1448,4.134,4.1318,4.1079,4.0826,4.045,4.0229,3.9755,3.9477,3.9234,3.9033,3.8682,3.8538,3.8135,3.7391,3.6757,3.6335,3.6301,3.6284,3.6284,3.6284,3.6284,3.6284,3.6284,3.6284,3.6318,3.6353,3.6284,3.6284,3.6284,3.6284,3.6284,3.6284,3.6199,3.6178,3.6262,3.6199,3.6011,3.5693,3.5317,3.5018,3.4759,3.452,3.4161,3.3987,5.1454,5.1615,5.1141,5.0945,5.0945,5.0918,5.0891,5.0891,5.0891,5.0487,4.9767,4.8854,4.8099,4.7467,4.6783,4.6354,4.6214,4.6214,4.6214,4.6214,4.6214,4.6214,4.6214,4.6214,4.6214,4.6214,4.6214,4.6214,4.6214,4.6214,4.6214,4.6214,4.6196,4.6144,4.6056,4.5449,4.5098,4.4957,4.4273,4.3974,4.3834,4.3658,4.3202,4.2903,4.2763,4.2517,4.199,4.185,4.1797,4.1622,4.1604,4.1604,4.1604,4.1604,4.1604,4.1604,4.1604,4.1604,4.1604,4.1604,4.1604,4.1604,4.1604,4.1604,4.1604,4.1604,4.1604,4.1604,4.1582,4.1582,4.1538,4.1493,4.1493,4.1418,4.1148,4.1021,4.0799,4.0615,4.0301,4.0184,3.9547,3.9016,3.8977,3.8686,3.7884,3.7197,3.6546,3.6387,3.6581,3.6715,3.687,3.6922,3.6956,3.6749,3.6766,3.649,3.6404,3.6335,3.6284,3.6284,3.6284,3.6284,3.6284,3.6284,3.6284,3.6284,3.6284,3.6262,3.5972,3.5715,3.5577,3.5351,3.5105,3.4894,3.4712,5.1615,5.169,5.1505,5.1428,5.1402,5.1052,5.0891,5.0891,5.0873,5.0733,5.0391,4.9644,4.8889,4.8135,4.7327,4.6713,4.6284,4.6214,4.6214,4.6214,4.6214,4.6214,4.6214,4.6214,4.6214,4.6214,4.6214,4.6214,4.6214,4.6214,4.6214,4.6214,4.6214,4.6214,4.6144,4.5881,4.5828,4.5712,4.515,4.4676,4.4624,4.4237,4.3851,4.3553,4.3535,4.3167,4.2482,4.2394,4.2201,4.185,4.178,4.1692,4.1674,4.1657,4.1604,4.1604,4.1604,4.1604,4.1604,4.1604,4.1604,4.1604,4.1604,4.1604,4.1604,4.1604,4.1604,4.1604,4.1604,4.1604,4.1582,4.156,4.156,4.156,4.1428,4.1445,4.1323,4.1181,4.0996,4.1063,4.0714,4.0158,3.9944,3.9756,3.902,3.8551,3.8057,3.7728,3.7793,3.7892,3.803,3.803,3.7956,3.7577,3.7301,3.7167,3.6874,3.6715,3.6508,3.6284,3.6284,3.637,3.6284,3.6284,3.6284,3.6284,3.6284,3.6284,3.6284,3.6139,3.5946,3.5859,3.5732,3.5532,3.5391,5.1907,5.198,5.1765,5.1765,5.1765,5.1359,5.1141,5.1034,5.0945,5.0891,5.0697,5.0057,4.9434,4.8766,4.7889,4.7222,4.6582,4.6302,4.6214,4.6214,4.6214,4.6214,4.6214,4.6214,4.6214,4.6214,4.6214,4.6214,4.6214,4.6214,4.6214,4.6214,4.6214,4.6214,4.6179,4.6161,4.6144,4.6003,4.5617,4.5484,4.5319,4.5045,4.4641,4.4413,4.4237,4.3957,4.3412,4.3096,4.2938,4.2464,4.2184,4.2043,4.199,4.178,4.1657,4.1604,4.1604,4.1604,4.1604,4.1604,4.1604,4.1604,4.1604,4.1604,4.1604,4.1604,4.1604,4.1604,4.1604,4.1626,4.1626,4.1626,4.1604,4.1604,4.1604,4.1604,4.1565,4.1423,4.1383,4.1503,4.1512,4.1117,4.0872,4.0665,4.0284,3.9951,3.9641,3.9319,3.894,3.8874,3.8891,3.8896,3.877,3.8372,3.8113,3.8009,3.7659,3.7185,3.6964,3.6782,3.6542,3.6646,3.6473,3.6284,3.6301,3.6301,3.6284,3.6284,3.6284,3.6284,3.622,3.6199,3.6301,3.6092,3.5832,5.2269,5.2387,5.1956,5.1889,5.2036,5.179,5.1538,5.1298,5.1052,5.0945,5.0919,5.018,4.975,4.9416,4.8178,4.7485,4.7204,4.66,4.6337,4.6232,4.6214,4.6214,4.6214,4.6214,4.6214,4.6214,4.6214,4.6214,4.6214,4.6214,4.6214,4.6214,4.6214,4.6214,4.6214,4.6214,4.6214,4.6144,4.6091,4.5968,4.5863,4.5951,4.553,4.5273,4.5062,4.4676,4.422,4.3904,4.3816,4.3518,4.3184,4.2938,4.2605,4.2078,4.1797,4.1604,4.1604,4.1604,4.1604,4.1604,4.1604,4.1604,4.1604,4.1604,4.1604,4.1604,4.1604,4.1604,4.1604,4.1631,4.1653,4.1631,4.1609,4.1609,4.1626,4.1626,4.1604,4.1565,4.1565,4.1609,4.1675,4.1542,4.1619,4.148,4.1282,4.1078,4.0757,4.0451,4.0045,3.9515,3.9532,3.9502,3.9341,3.9049,3.8915,3.8955,3.856,3.8105,3.7883,3.7696,3.7382,3.7102,3.6956,3.6801,3.6439,3.6318,3.6284,3.6284,3.6284,3.6284,3.6284,3.6284,3.6284,3.6284,3.6135,5.2428,5.2475,5.234,5.2317,5.234,5.2084,5.1815,5.1564,5.1281,5.1272,5.1436,5.0832,5.0365,4.9896,4.931,4.8414,4.7703,4.7116,4.6653,4.6442,4.6298,4.6214,4.6214,4.6214,4.6214,4.6214,4.6214,4.6214,4.6214,4.6214,4.6214,4.6214,4.6214,4.6214,4.6214,4.6214,4.6214,4.6214,4.6214,4.6214,4.6214,4.6214,4.5968,4.5846,4.5775,4.5378,4.494,4.4746,4.4571,4.3974,4.3763,4.3588,4.3518,4.2868,4.2342,4.1657,4.1604,4.1604,4.1604,4.1604,4.1631,4.1653,4.1631,4.1604,4.1604,4.1631,4.1631,4.1675,4.1766,4.1874,4.192,4.192,4.1941,4.1945,4.1878,4.1744,4.1744,4.1723,4.1744,4.1852,4.1899,4.2092,4.2198,4.2246,4.2063,4.2,4.1821,4.1498,4.1117,4.0574,4.0412,4.042,4.0377,4.0219,4.004,4.0017,3.952,3.9085,3.8947,3.8755,3.8519,3.8204,3.7733,3.737,3.7082,3.6651,3.6284,3.6284,3.6284,3.6284,3.6284,3.6284,3.6284,3.6284,3.6284,5.2498,5.2498,5.2498,5.2498,5.2457,5.2317,5.215,5.1963,5.1615,5.1564,5.1658,5.1359,5.1041,5.0744,5.0191,4.9521,4.876,4.7964,4.7402,4.7009,4.6491,4.633,4.6263,4.6239,4.6214,4.6214,4.6214,4.6214,4.6214,4.6214,4.6214,4.6214,4.6214,4.6214,4.6214,4.6214,4.6214,4.6214,4.6214,4.6214,4.6239,4.6239,4.6214,4.6246,4.6246,4.5929,4.5631,4.5526,4.522,4.4764,4.4659,4.436,4.4237,4.3658,4.2903,4.2311,4.2335,4.2171,4.2023,4.2089,4.1984,4.1878,4.1831,4.1835,4.1856,4.1878,4.1878,4.1899,4.205,4.2175,4.2218,4.2279,4.2322,4.2402,4.2177,4.1924,4.192,4.192,4.2026,4.2133,4.23,4.2521,4.2657,4.2773,4.2754,4.2521,4.2402,4.2295,4.1986,4.1587,4.1564,4.1652,4.1638,4.1576,4.1321,4.1094,4.0899,4.0542,4.0304,4.0083,3.9761,3.9367,3.8954,3.8374,3.7772,3.7452,3.7202,3.6471,3.6284,3.6381,3.6482,3.6367,3.6346,3.6284,3.6284,5.2498,5.2498,5.2498,5.2498,5.2498,5.2475,5.2475,5.2434,5.1963,5.1765,5.1808,5.1733,5.1629,5.1405,5.0927,5.0528,4.9719,4.8876,4.8111,4.7771,4.6956,4.656,4.6416,4.627,4.6368,4.6295,4.6246,4.627,4.6214,4.6214,4.6214,4.6214,4.6214,4.6214,4.6214,4.6214,4.6246,4.6398,4.6374,4.6392,4.6343,4.6295,4.627,4.6374,4.6398,4.6328,4.6321,4.6266,4.6228,4.6007,4.5677,4.5203,4.4764,4.453,4.3756,4.3385,4.3405,4.309,4.2821,4.2767,4.2568,4.2432,4.2259,4.2239,4.2239,4.2113,4.205,4.2239,4.242,4.2599,4.2678,4.2619,4.2619,4.2639,4.2541,4.2402,4.2362,4.2362,4.2422,4.256,4.2753,4.2941,4.3141,4.3248,4.3159,4.2959,4.2847,4.2847,4.2716,4.2404,4.2424,4.2582,4.2408,4.2291,4.23,4.2158,4.2343,4.211,4.1697,4.1401,4.1056,4.0633,4.0178,3.9591,3.9018,3.866,3.8278,3.7619,3.7128,3.7003,3.6986,3.6588,3.6471,3.6553,3.6474,5.2498,5.2498,5.2498,5.2498,5.2498,5.2498,5.2498,5.2498,5.2364,5.2293,5.2246,5.1914,5.1815,5.1891,5.1589,5.1182,5.0425,4.9722,4.8782,4.8087,4.7374,4.6913,4.6795,4.6702,4.6655,4.6542,4.6471,4.6398,4.6319,4.6263,4.6214,4.6196,4.6246,4.6319,4.6295,4.6295,4.6471,4.6719,4.6742,4.6765,4.6812,4.6835,4.684,4.7089,4.7204,4.716,4.7071,4.6886,4.6794,4.6612,4.6192,4.5684,4.5115,4.5244,4.4911,4.4434,4.4563,4.4297,4.3873,4.3627,4.339,4.2934,4.2693,4.2675,4.2578,4.234,4.234,4.258,4.2829,4.3014,4.3105,4.3014,4.2922,4.2922,4.2904,4.2848,4.2829,4.2848,4.2867,4.3032,4.3212,4.337,4.3577,4.3594,4.3508,4.3423,4.3319,4.3266,4.3248,4.3069,4.2885,4.2959,4.2792,4.2735,4.2885,4.2978,4.3051,4.3014,4.2614,4.2431,4.2317,4.1831,4.1289,4.0851,4.0358,3.9962,3.9513,3.8974,3.8522,3.8155,3.767,3.7395,3.7295,3.7336,3.7091,5.2498,5.2498,5.2498,5.2498,5.2498,5.2498,5.2498,5.2498,5.2498,5.2498,5.2475,5.2222,5.2132,5.2269,5.2108,5.1868,5.1209,5.055,4.9744,4.8885,4.8069,4.7405,4.7227,4.7097,4.6929,4.6795,4.6772,4.6702,4.6536,4.656,4.6542,4.6423,4.6495,4.6619,4.6572,4.6672,4.689,4.7204,4.7204,4.7313,4.7399,4.7417,4.7313,4.7569,4.7611,4.7632,4.7548,4.7335,4.727,4.7182,4.6945,4.6788,4.6454,4.6506,4.6166,4.5771,4.5673,4.5713,4.5075,4.4638,4.4327,4.3798,4.316,4.3142,4.3069,4.2885,4.2867,4.3105,4.3388,4.3594,4.361,4.3525,4.3508,4.3525,4.33,4.3159,4.323,4.3335,4.3423,4.356,4.366,4.3693,4.3825,4.3844,4.3777,4.3761,4.3679,4.3646,4.3644,4.3594,4.3457,4.3354,4.3212,4.3265,4.3457,4.3525,4.3577,4.3508,4.3387,4.3297,4.3099,4.281,4.241,4.2067,4.1669,4.1198,4.0744,4.0237,3.9752,3.9316,3.8797,3.8259,3.8222,3.8184,3.7935,5.2498,5.2498,5.2498,5.2498,5.2498,5.2498,5.2498,5.2498,5.2498,5.2498,5.2498,5.2475,5.2498,5.2498,5.2498,5.2498,5.2149,5.1279,5.052,4.991,4.9091,4.834,4.7747,4.7366,4.729,4.7097,4.698,4.6957,4.6888,4.6888,4.6819,4.6778,4.6967,4.7196,4.716,4.7338,4.7575,4.7679,4.7779,4.7979,4.7997,4.7975,4.7856,4.7777,4.7777,4.7756,4.7777,4.7715,4.7715,4.7611,4.7567,4.7388,4.7416,4.7388,4.7239,4.6906,4.7035,4.6801,4.6285,4.589,4.5358,4.4736,4.4023,4.364,4.3586,4.3475,4.344,4.3542,4.3844,4.3942,4.3939,4.3939,4.3939,4.3923,4.3644,4.3457,4.361,4.3744,4.386,4.3974,4.3989,4.3989,4.3989,4.4005,4.4005,4.4005,4.4005,4.4005,4.3974,4.3876,4.3744,4.3728,4.3679,4.3793,4.3923,4.3892,4.3844,4.3844,4.3744,4.3862,4.3841,4.3474,4.3316,4.3437,4.3023,4.2433,4.1965,4.1475,4.1013,4.06,4.0104,3.9659,3.9537,3.9422,3.896,5.2498,5.2498,5.2498,5.2498,5.2498,5.2498,5.2498,5.2498,5.2498,5.2498,5.2498,5.2498,5.2498,5.2498,5.2498,5.248,5.2371,5.1719,5.1416,5.0896,5.0069,4.9288,4.8648,4.8213,4.7925,4.7581,4.721,4.7025,4.716,4.7093,4.702,4.7002,4.7248,4.7403,4.7424,4.7679,4.8021,4.8157,4.8309,4.8458,4.855,4.8514,4.8458,4.8514,4.866,4.866,4.8569,4.8326,4.821,4.8055,4.7877,4.7775,4.7818,4.7997,4.7931,4.79,4.8071,4.7847,4.7378,4.7021,4.6471,4.5543,4.4866,4.4439,4.4235,4.3865,4.383,4.3793,4.3974,4.3974,4.3989,4.3989,4.3989,4.3989,4.3828,4.3828,4.3892,4.3908,4.3958,4.3989,4.3989,4.4005,4.4005,4.4005,4.4005,4.4005,4.4005,4.4005,4.4005,4.4005,4.4005,4.4005,4.4005,4.4005,4.3989,4.3974,4.3958,4.3989,4.4005,4.3992,4.3992,4.4008,4.3939,4.3871,4.3886,4.3513,4.3063,4.2527,4.241,4.1997,4.1533,4.1151,4.0969,4.0617,4.0099]}]]